<?xml version="1.0" encoding="UTF-8" standalone="no" ?>
<gpx xmlns="http://www.topografix.com/GPX/1/1" xmlns:xsi="http://www.w3.org/2001/XMLSchema-instance" xsi:schemaLocation="http://www.topografix.com/GPX/1/1 http://www.topografix.com/GPX/1/1/gpx.xsd" version="1.1" creator="VisuGPX - https://www.visugpx.com">
  <metadata>
    <name>16-10-2016</name>
    <desc><![CDATA[Sortie VTT Louvignies-Quesnoy
]]></desc>
  </metadata>
  <trk>
    <name><![CDATA[VTT Louvignies 16 octobre 2016]]></name>
    <desc><![CDATA[]]></desc>
    <trkseg>
      <trkpt lat="50.22072" lon="3.64194">
        <ele>177.9</ele>
        <time>2016-10-16T11:57:51.000Z</time>
      </trkpt>
      <trkpt lat="50.22068" lon="3.64171">
        <ele>184</ele>
        <time>2016-10-16T11:57:56.000Z</time>
      </trkpt>
      <trkpt lat="50.22073" lon="3.64199">
        <ele>180.3</ele>
        <time>2016-10-16T11:58:02.000Z</time>
      </trkpt>
      <trkpt lat="50.22065" lon="3.64192">
        <ele>181.5</ele>
        <time>2016-10-16T11:58:23.000Z</time>
      </trkpt>
      <trkpt lat="50.22068" lon="3.64197">
        <ele>180.8</ele>
        <time>2016-10-16T11:58:26.000Z</time>
      </trkpt>
      <trkpt lat="50.22077" lon="3.64216">
        <ele>170</ele>
        <time>2016-10-16T11:58:29.000Z</time>
      </trkpt>
      <trkpt lat="50.22089" lon="3.6422">
        <ele>169.2</ele>
        <time>2016-10-16T11:58:35.000Z</time>
      </trkpt>
      <trkpt lat="50.22112" lon="3.6422">
        <ele>167.7</ele>
        <time>2016-10-16T11:58:41.000Z</time>
      </trkpt>
      <trkpt lat="50.22137" lon="3.64222">
        <ele>167.7</ele>
        <time>2016-10-16T11:58:47.000Z</time>
      </trkpt>
      <trkpt lat="50.22166" lon="3.64225">
        <ele>166.8</ele>
        <time>2016-10-16T11:58:53.000Z</time>
      </trkpt>
      <trkpt lat="50.22181" lon="3.64226">
        <ele>167.1</ele>
        <time>2016-10-16T11:58:56.000Z</time>
      </trkpt>
      <trkpt lat="50.22196" lon="3.64228">
        <ele>166.9</ele>
        <time>2016-10-16T11:58:59.000Z</time>
      </trkpt>
      <trkpt lat="50.22227" lon="3.6423">
        <ele>167.5</ele>
        <time>2016-10-16T11:59:05.000Z</time>
      </trkpt>
      <trkpt lat="50.22243" lon="3.64231">
        <ele>167.8</ele>
        <time>2016-10-16T11:59:08.000Z</time>
      </trkpt>
      <trkpt lat="50.22274" lon="3.64234">
        <ele>169.2</ele>
        <time>2016-10-16T11:59:14.000Z</time>
      </trkpt>
      <trkpt lat="50.22303" lon="3.64236">
        <ele>169.5</ele>
        <time>2016-10-16T11:59:20.000Z</time>
      </trkpt>
      <trkpt lat="50.22331" lon="3.64214">
        <ele>169.2</ele>
        <time>2016-10-16T11:59:26.000Z</time>
      </trkpt>
      <trkpt lat="50.22363" lon="3.64161">
        <ele>165.7</ele>
        <time>2016-10-16T11:59:32.000Z</time>
      </trkpt>
      <trkpt lat="50.22397" lon="3.64111">
        <ele>166.7</ele>
        <time>2016-10-16T11:59:38.000Z</time>
      </trkpt>
      <trkpt lat="50.22408" lon="3.6409">
        <ele>166.2</ele>
        <time>2016-10-16T11:59:41.000Z</time>
      </trkpt>
      <trkpt lat="50.22435" lon="3.64039">
        <ele>168</ele>
        <time>2016-10-16T11:59:47.000Z</time>
      </trkpt>
      <trkpt lat="50.22448" lon="3.64016">
        <ele>169.2</ele>
        <time>2016-10-16T11:59:50.000Z</time>
      </trkpt>
      <trkpt lat="50.22472" lon="3.63966">
        <ele>171.2</ele>
        <time>2016-10-16T11:59:56.000Z</time>
      </trkpt>
      <trkpt lat="50.22494" lon="3.63913">
        <ele>171.6</ele>
        <time>2016-10-16T12:00:02.000Z</time>
      </trkpt>
      <trkpt lat="50.22505" lon="3.63885">
        <ele>169.8</ele>
        <time>2016-10-16T12:00:05.000Z</time>
      </trkpt>
      <trkpt lat="50.22541" lon="3.63837">
        <ele>169.8</ele>
        <time>2016-10-16T12:00:11.000Z</time>
      </trkpt>
      <trkpt lat="50.2256" lon="3.63814">
        <ele>168.9</ele>
        <time>2016-10-16T12:00:14.000Z</time>
      </trkpt>
      <trkpt lat="50.22586" lon="3.63753">
        <ele>168.6</ele>
        <time>2016-10-16T12:00:20.000Z</time>
      </trkpt>
      <trkpt lat="50.22599" lon="3.63713">
        <ele>167.3</ele>
        <time>2016-10-16T12:00:23.000Z</time>
      </trkpt>
      <trkpt lat="50.22604" lon="3.6369">
        <ele>168.2</ele>
        <time>2016-10-16T12:00:26.000Z</time>
      </trkpt>
      <trkpt lat="50.22621" lon="3.63633">
        <ele>170.9</ele>
        <time>2016-10-16T12:00:32.000Z</time>
      </trkpt>
      <trkpt lat="50.22638" lon="3.63576">
        <ele>171.7</ele>
        <time>2016-10-16T12:00:38.000Z</time>
      </trkpt>
      <trkpt lat="50.22647" lon="3.6355">
        <ele>172.7</ele>
        <time>2016-10-16T12:00:41.000Z</time>
      </trkpt>
      <trkpt lat="50.22665" lon="3.63494">
        <ele>175.2</ele>
        <time>2016-10-16T12:00:47.000Z</time>
      </trkpt>
      <trkpt lat="50.22676" lon="3.63461">
        <ele>174.9</ele>
        <time>2016-10-16T12:00:50.000Z</time>
      </trkpt>
      <trkpt lat="50.22685" lon="3.63435">
        <ele>175.3</ele>
        <time>2016-10-16T12:00:53.000Z</time>
      </trkpt>
      <trkpt lat="50.22698" lon="3.63378">
        <ele>175.5</ele>
        <time>2016-10-16T12:00:59.000Z</time>
      </trkpt>
      <trkpt lat="50.22706" lon="3.63352">
        <ele>176.2</ele>
        <time>2016-10-16T12:01:02.000Z</time>
      </trkpt>
      <trkpt lat="50.22721" lon="3.63305">
        <ele>176.9</ele>
        <time>2016-10-16T12:01:08.000Z</time>
      </trkpt>
      <trkpt lat="50.2273" lon="3.63278">
        <ele>176.3</ele>
        <time>2016-10-16T12:01:09.000Z</time>
      </trkpt>
      <trkpt lat="50.22751" lon="3.63222">
        <ele>176.4</ele>
        <time>2016-10-16T12:01:15.000Z</time>
      </trkpt>
      <trkpt lat="50.22774" lon="3.63161">
        <ele>176.8</ele>
        <time>2016-10-16T12:01:21.000Z</time>
      </trkpt>
      <trkpt lat="50.22785" lon="3.63132">
        <ele>177.9</ele>
        <time>2016-10-16T12:01:24.000Z</time>
      </trkpt>
      <trkpt lat="50.22799" lon="3.63102">
        <ele>175.7</ele>
        <time>2016-10-16T12:01:27.000Z</time>
      </trkpt>
      <trkpt lat="50.22828" lon="3.63048">
        <ele>175.4</ele>
        <time>2016-10-16T12:01:33.000Z</time>
      </trkpt>
      <trkpt lat="50.22854" lon="3.62991">
        <ele>174.6</ele>
        <time>2016-10-16T12:01:39.000Z</time>
      </trkpt>
      <trkpt lat="50.22864" lon="3.62964">
        <ele>174.5</ele>
        <time>2016-10-16T12:01:42.000Z</time>
      </trkpt>
      <trkpt lat="50.22874" lon="3.62935">
        <ele>174.9</ele>
        <time>2016-10-16T12:01:45.000Z</time>
      </trkpt>
      <trkpt lat="50.22894" lon="3.62879">
        <ele>176</ele>
        <time>2016-10-16T12:01:51.000Z</time>
      </trkpt>
      <trkpt lat="50.22913" lon="3.62827">
        <ele>175.4</ele>
        <time>2016-10-16T12:01:57.000Z</time>
      </trkpt>
      <trkpt lat="50.22932" lon="3.62775">
        <ele>176.1</ele>
        <time>2016-10-16T12:02:03.000Z</time>
      </trkpt>
      <trkpt lat="50.22942" lon="3.6275">
        <ele>176</ele>
        <time>2016-10-16T12:02:06.000Z</time>
      </trkpt>
      <trkpt lat="50.22953" lon="3.62724">
        <ele>176.4</ele>
        <time>2016-10-16T12:02:09.000Z</time>
      </trkpt>
      <trkpt lat="50.22963" lon="3.62699">
        <ele>176.7</ele>
        <time>2016-10-16T12:02:12.000Z</time>
      </trkpt>
      <trkpt lat="50.22982" lon="3.62648">
        <ele>177.9</ele>
        <time>2016-10-16T12:02:18.000Z</time>
      </trkpt>
      <trkpt lat="50.2299" lon="3.62623">
        <ele>178.5</ele>
        <time>2016-10-16T12:02:21.000Z</time>
      </trkpt>
      <trkpt lat="50.2301" lon="3.62574">
        <ele>179.1</ele>
        <time>2016-10-16T12:02:27.000Z</time>
      </trkpt>
      <trkpt lat="50.23028" lon="3.62523">
        <ele>179.7</ele>
        <time>2016-10-16T12:02:33.000Z</time>
      </trkpt>
      <trkpt lat="50.23047" lon="3.62482">
        <ele>180</ele>
        <time>2016-10-16T12:02:39.000Z</time>
      </trkpt>
      <trkpt lat="50.23059" lon="3.62462">
        <ele>180.1</ele>
        <time>2016-10-16T12:02:42.000Z</time>
      </trkpt>
      <trkpt lat="50.23087" lon="3.62425">
        <ele>180.6</ele>
        <time>2016-10-16T12:02:48.000Z</time>
      </trkpt>
      <trkpt lat="50.23126" lon="3.62368">
        <ele>179.7</ele>
        <time>2016-10-16T12:02:54.000Z</time>
      </trkpt>
      <trkpt lat="50.23146" lon="3.62334">
        <ele>177</ele>
        <time>2016-10-16T12:02:57.000Z</time>
      </trkpt>
      <trkpt lat="50.23171" lon="3.62325">
        <ele>174.2</ele>
        <time>2016-10-16T12:03:03.000Z</time>
      </trkpt>
      <trkpt lat="50.23186" lon="3.62313">
        <ele>173</ele>
        <time>2016-10-16T12:03:06.000Z</time>
      </trkpt>
      <trkpt lat="50.23196" lon="3.6229">
        <ele>172.8</ele>
        <time>2016-10-16T12:03:09.000Z</time>
      </trkpt>
      <trkpt lat="50.23222" lon="3.6224">
        <ele>171.9</ele>
        <time>2016-10-16T12:03:15.000Z</time>
      </trkpt>
      <trkpt lat="50.23253" lon="3.62187">
        <ele>170.4</ele>
        <time>2016-10-16T12:03:21.000Z</time>
      </trkpt>
      <trkpt lat="50.23267" lon="3.6216">
        <ele>170.4</ele>
        <time>2016-10-16T12:03:24.000Z</time>
      </trkpt>
      <trkpt lat="50.23293" lon="3.62101">
        <ele>169.5</ele>
        <time>2016-10-16T12:03:30.000Z</time>
      </trkpt>
      <trkpt lat="50.23314" lon="3.62038">
        <ele>169.6</ele>
        <time>2016-10-16T12:03:36.000Z</time>
      </trkpt>
      <trkpt lat="50.23325" lon="3.62008">
        <ele>168.9</ele>
        <time>2016-10-16T12:03:39.000Z</time>
      </trkpt>
      <trkpt lat="50.23338" lon="3.61945">
        <ele>168.8</ele>
        <time>2016-10-16T12:03:45.000Z</time>
      </trkpt>
      <trkpt lat="50.23355" lon="3.61897">
        <ele>169.8</ele>
        <time>2016-10-16T12:03:51.000Z</time>
      </trkpt>
      <trkpt lat="50.23373" lon="3.61844">
        <ele>169.9</ele>
        <time>2016-10-16T12:03:57.000Z</time>
      </trkpt>
      <trkpt lat="50.23382" lon="3.61819">
        <ele>170</ele>
        <time>2016-10-16T12:04:00.000Z</time>
      </trkpt>
      <trkpt lat="50.23402" lon="3.6177">
        <ele>171.8</ele>
        <time>2016-10-16T12:04:06.000Z</time>
      </trkpt>
      <trkpt lat="50.23413" lon="3.61748">
        <ele>172.9</ele>
        <time>2016-10-16T12:04:09.000Z</time>
      </trkpt>
      <trkpt lat="50.23434" lon="3.61704">
        <ele>173.6</ele>
        <time>2016-10-16T12:04:15.000Z</time>
      </trkpt>
      <trkpt lat="50.23454" lon="3.61661">
        <ele>175.1</ele>
        <time>2016-10-16T12:04:21.000Z</time>
      </trkpt>
      <trkpt lat="50.23473" lon="3.61622">
        <ele>176.8</ele>
        <time>2016-10-16T12:04:27.000Z</time>
      </trkpt>
      <trkpt lat="50.23494" lon="3.61585">
        <ele>176.8</ele>
        <time>2016-10-16T12:04:33.000Z</time>
      </trkpt>
      <trkpt lat="50.23505" lon="3.61567">
        <ele>177</ele>
        <time>2016-10-16T12:04:36.000Z</time>
      </trkpt>
      <trkpt lat="50.23531" lon="3.61528">
        <ele>176.5</ele>
        <time>2016-10-16T12:04:42.000Z</time>
      </trkpt>
      <trkpt lat="50.23558" lon="3.61484">
        <ele>176.4</ele>
        <time>2016-10-16T12:04:48.000Z</time>
      </trkpt>
      <trkpt lat="50.23575" lon="3.61446">
        <ele>176.8</ele>
        <time>2016-10-16T12:04:52.000Z</time>
      </trkpt>
      <trkpt lat="50.23584" lon="3.61421">
        <ele>176.1</ele>
        <time>2016-10-16T12:04:55.000Z</time>
      </trkpt>
      <trkpt lat="50.23606" lon="3.61376">
        <ele>179</ele>
        <time>2016-10-16T12:05:01.000Z</time>
      </trkpt>
      <trkpt lat="50.23613" lon="3.61352">
        <ele>176.9</ele>
        <time>2016-10-16T12:05:04.000Z</time>
      </trkpt>
      <trkpt lat="50.23622" lon="3.61325">
        <ele>177.2</ele>
        <time>2016-10-16T12:05:07.000Z</time>
      </trkpt>
      <trkpt lat="50.2365" lon="3.6128">
        <ele>172.5</ele>
        <time>2016-10-16T12:05:13.000Z</time>
      </trkpt>
      <trkpt lat="50.23686" lon="3.6124">
        <ele>172.4</ele>
        <time>2016-10-16T12:05:19.000Z</time>
      </trkpt>
      <trkpt lat="50.23697" lon="3.61229">
        <ele>171.8</ele>
        <time>2016-10-16T12:05:22.000Z</time>
      </trkpt>
      <trkpt lat="50.23735" lon="3.61202">
        <ele>173.1</ele>
        <time>2016-10-16T12:05:28.000Z</time>
      </trkpt>
      <trkpt lat="50.23754" lon="3.61184">
        <ele>172.7</ele>
        <time>2016-10-16T12:05:31.000Z</time>
      </trkpt>
      <trkpt lat="50.23789" lon="3.61158">
        <ele>173.5</ele>
        <time>2016-10-16T12:05:37.000Z</time>
      </trkpt>
      <trkpt lat="50.23806" lon="3.61141">
        <ele>173.9</ele>
        <time>2016-10-16T12:05:40.000Z</time>
      </trkpt>
      <trkpt lat="50.23821" lon="3.61137">
        <ele>172.6</ele>
        <time>2016-10-16T12:05:43.000Z</time>
      </trkpt>
      <trkpt lat="50.2383" lon="3.61126">
        <ele>172.9</ele>
        <time>2016-10-16T12:05:46.000Z</time>
      </trkpt>
      <trkpt lat="50.23832" lon="3.61053">
        <ele>175.2</ele>
        <time>2016-10-16T12:05:52.000Z</time>
      </trkpt>
      <trkpt lat="50.23831" lon="3.6099">
        <ele>173.6</ele>
        <time>2016-10-16T12:05:58.000Z</time>
      </trkpt>
      <trkpt lat="50.23833" lon="3.60965">
        <ele>172</ele>
        <time>2016-10-16T12:06:01.000Z</time>
      </trkpt>
      <trkpt lat="50.23835" lon="3.60918">
        <ele>164</ele>
        <time>2016-10-16T12:06:04.000Z</time>
      </trkpt>
      <trkpt lat="50.23849" lon="3.60852">
        <ele>167.1</ele>
        <time>2016-10-16T12:06:10.000Z</time>
      </trkpt>
      <trkpt lat="50.23872" lon="3.60797">
        <ele>166.3</ele>
        <time>2016-10-16T12:06:16.000Z</time>
      </trkpt>
      <trkpt lat="50.23894" lon="3.60747">
        <ele>165.7</ele>
        <time>2016-10-16T12:06:22.000Z</time>
      </trkpt>
      <trkpt lat="50.23925" lon="3.60673">
        <ele>159.5</ele>
        <time>2016-10-16T12:06:28.000Z</time>
      </trkpt>
      <trkpt lat="50.23938" lon="3.60641">
        <ele>160.9</ele>
        <time>2016-10-16T12:06:31.000Z</time>
      </trkpt>
      <trkpt lat="50.23964" lon="3.60598">
        <ele>159.5</ele>
        <time>2016-10-16T12:06:37.000Z</time>
      </trkpt>
      <trkpt lat="50.23977" lon="3.60574">
        <ele>158</ele>
        <time>2016-10-16T12:06:40.000Z</time>
      </trkpt>
      <trkpt lat="50.23982" lon="3.60559">
        <ele>155.1</ele>
        <time>2016-10-16T12:06:43.000Z</time>
      </trkpt>
      <trkpt lat="50.23992" lon="3.60491">
        <ele>151</ele>
        <time>2016-10-16T12:06:49.000Z</time>
      </trkpt>
      <trkpt lat="50.24001" lon="3.60455">
        <ele>147</ele>
        <time>2016-10-16T12:06:52.000Z</time>
      </trkpt>
      <trkpt lat="50.24002" lon="3.60413">
        <ele>148.7</ele>
        <time>2016-10-16T12:06:55.000Z</time>
      </trkpt>
      <trkpt lat="50.24004" lon="3.60376">
        <ele>150.7</ele>
        <time>2016-10-16T12:07:01.000Z</time>
      </trkpt>
      <trkpt lat="50.24005" lon="3.60367">
        <ele>152.4</ele>
        <time>2016-10-16T12:07:04.000Z</time>
      </trkpt>
      <trkpt lat="50.23998" lon="3.60328">
        <ele>157.1</ele>
        <time>2016-10-16T12:07:10.000Z</time>
      </trkpt>
      <trkpt lat="50.23986" lon="3.60308">
        <ele>158.9</ele>
        <time>2016-10-16T12:07:13.000Z</time>
      </trkpt>
      <trkpt lat="50.23956" lon="3.60287">
        <ele>157.5</ele>
        <time>2016-10-16T12:07:16.000Z</time>
      </trkpt>
      <trkpt lat="50.2394" lon="3.60236">
        <ele>158.8</ele>
        <time>2016-10-16T12:07:22.000Z</time>
      </trkpt>
      <trkpt lat="50.23921" lon="3.60188">
        <ele>159.7</ele>
        <time>2016-10-16T12:07:28.000Z</time>
      </trkpt>
      <trkpt lat="50.2391" lon="3.60155">
        <ele>159.4</ele>
        <time>2016-10-16T12:07:31.000Z</time>
      </trkpt>
      <trkpt lat="50.23886" lon="3.601">
        <ele>164.1</ele>
        <time>2016-10-16T12:07:37.000Z</time>
      </trkpt>
      <trkpt lat="50.23864" lon="3.60042">
        <ele>163.6</ele>
        <time>2016-10-16T12:07:43.000Z</time>
      </trkpt>
      <trkpt lat="50.23827" lon="3.59994">
        <ele>157.8</ele>
        <time>2016-10-16T12:07:49.000Z</time>
      </trkpt>
      <trkpt lat="50.23814" lon="3.59947">
        <ele>152.7</ele>
        <time>2016-10-16T12:07:55.000Z</time>
      </trkpt>
      <trkpt lat="50.23789" lon="3.59915">
        <ele>150.8</ele>
        <time>2016-10-16T12:08:01.000Z</time>
      </trkpt>
      <trkpt lat="50.2378" lon="3.59897">
        <ele>150.6</ele>
        <time>2016-10-16T12:08:04.000Z</time>
      </trkpt>
      <trkpt lat="50.2379" lon="3.59882">
        <ele>152.1</ele>
        <time>2016-10-16T12:08:07.000Z</time>
      </trkpt>
      <trkpt lat="50.23833" lon="3.59837">
        <ele>145.8</ele>
        <time>2016-10-16T12:08:13.000Z</time>
      </trkpt>
      <trkpt lat="50.2385" lon="3.59817">
        <ele>143.5</ele>
        <time>2016-10-16T12:08:16.000Z</time>
      </trkpt>
      <trkpt lat="50.23863" lon="3.59805">
        <ele>142.8</ele>
        <time>2016-10-16T12:08:19.000Z</time>
      </trkpt>
      <trkpt lat="50.23905" lon="3.59768">
        <ele>144.7</ele>
        <time>2016-10-16T12:08:25.000Z</time>
      </trkpt>
      <trkpt lat="50.23943" lon="3.59748">
        <ele>141.8</ele>
        <time>2016-10-16T12:08:31.000Z</time>
      </trkpt>
      <trkpt lat="50.23982" lon="3.59717">
        <ele>145.4</ele>
        <time>2016-10-16T12:08:37.000Z</time>
      </trkpt>
      <trkpt lat="50.24023" lon="3.59692">
        <ele>147.4</ele>
        <time>2016-10-16T12:08:43.000Z</time>
      </trkpt>
      <trkpt lat="50.2405" lon="3.5967">
        <ele>140.8</ele>
        <time>2016-10-16T12:08:46.000Z</time>
      </trkpt>
      <trkpt lat="50.24096" lon="3.59631">
        <ele>139.7</ele>
        <time>2016-10-16T12:08:52.000Z</time>
      </trkpt>
      <trkpt lat="50.24115" lon="3.59608">
        <ele>140.3</ele>
        <time>2016-10-16T12:08:55.000Z</time>
      </trkpt>
      <trkpt lat="50.24171" lon="3.59583">
        <ele>142.2</ele>
        <time>2016-10-16T12:09:01.000Z</time>
      </trkpt>
      <trkpt lat="50.24229" lon="3.59551">
        <ele>139.3</ele>
        <time>2016-10-16T12:09:07.000Z</time>
      </trkpt>
      <trkpt lat="50.24281" lon="3.59544">
        <ele>139.2</ele>
        <time>2016-10-16T12:09:13.000Z</time>
      </trkpt>
      <trkpt lat="50.24305" lon="3.59545">
        <ele>135.5</ele>
        <time>2016-10-16T12:09:15.999Z</time>
      </trkpt>
      <trkpt lat="50.24324" lon="3.59536">
        <ele>139.6</ele>
        <time>2016-10-16T12:09:19.000Z</time>
      </trkpt>
      <trkpt lat="50.24352" lon="3.59504">
        <ele>142.1</ele>
        <time>2016-10-16T12:09:25.000Z</time>
      </trkpt>
      <trkpt lat="50.24376" lon="3.5948">
        <ele>148.2</ele>
        <time>2016-10-16T12:09:31.000Z</time>
      </trkpt>
      <trkpt lat="50.24406" lon="3.59451">
        <ele>143.8</ele>
        <time>2016-10-16T12:09:37.000Z</time>
      </trkpt>
      <trkpt lat="50.24428" lon="3.59431">
        <ele>147.7</ele>
        <time>2016-10-16T12:09:43.000Z</time>
      </trkpt>
      <trkpt lat="50.24466" lon="3.59411">
        <ele>148.9</ele>
        <time>2016-10-16T12:09:49.000Z</time>
      </trkpt>
      <trkpt lat="50.24509" lon="3.59373">
        <ele>149.8</ele>
        <time>2016-10-16T12:09:55.000Z</time>
      </trkpt>
      <trkpt lat="50.24535" lon="3.59357">
        <ele>153.1</ele>
        <time>2016-10-16T12:10:01.000Z</time>
      </trkpt>
      <trkpt lat="50.24567" lon="3.59317">
        <ele>155.1</ele>
        <time>2016-10-16T12:10:07.000Z</time>
      </trkpt>
      <trkpt lat="50.24583" lon="3.59271">
        <ele>155.8</ele>
        <time>2016-10-16T12:10:13.000Z</time>
      </trkpt>
      <trkpt lat="50.24595" lon="3.59194">
        <ele>151.9</ele>
        <time>2016-10-16T12:10:19.000Z</time>
      </trkpt>
      <trkpt lat="50.24608" lon="3.59144">
        <ele>156.6</ele>
        <time>2016-10-16T12:10:25.000Z</time>
      </trkpt>
      <trkpt lat="50.2463" lon="3.59075">
        <ele>162.6</ele>
        <time>2016-10-16T12:10:34.000Z</time>
      </trkpt>
      <trkpt lat="50.24627" lon="3.59055">
        <ele>164.1</ele>
        <time>2016-10-16T12:10:37.000Z</time>
      </trkpt>
      <trkpt lat="50.24651" lon="3.58999">
        <ele>162.3</ele>
        <time>2016-10-16T12:10:43.000Z</time>
      </trkpt>
      <trkpt lat="50.24657" lon="3.58976">
        <ele>159.6</ele>
        <time>2016-10-16T12:10:46.000Z</time>
      </trkpt>
      <trkpt lat="50.24639" lon="3.58967">
        <ele>158.7</ele>
        <time>2016-10-16T12:10:49.000Z</time>
      </trkpt>
      <trkpt lat="50.24606" lon="3.58953">
        <ele>158.4</ele>
        <time>2016-10-16T12:10:55.000Z</time>
      </trkpt>
      <trkpt lat="50.24565" lon="3.5894">
        <ele>151</ele>
        <time>2016-10-16T12:11:01.000Z</time>
      </trkpt>
      <trkpt lat="50.24536" lon="3.58929">
        <ele>148.2</ele>
        <time>2016-10-16T12:11:04.000Z</time>
      </trkpt>
      <trkpt lat="50.24516" lon="3.58917">
        <ele>146.1</ele>
        <time>2016-10-16T12:11:07.000Z</time>
      </trkpt>
      <trkpt lat="50.24469" lon="3.58898">
        <ele>144.5</ele>
        <time>2016-10-16T12:11:13.000Z</time>
      </trkpt>
      <trkpt lat="50.24453" lon="3.58844">
        <ele>143.7</ele>
        <time>2016-10-16T12:11:19.000Z</time>
      </trkpt>
      <trkpt lat="50.24459" lon="3.58829">
        <ele>144.4</ele>
        <time>2016-10-16T12:11:22.000Z</time>
      </trkpt>
      <trkpt lat="50.24463" lon="3.58809">
        <ele>143.6</ele>
        <time>2016-10-16T12:11:25.000Z</time>
      </trkpt>
      <trkpt lat="50.24472" lon="3.58775">
        <ele>143.5</ele>
        <time>2016-10-16T12:11:28.000Z</time>
      </trkpt>
      <trkpt lat="50.24488" lon="3.58722">
        <ele>143.7</ele>
        <time>2016-10-16T12:11:34.000Z</time>
      </trkpt>
      <trkpt lat="50.24495" lon="3.58652">
        <ele>141.7</ele>
        <time>2016-10-16T12:11:40.000Z</time>
      </trkpt>
      <trkpt lat="50.24501" lon="3.58628">
        <ele>142.9</ele>
        <time>2016-10-16T12:11:43.000Z</time>
      </trkpt>
      <trkpt lat="50.24503" lon="3.58597">
        <ele>136.2</ele>
        <time>2016-10-16T12:11:46.000Z</time>
      </trkpt>
      <trkpt lat="50.24512" lon="3.58555">
        <ele>136.4</ele>
        <time>2016-10-16T12:11:52.000Z</time>
      </trkpt>
      <trkpt lat="50.24511" lon="3.58542">
        <ele>137.2</ele>
        <time>2016-10-16T12:11:55.000Z</time>
      </trkpt>
      <trkpt lat="50.24517" lon="3.58519">
        <ele>137.1</ele>
        <time>2016-10-16T12:11:58.000Z</time>
      </trkpt>
      <trkpt lat="50.24533" lon="3.58427">
        <ele>141.6</ele>
        <time>2016-10-16T12:12:04.000Z</time>
      </trkpt>
      <trkpt lat="50.24546" lon="3.58383">
        <ele>147.6</ele>
        <time>2016-10-16T12:12:10.000Z</time>
      </trkpt>
      <trkpt lat="50.24553" lon="3.5835">
        <ele>147.1</ele>
        <time>2016-10-16T12:12:13.000Z</time>
      </trkpt>
      <trkpt lat="50.24559" lon="3.58329">
        <ele>144.4</ele>
        <time>2016-10-16T12:12:16.000Z</time>
      </trkpt>
      <trkpt lat="50.24584" lon="3.58256">
        <ele>143.2</ele>
        <time>2016-10-16T12:12:22.000Z</time>
      </trkpt>
      <trkpt lat="50.24596" lon="3.58228">
        <ele>146.7</ele>
        <time>2016-10-16T12:12:25.000Z</time>
      </trkpt>
      <trkpt lat="50.24606" lon="3.58188">
        <ele>144.6</ele>
        <time>2016-10-16T12:12:31.000Z</time>
      </trkpt>
      <trkpt lat="50.24612" lon="3.58159">
        <ele>143.1</ele>
        <time>2016-10-16T12:12:34.000Z</time>
      </trkpt>
      <trkpt lat="50.24633" lon="3.58103">
        <ele>138.4</ele>
        <time>2016-10-16T12:12:40.000Z</time>
      </trkpt>
      <trkpt lat="50.24649" lon="3.58052">
        <ele>140.9</ele>
        <time>2016-10-16T12:12:46.000Z</time>
      </trkpt>
      <trkpt lat="50.2466" lon="3.58002">
        <ele>146.5</ele>
        <time>2016-10-16T12:12:52.000Z</time>
      </trkpt>
      <trkpt lat="50.24661" lon="3.57976">
        <ele>144.9</ele>
        <time>2016-10-16T12:12:55.000Z</time>
      </trkpt>
      <trkpt lat="50.24661" lon="3.57947">
        <ele>148</ele>
        <time>2016-10-16T12:12:58.000Z</time>
      </trkpt>
      <trkpt lat="50.24672" lon="3.57896">
        <ele>145.1</ele>
        <time>2016-10-16T12:13:04.000Z</time>
      </trkpt>
      <trkpt lat="50.24675" lon="3.57862">
        <ele>142.6</ele>
        <time>2016-10-16T12:13:07.000Z</time>
      </trkpt>
      <trkpt lat="50.24679" lon="3.57808">
        <ele>142.4</ele>
        <time>2016-10-16T12:13:13.000Z</time>
      </trkpt>
      <trkpt lat="50.24682" lon="3.57767">
        <ele>144</ele>
        <time>2016-10-16T12:13:16.000Z</time>
      </trkpt>
      <trkpt lat="50.24686" lon="3.57738">
        <ele>144.4</ele>
        <time>2016-10-16T12:13:19.000Z</time>
      </trkpt>
      <trkpt lat="50.24685" lon="3.57678">
        <ele>144.5</ele>
        <time>2016-10-16T12:13:25.000Z</time>
      </trkpt>
      <trkpt lat="50.2469" lon="3.57626">
        <ele>144</ele>
        <time>2016-10-16T12:13:31.000Z</time>
      </trkpt>
      <trkpt lat="50.24693" lon="3.5757">
        <ele>146.2</ele>
        <time>2016-10-16T12:13:37.000Z</time>
      </trkpt>
      <trkpt lat="50.24682" lon="3.57512">
        <ele>147.4</ele>
        <time>2016-10-16T12:13:43.000Z</time>
      </trkpt>
      <trkpt lat="50.24685" lon="3.57487">
        <ele>147.4</ele>
        <time>2016-10-16T12:13:46.000Z</time>
      </trkpt>
      <trkpt lat="50.24687" lon="3.57431">
        <ele>149.7</ele>
        <time>2016-10-16T12:13:52.000Z</time>
      </trkpt>
      <trkpt lat="50.24686" lon="3.57362">
        <ele>145.8</ele>
        <time>2016-10-16T12:13:58.000Z</time>
      </trkpt>
      <trkpt lat="50.24687" lon="3.57311">
        <ele>145.4</ele>
        <time>2016-10-16T12:14:04.000Z</time>
      </trkpt>
      <trkpt lat="50.2469" lon="3.57246">
        <ele>147.9</ele>
        <time>2016-10-16T12:14:10.000Z</time>
      </trkpt>
      <trkpt lat="50.24693" lon="3.57187">
        <ele>152.9</ele>
        <time>2016-10-16T12:14:16.000Z</time>
      </trkpt>
      <trkpt lat="50.24694" lon="3.5716">
        <ele>151.6</ele>
        <time>2016-10-16T12:14:19.000Z</time>
      </trkpt>
      <trkpt lat="50.24695" lon="3.57134">
        <ele>148.3</ele>
        <time>2016-10-16T12:14:25.000Z</time>
      </trkpt>
      <trkpt lat="50.24694" lon="3.57109">
        <ele>148.8</ele>
        <time>2016-10-16T12:14:28.000Z</time>
      </trkpt>
      <trkpt lat="50.24687" lon="3.57054">
        <ele>153.6</ele>
        <time>2016-10-16T12:14:34.000Z</time>
      </trkpt>
      <trkpt lat="50.24688" lon="3.57008">
        <ele>153.6</ele>
        <time>2016-10-16T12:14:40.000Z</time>
      </trkpt>
      <trkpt lat="50.24695" lon="3.56987">
        <ele>150.8</ele>
        <time>2016-10-16T12:14:43.000Z</time>
      </trkpt>
      <trkpt lat="50.24693" lon="3.56929">
        <ele>147</ele>
        <time>2016-10-16T12:14:49.000Z</time>
      </trkpt>
      <trkpt lat="50.24691" lon="3.56872">
        <ele>147.5</ele>
        <time>2016-10-16T12:14:55.000Z</time>
      </trkpt>
      <trkpt lat="50.24691" lon="3.56835">
        <ele>141.3</ele>
        <time>2016-10-16T12:14:58.000Z</time>
      </trkpt>
      <trkpt lat="50.2469" lon="3.56807">
        <ele>135.1</ele>
        <time>2016-10-16T12:15:01.000Z</time>
      </trkpt>
      <trkpt lat="50.24692" lon="3.56774">
        <ele>133.7</ele>
        <time>2016-10-16T12:15:04.000Z</time>
      </trkpt>
      <trkpt lat="50.24701" lon="3.567">
        <ele>135.8</ele>
        <time>2016-10-16T12:15:10.000Z</time>
      </trkpt>
      <trkpt lat="50.24704" lon="3.56647">
        <ele>135.4</ele>
        <time>2016-10-16T12:15:16.000Z</time>
      </trkpt>
      <trkpt lat="50.24704" lon="3.56619">
        <ele>135.7</ele>
        <time>2016-10-16T12:15:19.000Z</time>
      </trkpt>
      <trkpt lat="50.24701" lon="3.56574">
        <ele>137.4</ele>
        <time>2016-10-16T12:15:25.000Z</time>
      </trkpt>
      <trkpt lat="50.24703" lon="3.56542">
        <ele>136.8</ele>
        <time>2016-10-16T12:15:28.000Z</time>
      </trkpt>
      <trkpt lat="50.24698" lon="3.56493">
        <ele>140.7</ele>
        <time>2016-10-16T12:15:34.000Z</time>
      </trkpt>
      <trkpt lat="50.24706" lon="3.56479">
        <ele>141.6</ele>
        <time>2016-10-16T12:15:37.000Z</time>
      </trkpt>
      <trkpt lat="50.24698" lon="3.56431">
        <ele>141.5</ele>
        <time>2016-10-16T12:15:43.000Z</time>
      </trkpt>
      <trkpt lat="50.24702" lon="3.56397">
        <ele>139.6</ele>
        <time>2016-10-16T12:15:46.000Z</time>
      </trkpt>
      <trkpt lat="50.24662" lon="3.56371">
        <ele>130.1</ele>
        <time>2016-10-16T12:15:52.000Z</time>
      </trkpt>
      <trkpt lat="50.24634" lon="3.5635">
        <ele>121.5</ele>
        <time>2016-10-16T12:15:58.000Z</time>
      </trkpt>
      <trkpt lat="50.24614" lon="3.56335">
        <ele>121.3</ele>
        <time>2016-10-16T12:16:01.000Z</time>
      </trkpt>
      <trkpt lat="50.24598" lon="3.56325">
        <ele>122.9</ele>
        <time>2016-10-16T12:16:04.000Z</time>
      </trkpt>
      <trkpt lat="50.24593" lon="3.56311">
        <ele>125.8</ele>
        <time>2016-10-16T12:16:07.000Z</time>
      </trkpt>
      <trkpt lat="50.24594" lon="3.56301">
        <ele>125.8</ele>
        <time>2016-10-16T12:16:10.000Z</time>
      </trkpt>
      <trkpt lat="50.24562" lon="3.56273">
        <ele>131.7</ele>
        <time>2016-10-16T12:16:16.000Z</time>
      </trkpt>
      <trkpt lat="50.24537" lon="3.5626">
        <ele>130.2</ele>
        <time>2016-10-16T12:16:19.000Z</time>
      </trkpt>
      <trkpt lat="50.24492" lon="3.56222">
        <ele>131.3</ele>
        <time>2016-10-16T12:16:25.000Z</time>
      </trkpt>
      <trkpt lat="50.24443" lon="3.5618">
        <ele>130.6</ele>
        <time>2016-10-16T12:16:31.000Z</time>
      </trkpt>
      <trkpt lat="50.24414" lon="3.56157">
        <ele>131.9</ele>
        <time>2016-10-16T12:16:34.000Z</time>
      </trkpt>
      <trkpt lat="50.24398" lon="3.5612">
        <ele>132</ele>
        <time>2016-10-16T12:16:37.000Z</time>
      </trkpt>
      <trkpt lat="50.24379" lon="3.56071">
        <ele>131</ele>
        <time>2016-10-16T12:16:40.000Z</time>
      </trkpt>
      <trkpt lat="50.24372" lon="3.56011">
        <ele>126.9</ele>
        <time>2016-10-16T12:16:46.000Z</time>
      </trkpt>
      <trkpt lat="50.24339" lon="3.55979">
        <ele>130.1</ele>
        <time>2016-10-16T12:16:52.000Z</time>
      </trkpt>
      <trkpt lat="50.24336" lon="3.55963">
        <ele>127</ele>
        <time>2016-10-16T12:16:55.000Z</time>
      </trkpt>
      <trkpt lat="50.24294" lon="3.55948">
        <ele>130.4</ele>
        <time>2016-10-16T12:17:01.000Z</time>
      </trkpt>
      <trkpt lat="50.24276" lon="3.55943">
        <ele>128</ele>
        <time>2016-10-16T12:17:04.000Z</time>
      </trkpt>
      <trkpt lat="50.24229" lon="3.55928">
        <ele>124.5</ele>
        <time>2016-10-16T12:17:10.000Z</time>
      </trkpt>
      <trkpt lat="50.24204" lon="3.55911">
        <ele>119.4</ele>
        <time>2016-10-16T12:17:16.000Z</time>
      </trkpt>
      <trkpt lat="50.24181" lon="3.55902">
        <ele>124</ele>
        <time>2016-10-16T12:17:22.000Z</time>
      </trkpt>
      <trkpt lat="50.2417" lon="3.55895">
        <ele>126.3</ele>
        <time>2016-10-16T12:17:25.000Z</time>
      </trkpt>
      <trkpt lat="50.24162" lon="3.55875">
        <ele>128.4</ele>
        <time>2016-10-16T12:17:28.000Z</time>
      </trkpt>
      <trkpt lat="50.24128" lon="3.55868">
        <ele>130.9</ele>
        <time>2016-10-16T12:17:37.000Z</time>
      </trkpt>
      <trkpt lat="50.24113" lon="3.55863">
        <ele>131.1</ele>
        <time>2016-10-16T12:17:40.000Z</time>
      </trkpt>
      <trkpt lat="50.24096" lon="3.5585">
        <ele>129</ele>
        <time>2016-10-16T12:17:45.999Z</time>
      </trkpt>
      <trkpt lat="50.24087" lon="3.55859">
        <ele>128</ele>
        <time>2016-10-16T12:17:49.000Z</time>
      </trkpt>
      <trkpt lat="50.24055" lon="3.55859">
        <ele>127.8</ele>
        <time>2016-10-16T12:17:55.000Z</time>
      </trkpt>
      <trkpt lat="50.24032" lon="3.55833">
        <ele>126</ele>
        <time>2016-10-16T12:18:00.999Z</time>
      </trkpt>
      <trkpt lat="50.2402" lon="3.55829">
        <ele>125.9</ele>
        <time>2016-10-16T12:18:04.000Z</time>
      </trkpt>
      <trkpt lat="50.24007" lon="3.55824">
        <ele>124.8</ele>
        <time>2016-10-16T12:18:07.000Z</time>
      </trkpt>
      <trkpt lat="50.24" lon="3.55822">
        <ele>131</ele>
        <time>2016-10-16T12:18:13.000Z</time>
      </trkpt>
      <trkpt lat="50.23989" lon="3.55816">
        <ele>130.9</ele>
        <time>2016-10-16T12:18:16.000Z</time>
      </trkpt>
      <trkpt lat="50.2397" lon="3.55816">
        <ele>125.9</ele>
        <time>2016-10-16T12:18:22.000Z</time>
      </trkpt>
      <trkpt lat="50.23941" lon="3.55807">
        <ele>124.8</ele>
        <time>2016-10-16T12:18:28.000Z</time>
      </trkpt>
      <trkpt lat="50.23927" lon="3.55797">
        <ele>125.9</ele>
        <time>2016-10-16T12:18:34.000Z</time>
      </trkpt>
      <trkpt lat="50.23916" lon="3.55794">
        <ele>124.3</ele>
        <time>2016-10-16T12:18:37.000Z</time>
      </trkpt>
      <trkpt lat="50.23898" lon="3.55789">
        <ele>122.8</ele>
        <time>2016-10-16T12:18:43.000Z</time>
      </trkpt>
      <trkpt lat="50.23881" lon="3.55787">
        <ele>122.7</ele>
        <time>2016-10-16T12:18:49.000Z</time>
      </trkpt>
      <trkpt lat="50.23859" lon="3.55782">
        <ele>121.3</ele>
        <time>2016-10-16T12:18:55.000Z</time>
      </trkpt>
      <trkpt lat="50.23846" lon="3.5577">
        <ele>120.8</ele>
        <time>2016-10-16T12:19:01.000Z</time>
      </trkpt>
      <trkpt lat="50.23833" lon="3.55765">
        <ele>122</ele>
        <time>2016-10-16T12:19:10.000Z</time>
      </trkpt>
      <trkpt lat="50.23828" lon="3.55771">
        <ele>122.4</ele>
        <time>2016-10-16T12:19:13.000Z</time>
      </trkpt>
      <trkpt lat="50.23809" lon="3.55771">
        <ele>125.2</ele>
        <time>2016-10-16T12:19:19.000Z</time>
      </trkpt>
      <trkpt lat="50.23795" lon="3.55766">
        <ele>126.4</ele>
        <time>2016-10-16T12:19:25.000Z</time>
      </trkpt>
      <trkpt lat="50.23767" lon="3.55756">
        <ele>131.8</ele>
        <time>2016-10-16T12:19:28.000Z</time>
      </trkpt>
      <trkpt lat="50.23747" lon="3.55737">
        <ele>134.5</ele>
        <time>2016-10-16T12:19:34.000Z</time>
      </trkpt>
      <trkpt lat="50.23733" lon="3.5573">
        <ele>133.8</ele>
        <time>2016-10-16T12:19:40.000Z</time>
      </trkpt>
      <trkpt lat="50.23713" lon="3.55717">
        <ele>137.6</ele>
        <time>2016-10-16T12:19:47.000Z</time>
      </trkpt>
      <trkpt lat="50.23693" lon="3.55702">
        <ele>137.4</ele>
        <time>2016-10-16T12:19:52.000Z</time>
      </trkpt>
      <trkpt lat="50.23668" lon="3.55693">
        <ele>137.2</ele>
        <time>2016-10-16T12:19:57.999Z</time>
      </trkpt>
      <trkpt lat="50.2365" lon="3.55695">
        <ele>140.3</ele>
        <time>2016-10-16T12:20:04.000Z</time>
      </trkpt>
      <trkpt lat="50.23636" lon="3.55694">
        <ele>138.5</ele>
        <time>2016-10-16T12:20:07.000Z</time>
      </trkpt>
      <trkpt lat="50.23607" lon="3.55689">
        <ele>135</ele>
        <time>2016-10-16T12:20:13.000Z</time>
      </trkpt>
      <trkpt lat="50.23581" lon="3.55687">
        <ele>134.8</ele>
        <time>2016-10-16T12:20:19.000Z</time>
      </trkpt>
      <trkpt lat="50.23558" lon="3.55685">
        <ele>135.7</ele>
        <time>2016-10-16T12:20:25.000Z</time>
      </trkpt>
      <trkpt lat="50.23543" lon="3.55688">
        <ele>134.7</ele>
        <time>2016-10-16T12:20:31.000Z</time>
      </trkpt>
      <trkpt lat="50.23527" lon="3.55693">
        <ele>138.2</ele>
        <time>2016-10-16T12:20:37.000Z</time>
      </trkpt>
      <trkpt lat="50.23516" lon="3.55695">
        <ele>140.5</ele>
        <time>2016-10-16T12:20:40.000Z</time>
      </trkpt>
      <trkpt lat="50.23499" lon="3.5567">
        <ele>129.4</ele>
        <time>2016-10-16T12:20:46.000Z</time>
      </trkpt>
      <trkpt lat="50.2349" lon="3.55637">
        <ele>131.5</ele>
        <time>2016-10-16T12:20:52.000Z</time>
      </trkpt>
      <trkpt lat="50.23489" lon="3.55599">
        <ele>137.5</ele>
        <time>2016-10-16T12:20:58.000Z</time>
      </trkpt>
      <trkpt lat="50.23479" lon="3.55561">
        <ele>139.3</ele>
        <time>2016-10-16T12:21:04.000Z</time>
      </trkpt>
      <trkpt lat="50.23477" lon="3.55531">
        <ele>140.6</ele>
        <time>2016-10-16T12:21:07.000Z</time>
      </trkpt>
      <trkpt lat="50.23472" lon="3.55508">
        <ele>141.2</ele>
        <time>2016-10-16T12:21:10.000Z</time>
      </trkpt>
      <trkpt lat="50.23463" lon="3.55465">
        <ele>141.1</ele>
        <time>2016-10-16T12:21:16.000Z</time>
      </trkpt>
      <trkpt lat="50.23454" lon="3.55411">
        <ele>146.7</ele>
        <time>2016-10-16T12:21:22.000Z</time>
      </trkpt>
      <trkpt lat="50.2345" lon="3.55366">
        <ele>140.7</ele>
        <time>2016-10-16T12:21:28.000Z</time>
      </trkpt>
      <trkpt lat="50.23448" lon="3.55342">
        <ele>140.6</ele>
        <time>2016-10-16T12:21:31.000Z</time>
      </trkpt>
      <trkpt lat="50.23459" lon="3.55287">
        <ele>148</ele>
        <time>2016-10-16T12:21:37.000Z</time>
      </trkpt>
      <trkpt lat="50.23449" lon="3.55264">
        <ele>145.4</ele>
        <time>2016-10-16T12:21:40.000Z</time>
      </trkpt>
      <trkpt lat="50.23444" lon="3.55216">
        <ele>146.8</ele>
        <time>2016-10-16T12:21:46.000Z</time>
      </trkpt>
      <trkpt lat="50.23422" lon="3.5518">
        <ele>144.3</ele>
        <time>2016-10-16T12:21:52.000Z</time>
      </trkpt>
      <trkpt lat="50.234" lon="3.55155">
        <ele>146.7</ele>
        <time>2016-10-16T12:21:55.000Z</time>
      </trkpt>
      <trkpt lat="50.2338" lon="3.55094">
        <ele>141.9</ele>
        <time>2016-10-16T12:22:01.000Z</time>
      </trkpt>
      <trkpt lat="50.23359" lon="3.55061">
        <ele>139</ele>
        <time>2016-10-16T12:22:07.000Z</time>
      </trkpt>
      <trkpt lat="50.23344" lon="3.55024">
        <ele>136.9</ele>
        <time>2016-10-16T12:22:10.000Z</time>
      </trkpt>
      <trkpt lat="50.23331" lon="3.5499">
        <ele>134.5</ele>
        <time>2016-10-16T12:22:16.000Z</time>
      </trkpt>
      <trkpt lat="50.23316" lon="3.54954">
        <ele>136.4</ele>
        <time>2016-10-16T12:22:19.000Z</time>
      </trkpt>
      <trkpt lat="50.23301" lon="3.54908">
        <ele>137.1</ele>
        <time>2016-10-16T12:22:25.000Z</time>
      </trkpt>
      <trkpt lat="50.23283" lon="3.5488">
        <ele>137</ele>
        <time>2016-10-16T12:22:28.000Z</time>
      </trkpt>
      <trkpt lat="50.23292" lon="3.54839">
        <ele>134.2</ele>
        <time>2016-10-16T12:22:34.000Z</time>
      </trkpt>
      <trkpt lat="50.2328" lon="3.54794">
        <ele>139.4</ele>
        <time>2016-10-16T12:22:40.000Z</time>
      </trkpt>
      <trkpt lat="50.23277" lon="3.54758">
        <ele>142.4</ele>
        <time>2016-10-16T12:22:43.000Z</time>
      </trkpt>
      <trkpt lat="50.23253" lon="3.54709">
        <ele>140.7</ele>
        <time>2016-10-16T12:22:49.000Z</time>
      </trkpt>
      <trkpt lat="50.23228" lon="3.54657">
        <ele>139</ele>
        <time>2016-10-16T12:22:55.000Z</time>
      </trkpt>
      <trkpt lat="50.23236" lon="3.54596">
        <ele>139</ele>
        <time>2016-10-16T12:23:01.000Z</time>
      </trkpt>
      <trkpt lat="50.23235" lon="3.54518">
        <ele>135.2</ele>
        <time>2016-10-16T12:23:07.000Z</time>
      </trkpt>
      <trkpt lat="50.2323" lon="3.54487">
        <ele>134.8</ele>
        <time>2016-10-16T12:23:13.000Z</time>
      </trkpt>
      <trkpt lat="50.23234" lon="3.54468">
        <ele>136.4</ele>
        <time>2016-10-16T12:23:16.000Z</time>
      </trkpt>
      <trkpt lat="50.23224" lon="3.54442">
        <ele>124.5</ele>
        <time>2016-10-16T12:23:19.000Z</time>
      </trkpt>
      <trkpt lat="50.23208" lon="3.54426">
        <ele>120.2</ele>
        <time>2016-10-16T12:23:22.000Z</time>
      </trkpt>
      <trkpt lat="50.23198" lon="3.54398">
        <ele>122.2</ele>
        <time>2016-10-16T12:23:28.000Z</time>
      </trkpt>
      <trkpt lat="50.23204" lon="3.54381">
        <ele>122.6</ele>
        <time>2016-10-16T12:23:31.000Z</time>
      </trkpt>
      <trkpt lat="50.23191" lon="3.54352">
        <ele>125</ele>
        <time>2016-10-16T12:23:37.000Z</time>
      </trkpt>
      <trkpt lat="50.23187" lon="3.54335">
        <ele>126.7</ele>
        <time>2016-10-16T12:23:40.000Z</time>
      </trkpt>
      <trkpt lat="50.23169" lon="3.54304">
        <ele>127.4</ele>
        <time>2016-10-16T12:23:46.000Z</time>
      </trkpt>
      <trkpt lat="50.2315" lon="3.54279">
        <ele>125</ele>
        <time>2016-10-16T12:23:52.000Z</time>
      </trkpt>
      <trkpt lat="50.2314" lon="3.54265">
        <ele>123.8</ele>
        <time>2016-10-16T12:23:58.000Z</time>
      </trkpt>
      <trkpt lat="50.23129" lon="3.54252">
        <ele>124.4</ele>
        <time>2016-10-16T12:24:04.000Z</time>
      </trkpt>
      <trkpt lat="50.23123" lon="3.54243">
        <ele>125.3</ele>
        <time>2016-10-16T12:24:09.999Z</time>
      </trkpt>
      <trkpt lat="50.23126" lon="3.54222">
        <ele>132</ele>
        <time>2016-10-16T12:24:13.000Z</time>
      </trkpt>
      <trkpt lat="50.23137" lon="3.54207">
        <ele>135.4</ele>
        <time>2016-10-16T12:24:16.000Z</time>
      </trkpt>
      <trkpt lat="50.23135" lon="3.54172">
        <ele>136.9</ele>
        <time>2016-10-16T12:24:22.000Z</time>
      </trkpt>
      <trkpt lat="50.2313" lon="3.54142">
        <ele>133.9</ele>
        <time>2016-10-16T12:24:27.999Z</time>
      </trkpt>
      <trkpt lat="50.23122" lon="3.54128">
        <ele>135.5</ele>
        <time>2016-10-16T12:24:31.000Z</time>
      </trkpt>
      <trkpt lat="50.23127" lon="3.54121">
        <ele>136.8</ele>
        <time>2016-10-16T12:24:35.000Z</time>
      </trkpt>
      <trkpt lat="50.2311" lon="3.54092">
        <ele>139.6</ele>
        <time>2016-10-16T12:24:40.000Z</time>
      </trkpt>
      <trkpt lat="50.231" lon="3.54057">
        <ele>140</ele>
        <time>2016-10-16T12:24:46.000Z</time>
      </trkpt>
      <trkpt lat="50.23096" lon="3.54029">
        <ele>140.2</ele>
        <time>2016-10-16T12:24:52.000Z</time>
      </trkpt>
      <trkpt lat="50.23093" lon="3.54013">
        <ele>139.7</ele>
        <time>2016-10-16T12:24:55.000Z</time>
      </trkpt>
      <trkpt lat="50.23093" lon="3.53993">
        <ele>136.3</ele>
        <time>2016-10-16T12:24:58.000Z</time>
      </trkpt>
      <trkpt lat="50.23103" lon="3.53962">
        <ele>138.1</ele>
        <time>2016-10-16T12:25:04.000Z</time>
      </trkpt>
      <trkpt lat="50.23093" lon="3.53946">
        <ele>141.7</ele>
        <time>2016-10-16T12:25:07.000Z</time>
      </trkpt>
      <trkpt lat="50.23082" lon="3.53919">
        <ele>143</ele>
        <time>2016-10-16T12:25:13.000Z</time>
      </trkpt>
      <trkpt lat="50.23063" lon="3.53894">
        <ele>141.3</ele>
        <time>2016-10-16T12:25:18.999Z</time>
      </trkpt>
      <trkpt lat="50.23063" lon="3.53883">
        <ele>147.6</ele>
        <time>2016-10-16T12:25:22.000Z</time>
      </trkpt>
      <trkpt lat="50.23075" lon="3.53855">
        <ele>143.4</ele>
        <time>2016-10-16T12:25:28.000Z</time>
      </trkpt>
      <trkpt lat="50.23075" lon="3.53844">
        <ele>147.8</ele>
        <time>2016-10-16T12:25:34.000Z</time>
      </trkpt>
      <trkpt lat="50.23074" lon="3.53836">
        <ele>149</ele>
        <time>2016-10-16T12:25:42.000Z</time>
      </trkpt>
      <trkpt lat="50.23068" lon="3.53754">
        <ele>147.6</ele>
        <time>2016-10-16T12:25:48.000Z</time>
      </trkpt>
      <trkpt lat="50.23068" lon="3.53712">
        <ele>148</ele>
        <time>2016-10-16T12:25:55.000Z</time>
      </trkpt>
      <trkpt lat="50.23058" lon="3.53678">
        <ele>147.6</ele>
        <time>2016-10-16T12:25:59.000Z</time>
      </trkpt>
      <trkpt lat="50.23059" lon="3.53655">
        <ele>149.6</ele>
        <time>2016-10-16T12:26:02.000Z</time>
      </trkpt>
      <trkpt lat="50.23058" lon="3.5364">
        <ele>145.9</ele>
        <time>2016-10-16T12:26:05.000Z</time>
      </trkpt>
      <trkpt lat="50.23064" lon="3.53619">
        <ele>152.6</ele>
        <time>2016-10-16T12:26:11.000Z</time>
      </trkpt>
      <trkpt lat="50.23066" lon="3.53611">
        <ele>159.9</ele>
        <time>2016-10-16T12:26:14.000Z</time>
      </trkpt>
      <trkpt lat="50.2306" lon="3.53581">
        <ele>161.2</ele>
        <time>2016-10-16T12:26:20.000Z</time>
      </trkpt>
      <trkpt lat="50.23048" lon="3.53542">
        <ele>157.3</ele>
        <time>2016-10-16T12:26:27.000Z</time>
      </trkpt>
      <trkpt lat="50.23045" lon="3.53501">
        <ele>155.8</ele>
        <time>2016-10-16T12:26:33.000Z</time>
      </trkpt>
      <trkpt lat="50.23044" lon="3.53473">
        <ele>155.7</ele>
        <time>2016-10-16T12:26:37.000Z</time>
      </trkpt>
      <trkpt lat="50.2304" lon="3.5345">
        <ele>155.4</ele>
        <time>2016-10-16T12:26:43.000Z</time>
      </trkpt>
      <trkpt lat="50.23035" lon="3.53435">
        <ele>155</ele>
        <time>2016-10-16T12:26:46.000Z</time>
      </trkpt>
      <trkpt lat="50.23031" lon="3.53403">
        <ele>154.4</ele>
        <time>2016-10-16T12:26:52.000Z</time>
      </trkpt>
      <trkpt lat="50.23027" lon="3.53382">
        <ele>152.9</ele>
        <time>2016-10-16T12:26:55.000Z</time>
      </trkpt>
      <trkpt lat="50.23028" lon="3.53366">
        <ele>154.5</ele>
        <time>2016-10-16T12:26:58.000Z</time>
      </trkpt>
      <trkpt lat="50.23028" lon="3.53326">
        <ele>153.3</ele>
        <time>2016-10-16T12:27:04.000Z</time>
      </trkpt>
      <trkpt lat="50.23027" lon="3.53303">
        <ele>150.6</ele>
        <time>2016-10-16T12:27:07.000Z</time>
      </trkpt>
      <trkpt lat="50.23024" lon="3.53276">
        <ele>149.9</ele>
        <time>2016-10-16T12:27:10.000Z</time>
      </trkpt>
      <trkpt lat="50.23023" lon="3.53233">
        <ele>154.5</ele>
        <time>2016-10-16T12:27:16.000Z</time>
      </trkpt>
      <trkpt lat="50.23011" lon="3.53229">
        <ele>150.3</ele>
        <time>2016-10-16T12:27:19.000Z</time>
      </trkpt>
      <trkpt lat="50.23006" lon="3.532">
        <ele>149.6</ele>
        <time>2016-10-16T12:27:25.000Z</time>
      </trkpt>
      <trkpt lat="50.22994" lon="3.53156">
        <ele>154.5</ele>
        <time>2016-10-16T12:27:31.000Z</time>
      </trkpt>
      <trkpt lat="50.22977" lon="3.53105">
        <ele>140.2</ele>
        <time>2016-10-16T12:27:37.000Z</time>
      </trkpt>
      <trkpt lat="50.22971" lon="3.53082">
        <ele>138.1</ele>
        <time>2016-10-16T12:27:40.000Z</time>
      </trkpt>
      <trkpt lat="50.22958" lon="3.53029">
        <ele>133.5</ele>
        <time>2016-10-16T12:27:46.000Z</time>
      </trkpt>
      <trkpt lat="50.22957" lon="3.52989">
        <ele>135.4</ele>
        <time>2016-10-16T12:27:52.000Z</time>
      </trkpt>
      <trkpt lat="50.22951" lon="3.52965">
        <ele>137</ele>
        <time>2016-10-16T12:27:55.000Z</time>
      </trkpt>
      <trkpt lat="50.22941" lon="3.52916">
        <ele>144.3</ele>
        <time>2016-10-16T12:28:01.000Z</time>
      </trkpt>
      <trkpt lat="50.22942" lon="3.52889">
        <ele>147.4</ele>
        <time>2016-10-16T12:28:04.000Z</time>
      </trkpt>
      <trkpt lat="50.22948" lon="3.52853">
        <ele>149.2</ele>
        <time>2016-10-16T12:28:10.000Z</time>
      </trkpt>
      <trkpt lat="50.22959" lon="3.52809">
        <ele>153.6</ele>
        <time>2016-10-16T12:28:16.000Z</time>
      </trkpt>
      <trkpt lat="50.22971" lon="3.5275">
        <ele>151.2</ele>
        <time>2016-10-16T12:28:20.000Z</time>
      </trkpt>
      <trkpt lat="50.22984" lon="3.52702">
        <ele>148.5</ele>
        <time>2016-10-16T12:28:25.000Z</time>
      </trkpt>
      <trkpt lat="50.22999" lon="3.52646">
        <ele>148.2</ele>
        <time>2016-10-16T12:28:31.000Z</time>
      </trkpt>
      <trkpt lat="50.23007" lon="3.52617">
        <ele>143.3</ele>
        <time>2016-10-16T12:28:34.000Z</time>
      </trkpt>
      <trkpt lat="50.23018" lon="3.52581">
        <ele>142.2</ele>
        <time>2016-10-16T12:28:40.000Z</time>
      </trkpt>
      <trkpt lat="50.23024" lon="3.52542">
        <ele>146.9</ele>
        <time>2016-10-16T12:28:43.000Z</time>
      </trkpt>
      <trkpt lat="50.23031" lon="3.5251">
        <ele>143.4</ele>
        <time>2016-10-16T12:28:46.000Z</time>
      </trkpt>
      <trkpt lat="50.23037" lon="3.52481">
        <ele>138.9</ele>
        <time>2016-10-16T12:28:49.000Z</time>
      </trkpt>
      <trkpt lat="50.23043" lon="3.52456">
        <ele>137.6</ele>
        <time>2016-10-16T12:28:52.000Z</time>
      </trkpt>
      <trkpt lat="50.23074" lon="3.52344">
        <ele>147.4</ele>
        <time>2016-10-16T12:29:05.000Z</time>
      </trkpt>
      <trkpt lat="50.23084" lon="3.52296">
        <ele>146.3</ele>
        <time>2016-10-16T12:29:10.000Z</time>
      </trkpt>
      <trkpt lat="50.23091" lon="3.5227">
        <ele>146.7</ele>
        <time>2016-10-16T12:29:13.000Z</time>
      </trkpt>
      <trkpt lat="50.23097" lon="3.52241">
        <ele>146.7</ele>
        <time>2016-10-16T12:29:16.000Z</time>
      </trkpt>
      <trkpt lat="50.23103" lon="3.52213">
        <ele>148</ele>
        <time>2016-10-16T12:29:19.000Z</time>
      </trkpt>
      <trkpt lat="50.23114" lon="3.52158">
        <ele>146.4</ele>
        <time>2016-10-16T12:29:25.000Z</time>
      </trkpt>
      <trkpt lat="50.23127" lon="3.52103">
        <ele>136.4</ele>
        <time>2016-10-16T12:29:31.000Z</time>
      </trkpt>
      <trkpt lat="50.23147" lon="3.52046">
        <ele>133</ele>
        <time>2016-10-16T12:29:37.000Z</time>
      </trkpt>
      <trkpt lat="50.2317" lon="3.51983">
        <ele>132.4</ele>
        <time>2016-10-16T12:29:43.000Z</time>
      </trkpt>
      <trkpt lat="50.23182" lon="3.51958">
        <ele>127.3</ele>
        <time>2016-10-16T12:29:46.000Z</time>
      </trkpt>
      <trkpt lat="50.23196" lon="3.51903">
        <ele>127.3</ele>
        <time>2016-10-16T12:29:52.000Z</time>
      </trkpt>
      <trkpt lat="50.23206" lon="3.51841">
        <ele>130.7</ele>
        <time>2016-10-16T12:29:58.000Z</time>
      </trkpt>
      <trkpt lat="50.23208" lon="3.51816">
        <ele>132.9</ele>
        <time>2016-10-16T12:30:01.000Z</time>
      </trkpt>
      <trkpt lat="50.23215" lon="3.51787">
        <ele>134.4</ele>
        <time>2016-10-16T12:30:04.000Z</time>
      </trkpt>
      <trkpt lat="50.23222" lon="3.51753">
        <ele>135.1</ele>
        <time>2016-10-16T12:30:07.000Z</time>
      </trkpt>
      <trkpt lat="50.23222" lon="3.51717">
        <ele>134</ele>
        <time>2016-10-16T12:30:10.000Z</time>
      </trkpt>
      <trkpt lat="50.23206" lon="3.51644">
        <ele>134</ele>
        <time>2016-10-16T12:30:16.000Z</time>
      </trkpt>
      <trkpt lat="50.232" lon="3.51589">
        <ele>134.8</ele>
        <time>2016-10-16T12:30:22.000Z</time>
      </trkpt>
      <trkpt lat="50.23217" lon="3.5152">
        <ele>132</ele>
        <time>2016-10-16T12:30:28.000Z</time>
      </trkpt>
      <trkpt lat="50.23217" lon="3.51488">
        <ele>132.7</ele>
        <time>2016-10-16T12:30:31.000Z</time>
      </trkpt>
      <trkpt lat="50.23237" lon="3.51442">
        <ele>130.2</ele>
        <time>2016-10-16T12:30:37.000Z</time>
      </trkpt>
      <trkpt lat="50.23227" lon="3.51415">
        <ele>127.6</ele>
        <time>2016-10-16T12:30:40.000Z</time>
      </trkpt>
      <trkpt lat="50.23217" lon="3.51365">
        <ele>127.2</ele>
        <time>2016-10-16T12:30:46.000Z</time>
      </trkpt>
      <trkpt lat="50.23219" lon="3.51355">
        <ele>126.2</ele>
        <time>2016-10-16T12:30:49.000Z</time>
      </trkpt>
      <trkpt lat="50.23224" lon="3.51329">
        <ele>132.6</ele>
        <time>2016-10-16T12:30:55.000Z</time>
      </trkpt>
      <trkpt lat="50.2322" lon="3.51324">
        <ele>135.2</ele>
        <time>2016-10-16T12:30:58.000Z</time>
      </trkpt>
      <trkpt lat="50.23222" lon="3.51302">
        <ele>132.6</ele>
        <time>2016-10-16T12:31:01.000Z</time>
      </trkpt>
      <trkpt lat="50.23235" lon="3.51272">
        <ele>133.1</ele>
        <time>2016-10-16T12:31:07.000Z</time>
      </trkpt>
      <trkpt lat="50.2325" lon="3.51232">
        <ele>134.9</ele>
        <time>2016-10-16T12:31:13.000Z</time>
      </trkpt>
      <trkpt lat="50.23249" lon="3.51224">
        <ele>135.5</ele>
        <time>2016-10-16T12:31:16.000Z</time>
      </trkpt>
      <trkpt lat="50.23261" lon="3.51205">
        <ele>137.1</ele>
        <time>2016-10-16T12:31:19.000Z</time>
      </trkpt>
      <trkpt lat="50.23267" lon="3.51199">
        <ele>136</ele>
        <time>2016-10-16T12:31:22.000Z</time>
      </trkpt>
      <trkpt lat="50.23274" lon="3.51162">
        <ele>132.9</ele>
        <time>2016-10-16T12:31:28.000Z</time>
      </trkpt>
      <trkpt lat="50.23284" lon="3.51137">
        <ele>135.7</ele>
        <time>2016-10-16T12:31:37.000Z</time>
      </trkpt>
      <trkpt lat="50.23291" lon="3.51113">
        <ele>136.4</ele>
        <time>2016-10-16T12:31:40.000Z</time>
      </trkpt>
      <trkpt lat="50.23298" lon="3.51103">
        <ele>138.4</ele>
        <time>2016-10-16T12:31:43.000Z</time>
      </trkpt>
      <trkpt lat="50.23306" lon="3.5107">
        <ele>138.9</ele>
        <time>2016-10-16T12:31:49.000Z</time>
      </trkpt>
      <trkpt lat="50.23318" lon="3.51032">
        <ele>143.5</ele>
        <time>2016-10-16T12:31:55.000Z</time>
      </trkpt>
      <trkpt lat="50.23319" lon="3.51009">
        <ele>141.8</ele>
        <time>2016-10-16T12:31:58.000Z</time>
      </trkpt>
      <trkpt lat="50.23338" lon="3.50972">
        <ele>145.6</ele>
        <time>2016-10-16T12:32:04.000Z</time>
      </trkpt>
      <trkpt lat="50.23343" lon="3.50945">
        <ele>148.6</ele>
        <time>2016-10-16T12:32:10.000Z</time>
      </trkpt>
      <trkpt lat="50.23364" lon="3.50887">
        <ele>151.3</ele>
        <time>2016-10-16T12:32:17.000Z</time>
      </trkpt>
      <trkpt lat="50.23375" lon="3.50866">
        <ele>150</ele>
        <time>2016-10-16T12:32:22.000Z</time>
      </trkpt>
      <trkpt lat="50.2338" lon="3.50852">
        <ele>148.7</ele>
        <time>2016-10-16T12:32:25.000Z</time>
      </trkpt>
      <trkpt lat="50.2339" lon="3.50833">
        <ele>148.9</ele>
        <time>2016-10-16T12:32:28.000Z</time>
      </trkpt>
      <trkpt lat="50.23413" lon="3.50793">
        <ele>146.4</ele>
        <time>2016-10-16T12:32:34.000Z</time>
      </trkpt>
      <trkpt lat="50.23426" lon="3.50769">
        <ele>150</ele>
        <time>2016-10-16T12:32:40.000Z</time>
      </trkpt>
      <trkpt lat="50.23433" lon="3.50752">
        <ele>151</ele>
        <time>2016-10-16T12:32:43.000Z</time>
      </trkpt>
      <trkpt lat="50.23455" lon="3.50717">
        <ele>155.3</ele>
        <time>2016-10-16T12:32:49.000Z</time>
      </trkpt>
      <trkpt lat="50.2347" lon="3.50696">
        <ele>157.9</ele>
        <time>2016-10-16T12:32:52.000Z</time>
      </trkpt>
      <trkpt lat="50.23493" lon="3.50653">
        <ele>154.8</ele>
        <time>2016-10-16T12:32:58.000Z</time>
      </trkpt>
      <trkpt lat="50.23505" lon="3.50632">
        <ele>153.4</ele>
        <time>2016-10-16T12:33:01.000Z</time>
      </trkpt>
      <trkpt lat="50.23516" lon="3.50608">
        <ele>149.6</ele>
        <time>2016-10-16T12:33:04.000Z</time>
      </trkpt>
      <trkpt lat="50.23541" lon="3.50567">
        <ele>153.1</ele>
        <time>2016-10-16T12:33:10.000Z</time>
      </trkpt>
      <trkpt lat="50.23566" lon="3.50529">
        <ele>147.2</ele>
        <time>2016-10-16T12:33:17.000Z</time>
      </trkpt>
      <trkpt lat="50.2358" lon="3.50506">
        <ele>149.6</ele>
        <time>2016-10-16T12:33:22.000Z</time>
      </trkpt>
      <trkpt lat="50.23589" lon="3.50494">
        <ele>148.3</ele>
        <time>2016-10-16T12:33:25.000Z</time>
      </trkpt>
      <trkpt lat="50.23596" lon="3.50477">
        <ele>146.6</ele>
        <time>2016-10-16T12:33:28.000Z</time>
      </trkpt>
      <trkpt lat="50.23602" lon="3.50461">
        <ele>145.5</ele>
        <time>2016-10-16T12:33:31.000Z</time>
      </trkpt>
      <trkpt lat="50.23594" lon="3.50456">
        <ele>145.5</ele>
        <time>2016-10-16T12:33:34.000Z</time>
      </trkpt>
      <trkpt lat="50.23575" lon="3.50454">
        <ele>148.4</ele>
        <time>2016-10-16T12:33:40.000Z</time>
      </trkpt>
      <trkpt lat="50.23563" lon="3.5045">
        <ele>149.3</ele>
        <time>2016-10-16T12:33:43.000Z</time>
      </trkpt>
      <trkpt lat="50.23535" lon="3.50455">
        <ele>149.9</ele>
        <time>2016-10-16T12:33:49.000Z</time>
      </trkpt>
      <trkpt lat="50.23499" lon="3.50454">
        <ele>144.8</ele>
        <time>2016-10-16T12:33:55.000Z</time>
      </trkpt>
      <trkpt lat="50.23473" lon="3.50449">
        <ele>146.7</ele>
        <time>2016-10-16T12:34:01.000Z</time>
      </trkpt>
      <trkpt lat="50.23456" lon="3.50448">
        <ele>148</ele>
        <time>2016-10-16T12:34:04.000Z</time>
      </trkpt>
      <trkpt lat="50.23437" lon="3.50459">
        <ele>151</ele>
        <time>2016-10-16T12:34:10.000Z</time>
      </trkpt>
      <trkpt lat="50.23404" lon="3.50454">
        <ele>153.6</ele>
        <time>2016-10-16T12:34:16.000Z</time>
      </trkpt>
      <trkpt lat="50.2339" lon="3.50458">
        <ele>152.4</ele>
        <time>2016-10-16T12:34:19.000Z</time>
      </trkpt>
      <trkpt lat="50.23375" lon="3.50464">
        <ele>154.3</ele>
        <time>2016-10-16T12:34:22.000Z</time>
      </trkpt>
      <trkpt lat="50.23341" lon="3.50461">
        <ele>154</ele>
        <time>2016-10-16T12:34:28.000Z</time>
      </trkpt>
      <trkpt lat="50.23309" lon="3.50457">
        <ele>146.4</ele>
        <time>2016-10-16T12:34:34.000Z</time>
      </trkpt>
      <trkpt lat="50.23291" lon="3.50464">
        <ele>145.1</ele>
        <time>2016-10-16T12:34:37.000Z</time>
      </trkpt>
      <trkpt lat="50.23273" lon="3.50467">
        <ele>147.5</ele>
        <time>2016-10-16T12:34:43.000Z</time>
      </trkpt>
      <trkpt lat="50.23253" lon="3.50452">
        <ele>144.7</ele>
        <time>2016-10-16T12:34:49.000Z</time>
      </trkpt>
      <trkpt lat="50.23219" lon="3.5042">
        <ele>147.3</ele>
        <time>2016-10-16T12:34:55.000Z</time>
      </trkpt>
      <trkpt lat="50.23223" lon="3.50395">
        <ele>150.6</ele>
        <time>2016-10-16T12:34:58.000Z</time>
      </trkpt>
      <trkpt lat="50.23222" lon="3.50364">
        <ele>155.9</ele>
        <time>2016-10-16T12:35:02.000Z</time>
      </trkpt>
      <trkpt lat="50.23216" lon="3.50312">
        <ele>150.2</ele>
        <time>2016-10-16T12:35:07.000Z</time>
      </trkpt>
      <trkpt lat="50.23212" lon="3.50278">
        <ele>149.3</ele>
        <time>2016-10-16T12:35:10.000Z</time>
      </trkpt>
      <trkpt lat="50.23195" lon="3.50229">
        <ele>149.1</ele>
        <time>2016-10-16T12:35:16.000Z</time>
      </trkpt>
      <trkpt lat="50.23194" lon="3.50193">
        <ele>147.8</ele>
        <time>2016-10-16T12:35:19.000Z</time>
      </trkpt>
      <trkpt lat="50.23177" lon="3.50148">
        <ele>151.5</ele>
        <time>2016-10-16T12:35:25.000Z</time>
      </trkpt>
      <trkpt lat="50.23164" lon="3.50097">
        <ele>150.8</ele>
        <time>2016-10-16T12:35:31.000Z</time>
      </trkpt>
      <trkpt lat="50.23156" lon="3.50079">
        <ele>154.5</ele>
        <time>2016-10-16T12:35:34.000Z</time>
      </trkpt>
      <trkpt lat="50.23175" lon="3.50036">
        <ele>151.2</ele>
        <time>2016-10-16T12:35:40.000Z</time>
      </trkpt>
      <trkpt lat="50.23202" lon="3.50002">
        <ele>150</ele>
        <time>2016-10-16T12:35:46.000Z</time>
      </trkpt>
      <trkpt lat="50.23213" lon="3.49994">
        <ele>147.2</ele>
        <time>2016-10-16T12:35:49.000Z</time>
      </trkpt>
      <trkpt lat="50.2323" lon="3.49983">
        <ele>147</ele>
        <time>2016-10-16T12:35:52.000Z</time>
      </trkpt>
      <trkpt lat="50.23265" lon="3.49956">
        <ele>145.8</ele>
        <time>2016-10-16T12:35:58.000Z</time>
      </trkpt>
      <trkpt lat="50.23297" lon="3.49932">
        <ele>145</ele>
        <time>2016-10-16T12:36:04.000Z</time>
      </trkpt>
      <trkpt lat="50.23328" lon="3.49903">
        <ele>146.8</ele>
        <time>2016-10-16T12:36:10.000Z</time>
      </trkpt>
      <trkpt lat="50.23349" lon="3.49885">
        <ele>145.5</ele>
        <time>2016-10-16T12:36:13.000Z</time>
      </trkpt>
      <trkpt lat="50.23375" lon="3.49841">
        <ele>142.6</ele>
        <time>2016-10-16T12:36:19.000Z</time>
      </trkpt>
      <trkpt lat="50.23387" lon="3.49814">
        <ele>139.8</ele>
        <time>2016-10-16T12:36:22.000Z</time>
      </trkpt>
      <trkpt lat="50.2341" lon="3.49776">
        <ele>140.8</ele>
        <time>2016-10-16T12:36:28.000Z</time>
      </trkpt>
      <trkpt lat="50.23415" lon="3.49762">
        <ele>141.2</ele>
        <time>2016-10-16T12:36:31.000Z</time>
      </trkpt>
      <trkpt lat="50.23435" lon="3.49717">
        <ele>141.8</ele>
        <time>2016-10-16T12:36:37.000Z</time>
      </trkpt>
      <trkpt lat="50.23438" lon="3.49672">
        <ele>142.2</ele>
        <time>2016-10-16T12:36:43.000Z</time>
      </trkpt>
      <trkpt lat="50.23402" lon="3.49657">
        <ele>128.7</ele>
        <time>2016-10-16T12:36:49.000Z</time>
      </trkpt>
      <trkpt lat="50.23395" lon="3.49657">
        <ele>130.7</ele>
        <time>2016-10-16T12:36:52.000Z</time>
      </trkpt>
      <trkpt lat="50.23378" lon="3.49659">
        <ele>129.2</ele>
        <time>2016-10-16T12:36:58.000Z</time>
      </trkpt>
      <trkpt lat="50.23377" lon="3.4964">
        <ele>129.8</ele>
        <time>2016-10-16T12:37:04.000Z</time>
      </trkpt>
      <trkpt lat="50.2338" lon="3.49625">
        <ele>129.7</ele>
        <time>2016-10-16T12:37:10.000Z</time>
      </trkpt>
      <trkpt lat="50.234" lon="3.49643">
        <ele>132.5</ele>
        <time>2016-10-16T12:37:16.000Z</time>
      </trkpt>
      <trkpt lat="50.23409" lon="3.49659">
        <ele>132.3</ele>
        <time>2016-10-16T12:37:19.000Z</time>
      </trkpt>
      <trkpt lat="50.2343" lon="3.49684">
        <ele>132.6</ele>
        <time>2016-10-16T12:37:25.000Z</time>
      </trkpt>
      <trkpt lat="50.23443" lon="3.49687">
        <ele>134.5</ele>
        <time>2016-10-16T12:37:28.000Z</time>
      </trkpt>
      <trkpt lat="50.23469" lon="3.49669">
        <ele>132.3</ele>
        <time>2016-10-16T12:37:33.999Z</time>
      </trkpt>
      <trkpt lat="50.23488" lon="3.49622">
        <ele>136.8</ele>
        <time>2016-10-16T12:37:40.000Z</time>
      </trkpt>
      <trkpt lat="50.23497" lon="3.49603">
        <ele>139</ele>
        <time>2016-10-16T12:37:43.000Z</time>
      </trkpt>
      <trkpt lat="50.23508" lon="3.49583">
        <ele>137.7</ele>
        <time>2016-10-16T12:37:46.000Z</time>
      </trkpt>
      <trkpt lat="50.2353" lon="3.49549">
        <ele>139.5</ele>
        <time>2016-10-16T12:37:52.000Z</time>
      </trkpt>
      <trkpt lat="50.23541" lon="3.49527">
        <ele>138.5</ele>
        <time>2016-10-16T12:37:55.000Z</time>
      </trkpt>
      <trkpt lat="50.23568" lon="3.49482">
        <ele>136.3</ele>
        <time>2016-10-16T12:38:01.000Z</time>
      </trkpt>
      <trkpt lat="50.23583" lon="3.49453">
        <ele>134.5</ele>
        <time>2016-10-16T12:38:04.000Z</time>
      </trkpt>
      <trkpt lat="50.23597" lon="3.49429">
        <ele>131.6</ele>
        <time>2016-10-16T12:38:07.000Z</time>
      </trkpt>
      <trkpt lat="50.23624" lon="3.49378">
        <ele>129.8</ele>
        <time>2016-10-16T12:38:13.000Z</time>
      </trkpt>
      <trkpt lat="50.23637" lon="3.49356">
        <ele>132.8</ele>
        <time>2016-10-16T12:38:16.000Z</time>
      </trkpt>
      <trkpt lat="50.2365" lon="3.49334">
        <ele>131.9</ele>
        <time>2016-10-16T12:38:19.000Z</time>
      </trkpt>
      <trkpt lat="50.23671" lon="3.49294">
        <ele>134.8</ele>
        <time>2016-10-16T12:38:25.000Z</time>
      </trkpt>
      <trkpt lat="50.23686" lon="3.49271">
        <ele>137</ele>
        <time>2016-10-16T12:38:28.000Z</time>
      </trkpt>
      <trkpt lat="50.23707" lon="3.49228">
        <ele>136.4</ele>
        <time>2016-10-16T12:38:34.000Z</time>
      </trkpt>
      <trkpt lat="50.23728" lon="3.49192">
        <ele>138.5</ele>
        <time>2016-10-16T12:38:40.000Z</time>
      </trkpt>
      <trkpt lat="50.2374" lon="3.49175">
        <ele>138</ele>
        <time>2016-10-16T12:38:43.000Z</time>
      </trkpt>
      <trkpt lat="50.2375" lon="3.49153">
        <ele>140</ele>
        <time>2016-10-16T12:38:46.000Z</time>
      </trkpt>
      <trkpt lat="50.23765" lon="3.4912">
        <ele>139.1</ele>
        <time>2016-10-16T12:38:52.000Z</time>
      </trkpt>
      <trkpt lat="50.23753" lon="3.49081">
        <ele>133</ele>
        <time>2016-10-16T12:38:58.000Z</time>
      </trkpt>
      <trkpt lat="50.23723" lon="3.49058">
        <ele>130.2</ele>
        <time>2016-10-16T12:39:04.000Z</time>
      </trkpt>
      <trkpt lat="50.23698" lon="3.49033">
        <ele>130.6</ele>
        <time>2016-10-16T12:39:07.000Z</time>
      </trkpt>
      <trkpt lat="50.23688" lon="3.4902">
        <ele>132.6</ele>
        <time>2016-10-16T12:39:10.000Z</time>
      </trkpt>
      <trkpt lat="50.23656" lon="3.48986">
        <ele>131.7</ele>
        <time>2016-10-16T12:39:17.000Z</time>
      </trkpt>
      <trkpt lat="50.23634" lon="3.48962">
        <ele>135.7</ele>
        <time>2016-10-16T12:39:21.000Z</time>
      </trkpt>
      <trkpt lat="50.23604" lon="3.48923">
        <ele>135.4</ele>
        <time>2016-10-16T12:39:27.000Z</time>
      </trkpt>
      <trkpt lat="50.23578" lon="3.48914">
        <ele>131.9</ele>
        <time>2016-10-16T12:39:30.000Z</time>
      </trkpt>
      <trkpt lat="50.23546" lon="3.48884">
        <ele>130.6</ele>
        <time>2016-10-16T12:39:36.000Z</time>
      </trkpt>
      <trkpt lat="50.23517" lon="3.48846">
        <ele>128.2</ele>
        <time>2016-10-16T12:39:42.000Z</time>
      </trkpt>
      <trkpt lat="50.23495" lon="3.48845">
        <ele>128.1</ele>
        <time>2016-10-16T12:39:48.000Z</time>
      </trkpt>
      <trkpt lat="50.2346" lon="3.48821">
        <ele>124.9</ele>
        <time>2016-10-16T12:39:54.000Z</time>
      </trkpt>
      <trkpt lat="50.23436" lon="3.4881">
        <ele>126.3</ele>
        <time>2016-10-16T12:40:00.000Z</time>
      </trkpt>
      <trkpt lat="50.23421" lon="3.48796">
        <ele>127.8</ele>
        <time>2016-10-16T12:40:09.000Z</time>
      </trkpt>
      <trkpt lat="50.23397" lon="3.48788">
        <ele>127.1</ele>
        <time>2016-10-16T12:40:12.000Z</time>
      </trkpt>
      <trkpt lat="50.23386" lon="3.48772">
        <ele>126.5</ele>
        <time>2016-10-16T12:40:18.000Z</time>
      </trkpt>
      <trkpt lat="50.23366" lon="3.48771">
        <ele>127.7</ele>
        <time>2016-10-16T12:40:24.000Z</time>
      </trkpt>
      <trkpt lat="50.23343" lon="3.48747">
        <ele>128.1</ele>
        <time>2016-10-16T12:40:30.000Z</time>
      </trkpt>
      <trkpt lat="50.23335" lon="3.48734">
        <ele>131.3</ele>
        <time>2016-10-16T12:40:33.000Z</time>
      </trkpt>
      <trkpt lat="50.23318" lon="3.48718">
        <ele>130.7</ele>
        <time>2016-10-16T12:40:36.000Z</time>
      </trkpt>
      <trkpt lat="50.23292" lon="3.48699">
        <ele>128.9</ele>
        <time>2016-10-16T12:40:43.000Z</time>
      </trkpt>
      <trkpt lat="50.23259" lon="3.48683">
        <ele>126.8</ele>
        <time>2016-10-16T12:40:50.000Z</time>
      </trkpt>
      <trkpt lat="50.23242" lon="3.48675">
        <ele>127.6</ele>
        <time>2016-10-16T12:40:53.000Z</time>
      </trkpt>
      <trkpt lat="50.23225" lon="3.48643">
        <ele>127.7</ele>
        <time>2016-10-16T12:40:59.000Z</time>
      </trkpt>
      <trkpt lat="50.23213" lon="3.48612">
        <ele>126.3</ele>
        <time>2016-10-16T12:41:02.000Z</time>
      </trkpt>
      <trkpt lat="50.23189" lon="3.48598">
        <ele>119.4</ele>
        <time>2016-10-16T12:41:08.000Z</time>
      </trkpt>
      <trkpt lat="50.23184" lon="3.48596">
        <ele>123.3</ele>
        <time>2016-10-16T12:41:11.000Z</time>
      </trkpt>
      <trkpt lat="50.23177" lon="3.48592">
        <ele>120.4</ele>
        <time>2016-10-16T12:41:14.000Z</time>
      </trkpt>
      <trkpt lat="50.23164" lon="3.48592">
        <ele>116</ele>
        <time>2016-10-16T12:41:17.000Z</time>
      </trkpt>
      <trkpt lat="50.23183" lon="3.4859">
        <ele>129.9</ele>
        <time>2016-10-16T12:41:23.000Z</time>
      </trkpt>
      <trkpt lat="50.23196" lon="3.48584">
        <ele>125.3</ele>
        <time>2016-10-16T12:41:26.000Z</time>
      </trkpt>
      <trkpt lat="50.23204" lon="3.48573">
        <ele>122.8</ele>
        <time>2016-10-16T12:41:29.000Z</time>
      </trkpt>
      <trkpt lat="50.23224" lon="3.4856">
        <ele>123.3</ele>
        <time>2016-10-16T12:41:32.000Z</time>
      </trkpt>
      <trkpt lat="50.2325" lon="3.48549">
        <ele>126.1</ele>
        <time>2016-10-16T12:41:38.000Z</time>
      </trkpt>
      <trkpt lat="50.23263" lon="3.48542">
        <ele>128.1</ele>
        <time>2016-10-16T12:41:41.000Z</time>
      </trkpt>
      <trkpt lat="50.2329" lon="3.48534">
        <ele>130</ele>
        <time>2016-10-16T12:41:47.000Z</time>
      </trkpt>
      <trkpt lat="50.23315" lon="3.48534">
        <ele>125.7</ele>
        <time>2016-10-16T12:41:53.000Z</time>
      </trkpt>
      <trkpt lat="50.23339" lon="3.48526">
        <ele>124.6</ele>
        <time>2016-10-16T12:41:59.000Z</time>
      </trkpt>
      <trkpt lat="50.23357" lon="3.48536">
        <ele>123.7</ele>
        <time>2016-10-16T12:42:05.000Z</time>
      </trkpt>
      <trkpt lat="50.23372" lon="3.48529">
        <ele>125.1</ele>
        <time>2016-10-16T12:42:08.000Z</time>
      </trkpt>
      <trkpt lat="50.23405" lon="3.485">
        <ele>126.7</ele>
        <time>2016-10-16T12:42:14.000Z</time>
      </trkpt>
      <trkpt lat="50.23421" lon="3.48474">
        <ele>130</ele>
        <time>2016-10-16T12:42:20.000Z</time>
      </trkpt>
      <trkpt lat="50.23433" lon="3.48459">
        <ele>128.7</ele>
        <time>2016-10-16T12:42:23.000Z</time>
      </trkpt>
      <trkpt lat="50.2345" lon="3.48433">
        <ele>130.3</ele>
        <time>2016-10-16T12:42:29.000Z</time>
      </trkpt>
      <trkpt lat="50.23472" lon="3.48393">
        <ele>138.6</ele>
        <time>2016-10-16T12:42:35.000Z</time>
      </trkpt>
      <trkpt lat="50.23488" lon="3.48381">
        <ele>140.8</ele>
        <time>2016-10-16T12:42:38.000Z</time>
      </trkpt>
      <trkpt lat="50.23515" lon="3.48342">
        <ele>139.4</ele>
        <time>2016-10-16T12:42:44.000Z</time>
      </trkpt>
      <trkpt lat="50.23543" lon="3.48323">
        <ele>140</ele>
        <time>2016-10-16T12:42:50.000Z</time>
      </trkpt>
      <trkpt lat="50.23578" lon="3.48283">
        <ele>134.9</ele>
        <time>2016-10-16T12:42:56.000Z</time>
      </trkpt>
      <trkpt lat="50.23585" lon="3.48268">
        <ele>134.1</ele>
        <time>2016-10-16T12:42:59.000Z</time>
      </trkpt>
      <trkpt lat="50.23603" lon="3.4823">
        <ele>133.4</ele>
        <time>2016-10-16T12:43:05.000Z</time>
      </trkpt>
      <trkpt lat="50.23621" lon="3.48187">
        <ele>139.2</ele>
        <time>2016-10-16T12:43:11.000Z</time>
      </trkpt>
      <trkpt lat="50.23632" lon="3.48157">
        <ele>138.2</ele>
        <time>2016-10-16T12:43:14.000Z</time>
      </trkpt>
      <trkpt lat="50.2366" lon="3.48112">
        <ele>141.2</ele>
        <time>2016-10-16T12:43:20.000Z</time>
      </trkpt>
      <trkpt lat="50.23672" lon="3.48068">
        <ele>142.2</ele>
        <time>2016-10-16T12:43:26.000Z</time>
      </trkpt>
      <trkpt lat="50.23685" lon="3.48027">
        <ele>141.2</ele>
        <time>2016-10-16T12:43:32.000Z</time>
      </trkpt>
      <trkpt lat="50.23697" lon="3.47977">
        <ele>141</ele>
        <time>2016-10-16T12:43:38.000Z</time>
      </trkpt>
      <trkpt lat="50.23705" lon="3.4794">
        <ele>143</ele>
        <time>2016-10-16T12:43:44.000Z</time>
      </trkpt>
      <trkpt lat="50.2372" lon="3.47911">
        <ele>142.7</ele>
        <time>2016-10-16T12:43:47.000Z</time>
      </trkpt>
      <trkpt lat="50.23714" lon="3.47879">
        <ele>140.2</ele>
        <time>2016-10-16T12:43:53.000Z</time>
      </trkpt>
      <trkpt lat="50.23715" lon="3.47863">
        <ele>139.8</ele>
        <time>2016-10-16T12:43:55.999Z</time>
      </trkpt>
      <trkpt lat="50.23718" lon="3.47872">
        <ele>138.2</ele>
        <time>2016-10-16T12:44:02.000Z</time>
      </trkpt>
      <trkpt lat="50.23725" lon="3.47875">
        <ele>137.7</ele>
        <time>2016-10-16T12:44:05.000Z</time>
      </trkpt>
      <trkpt lat="50.23732" lon="3.47901">
        <ele>138.9</ele>
        <time>2016-10-16T12:44:11.000Z</time>
      </trkpt>
      <trkpt lat="50.23719" lon="3.47944">
        <ele>137.7</ele>
        <time>2016-10-16T12:44:18.000Z</time>
      </trkpt>
      <trkpt lat="50.23698" lon="3.47978">
        <ele>150.1</ele>
        <time>2016-10-16T12:44:28.000Z</time>
      </trkpt>
      <trkpt lat="50.23702" lon="3.4799">
        <ele>149.9</ele>
        <time>2016-10-16T12:44:31.000Z</time>
      </trkpt>
      <trkpt lat="50.23707" lon="3.4802">
        <ele>138.9</ele>
        <time>2016-10-16T12:44:34.000Z</time>
      </trkpt>
      <trkpt lat="50.23713" lon="3.48043">
        <ele>131.8</ele>
        <time>2016-10-16T12:44:37.000Z</time>
      </trkpt>
      <trkpt lat="50.23737" lon="3.48061">
        <ele>124.8</ele>
        <time>2016-10-16T12:44:43.000Z</time>
      </trkpt>
      <trkpt lat="50.23766" lon="3.48085">
        <ele>136.4</ele>
        <time>2016-10-16T12:44:49.000Z</time>
      </trkpt>
      <trkpt lat="50.23783" lon="3.48107">
        <ele>152.1</ele>
        <time>2016-10-16T12:44:55.000Z</time>
      </trkpt>
      <trkpt lat="50.2379" lon="3.48112">
        <ele>158.7</ele>
        <time>2016-10-16T12:44:58.000Z</time>
      </trkpt>
      <trkpt lat="50.23823" lon="3.4813">
        <ele>158.5</ele>
        <time>2016-10-16T12:45:04.000Z</time>
      </trkpt>
      <trkpt lat="50.23854" lon="3.48146">
        <ele>153.1</ele>
        <time>2016-10-16T12:45:10.000Z</time>
      </trkpt>
      <trkpt lat="50.23887" lon="3.48157">
        <ele>149.8</ele>
        <time>2016-10-16T12:45:16.000Z</time>
      </trkpt>
      <trkpt lat="50.23904" lon="3.48164">
        <ele>151.7</ele>
        <time>2016-10-16T12:45:19.000Z</time>
      </trkpt>
      <trkpt lat="50.23918" lon="3.48171">
        <ele>152.2</ele>
        <time>2016-10-16T12:45:22.000Z</time>
      </trkpt>
      <trkpt lat="50.23931" lon="3.4819">
        <ele>155.3</ele>
        <time>2016-10-16T12:45:25.000Z</time>
      </trkpt>
      <trkpt lat="50.23968" lon="3.48195">
        <ele>156.8</ele>
        <time>2016-10-16T12:45:31.000Z</time>
      </trkpt>
      <trkpt lat="50.24004" lon="3.48204">
        <ele>150.5</ele>
        <time>2016-10-16T12:45:37.000Z</time>
      </trkpt>
      <trkpt lat="50.24026" lon="3.48204">
        <ele>151.1</ele>
        <time>2016-10-16T12:45:40.000Z</time>
      </trkpt>
      <trkpt lat="50.24071" lon="3.48203">
        <ele>150</ele>
        <time>2016-10-16T12:45:46.000Z</time>
      </trkpt>
      <trkpt lat="50.24115" lon="3.48208">
        <ele>152.1</ele>
        <time>2016-10-16T12:45:52.000Z</time>
      </trkpt>
      <trkpt lat="50.24139" lon="3.48209">
        <ele>150.1</ele>
        <time>2016-10-16T12:45:55.000Z</time>
      </trkpt>
      <trkpt lat="50.24186" lon="3.48206">
        <ele>148.5</ele>
        <time>2016-10-16T12:46:01.000Z</time>
      </trkpt>
      <trkpt lat="50.24205" lon="3.48209">
        <ele>150.5</ele>
        <time>2016-10-16T12:46:04.000Z</time>
      </trkpt>
      <trkpt lat="50.24242" lon="3.48224">
        <ele>157.5</ele>
        <time>2016-10-16T12:46:10.000Z</time>
      </trkpt>
      <trkpt lat="50.24284" lon="3.48235">
        <ele>156.9</ele>
        <time>2016-10-16T12:46:16.000Z</time>
      </trkpt>
      <trkpt lat="50.24306" lon="3.48248">
        <ele>156.2</ele>
        <time>2016-10-16T12:46:22.000Z</time>
      </trkpt>
      <trkpt lat="50.24349" lon="3.48268">
        <ele>148.2</ele>
        <time>2016-10-16T12:46:28.000Z</time>
      </trkpt>
      <trkpt lat="50.24369" lon="3.48283">
        <ele>141.9</ele>
        <time>2016-10-16T12:46:31.000Z</time>
      </trkpt>
      <trkpt lat="50.24406" lon="3.483">
        <ele>140.3</ele>
        <time>2016-10-16T12:46:37.000Z</time>
      </trkpt>
      <trkpt lat="50.24427" lon="3.48307">
        <ele>134.5</ele>
        <time>2016-10-16T12:46:40.000Z</time>
      </trkpt>
      <trkpt lat="50.2445" lon="3.48331">
        <ele>130.5</ele>
        <time>2016-10-16T12:46:43.000Z</time>
      </trkpt>
      <trkpt lat="50.24489" lon="3.4838">
        <ele>130.6</ele>
        <time>2016-10-16T12:46:49.000Z</time>
      </trkpt>
      <trkpt lat="50.24505" lon="3.48367">
        <ele>131.8</ele>
        <time>2016-10-16T12:46:52.000Z</time>
      </trkpt>
      <trkpt lat="50.24541" lon="3.48381">
        <ele>132.4</ele>
        <time>2016-10-16T12:46:58.000Z</time>
      </trkpt>
      <trkpt lat="50.24559" lon="3.48406">
        <ele>136</ele>
        <time>2016-10-16T12:47:01.000Z</time>
      </trkpt>
      <trkpt lat="50.24602" lon="3.48419">
        <ele>129.3</ele>
        <time>2016-10-16T12:47:07.000Z</time>
      </trkpt>
      <trkpt lat="50.24622" lon="3.48438">
        <ele>130.2</ele>
        <time>2016-10-16T12:47:10.000Z</time>
      </trkpt>
      <trkpt lat="50.24658" lon="3.48463">
        <ele>130.6</ele>
        <time>2016-10-16T12:47:16.000Z</time>
      </trkpt>
      <trkpt lat="50.24685" lon="3.48473">
        <ele>128.9</ele>
        <time>2016-10-16T12:47:19.000Z</time>
      </trkpt>
      <trkpt lat="50.2471" lon="3.48491">
        <ele>127.2</ele>
        <time>2016-10-16T12:47:22.000Z</time>
      </trkpt>
      <trkpt lat="50.24762" lon="3.48512">
        <ele>123.2</ele>
        <time>2016-10-16T12:47:28.000Z</time>
      </trkpt>
      <trkpt lat="50.24787" lon="3.48517">
        <ele>128.5</ele>
        <time>2016-10-16T12:47:32.000Z</time>
      </trkpt>
      <trkpt lat="50.2482" lon="3.48534">
        <ele>123.1</ele>
        <time>2016-10-16T12:47:37.000Z</time>
      </trkpt>
      <trkpt lat="50.24854" lon="3.48552">
        <ele>128.1</ele>
        <time>2016-10-16T12:47:43.000Z</time>
      </trkpt>
      <trkpt lat="50.2487" lon="3.48559">
        <ele>128</ele>
        <time>2016-10-16T12:47:46.000Z</time>
      </trkpt>
      <trkpt lat="50.24899" lon="3.48541">
        <ele>127</ele>
        <time>2016-10-16T12:47:52.000Z</time>
      </trkpt>
      <trkpt lat="50.24919" lon="3.48541">
        <ele>129.5</ele>
        <time>2016-10-16T12:47:55.000Z</time>
      </trkpt>
      <trkpt lat="50.24968" lon="3.48549">
        <ele>129.9</ele>
        <time>2016-10-16T12:48:01.000Z</time>
      </trkpt>
      <trkpt lat="50.24989" lon="3.48552">
        <ele>126</ele>
        <time>2016-10-16T12:48:04.000Z</time>
      </trkpt>
      <trkpt lat="50.2503" lon="3.48571">
        <ele>122.7</ele>
        <time>2016-10-16T12:48:10.000Z</time>
      </trkpt>
      <trkpt lat="50.25043" lon="3.48578">
        <ele>125.5</ele>
        <time>2016-10-16T12:48:13.000Z</time>
      </trkpt>
      <trkpt lat="50.25082" lon="3.48588">
        <ele>130.2</ele>
        <time>2016-10-16T12:48:19.000Z</time>
      </trkpt>
      <trkpt lat="50.25116" lon="3.48604">
        <ele>137.2</ele>
        <time>2016-10-16T12:48:25.000Z</time>
      </trkpt>
      <trkpt lat="50.25148" lon="3.48627">
        <ele>133.9</ele>
        <time>2016-10-16T12:48:31.000Z</time>
      </trkpt>
      <trkpt lat="50.25162" lon="3.48643">
        <ele>133.5</ele>
        <time>2016-10-16T12:48:34.000Z</time>
      </trkpt>
      <trkpt lat="50.25197" lon="3.48668">
        <ele>138.5</ele>
        <time>2016-10-16T12:48:40.000Z</time>
      </trkpt>
      <trkpt lat="50.25214" lon="3.48676">
        <ele>144.1</ele>
        <time>2016-10-16T12:48:43.000Z</time>
      </trkpt>
      <trkpt lat="50.25234" lon="3.48688">
        <ele>143.6</ele>
        <time>2016-10-16T12:48:46.000Z</time>
      </trkpt>
      <trkpt lat="50.25269" lon="3.48701">
        <ele>144</ele>
        <time>2016-10-16T12:48:52.000Z</time>
      </trkpt>
      <trkpt lat="50.2529" lon="3.48706">
        <ele>143.1</ele>
        <time>2016-10-16T12:48:55.000Z</time>
      </trkpt>
      <trkpt lat="50.25329" lon="3.48728">
        <ele>145.8</ele>
        <time>2016-10-16T12:49:01.000Z</time>
      </trkpt>
      <trkpt lat="50.25349" lon="3.48743">
        <ele>145.6</ele>
        <time>2016-10-16T12:49:04.000Z</time>
      </trkpt>
      <trkpt lat="50.25394" lon="3.48768">
        <ele>140.7</ele>
        <time>2016-10-16T12:49:10.000Z</time>
      </trkpt>
      <trkpt lat="50.2543" lon="3.48794">
        <ele>142.8</ele>
        <time>2016-10-16T12:49:16.000Z</time>
      </trkpt>
      <trkpt lat="50.25463" lon="3.48828">
        <ele>142.8</ele>
        <time>2016-10-16T12:49:22.000Z</time>
      </trkpt>
      <trkpt lat="50.25505" lon="3.48848">
        <ele>138.9</ele>
        <time>2016-10-16T12:49:28.000Z</time>
      </trkpt>
      <trkpt lat="50.25524" lon="3.48871">
        <ele>141.8</ele>
        <time>2016-10-16T12:49:31.000Z</time>
      </trkpt>
      <trkpt lat="50.25571" lon="3.48903">
        <ele>138.8</ele>
        <time>2016-10-16T12:49:37.000Z</time>
      </trkpt>
      <trkpt lat="50.25621" lon="3.48932">
        <ele>136.4</ele>
        <time>2016-10-16T12:49:43.000Z</time>
      </trkpt>
      <trkpt lat="50.25636" lon="3.48949">
        <ele>133.4</ele>
        <time>2016-10-16T12:49:46.000Z</time>
      </trkpt>
      <trkpt lat="50.25668" lon="3.49004">
        <ele>126.4</ele>
        <time>2016-10-16T12:49:52.000Z</time>
      </trkpt>
      <trkpt lat="50.25695" lon="3.49065">
        <ele>114.7</ele>
        <time>2016-10-16T12:49:58.000Z</time>
      </trkpt>
      <trkpt lat="50.25738" lon="3.49132">
        <ele>109</ele>
        <time>2016-10-16T12:50:04.000Z</time>
      </trkpt>
      <trkpt lat="50.25755" lon="3.49157">
        <ele>108.2</ele>
        <time>2016-10-16T12:50:07.000Z</time>
      </trkpt>
      <trkpt lat="50.25798" lon="3.49209">
        <ele>110.8</ele>
        <time>2016-10-16T12:50:13.000Z</time>
      </trkpt>
      <trkpt lat="50.25843" lon="3.49246">
        <ele>105.9</ele>
        <time>2016-10-16T12:50:19.000Z</time>
      </trkpt>
      <trkpt lat="50.25867" lon="3.49265">
        <ele>102.1</ele>
        <time>2016-10-16T12:50:22.000Z</time>
      </trkpt>
      <trkpt lat="50.25888" lon="3.49283">
        <ele>99.5</ele>
        <time>2016-10-16T12:50:25.000Z</time>
      </trkpt>
      <trkpt lat="50.25906" lon="3.49296">
        <ele>97.4</ele>
        <time>2016-10-16T12:50:28.000Z</time>
      </trkpt>
      <trkpt lat="50.25948" lon="3.49339">
        <ele>97.1</ele>
        <time>2016-10-16T12:50:34.000Z</time>
      </trkpt>
      <trkpt lat="50.25967" lon="3.49365">
        <ele>97.6</ele>
        <time>2016-10-16T12:50:37.000Z</time>
      </trkpt>
      <trkpt lat="50.26007" lon="3.49387">
        <ele>101.1</ele>
        <time>2016-10-16T12:50:43.000Z</time>
      </trkpt>
      <trkpt lat="50.26051" lon="3.49425">
        <ele>103.4</ele>
        <time>2016-10-16T12:50:49.000Z</time>
      </trkpt>
      <trkpt lat="50.26084" lon="3.49454">
        <ele>103</ele>
        <time>2016-10-16T12:50:55.000Z</time>
      </trkpt>
      <trkpt lat="50.26097" lon="3.49481">
        <ele>102.6</ele>
        <time>2016-10-16T12:50:58.000Z</time>
      </trkpt>
      <trkpt lat="50.26119" lon="3.49524">
        <ele>101</ele>
        <time>2016-10-16T12:51:04.000Z</time>
      </trkpt>
      <trkpt lat="50.26142" lon="3.4954">
        <ele>100.7</ele>
        <time>2016-10-16T12:51:10.000Z</time>
      </trkpt>
      <trkpt lat="50.26184" lon="3.49578">
        <ele>101.7</ele>
        <time>2016-10-16T12:51:16.000Z</time>
      </trkpt>
      <trkpt lat="50.26202" lon="3.49585">
        <ele>99.6</ele>
        <time>2016-10-16T12:51:19.000Z</time>
      </trkpt>
      <trkpt lat="50.26228" lon="3.49606">
        <ele>99</ele>
        <time>2016-10-16T12:51:22.000Z</time>
      </trkpt>
      <trkpt lat="50.26275" lon="3.49637">
        <ele>104.1</ele>
        <time>2016-10-16T12:51:28.000Z</time>
      </trkpt>
      <trkpt lat="50.26291" lon="3.4964">
        <ele>103.8</ele>
        <time>2016-10-16T12:51:31.000Z</time>
      </trkpt>
      <trkpt lat="50.26339" lon="3.49668">
        <ele>106.1</ele>
        <time>2016-10-16T12:51:37.000Z</time>
      </trkpt>
      <trkpt lat="50.26392" lon="3.49708">
        <ele>97.3</ele>
        <time>2016-10-16T12:51:43.000Z</time>
      </trkpt>
      <trkpt lat="50.26421" lon="3.49775">
        <ele>95.7</ele>
        <time>2016-10-16T12:51:49.000Z</time>
      </trkpt>
      <trkpt lat="50.26437" lon="3.49815">
        <ele>92.5</ele>
        <time>2016-10-16T12:51:52.000Z</time>
      </trkpt>
      <trkpt lat="50.26462" lon="3.49863">
        <ele>92.8</ele>
        <time>2016-10-16T12:51:58.000Z</time>
      </trkpt>
      <trkpt lat="50.265" lon="3.49901">
        <ele>96.7</ele>
        <time>2016-10-16T12:52:04.000Z</time>
      </trkpt>
      <trkpt lat="50.26518" lon="3.4991">
        <ele>99.3</ele>
        <time>2016-10-16T12:52:07.000Z</time>
      </trkpt>
      <trkpt lat="50.26562" lon="3.4994">
        <ele>98.3</ele>
        <time>2016-10-16T12:52:13.000Z</time>
      </trkpt>
      <trkpt lat="50.26605" lon="3.49948">
        <ele>96.8</ele>
        <time>2016-10-16T12:52:20.000Z</time>
      </trkpt>
      <trkpt lat="50.26646" lon="3.49977">
        <ele>92.5</ele>
        <time>2016-10-16T12:52:26.000Z</time>
      </trkpt>
      <trkpt lat="50.26674" lon="3.50023">
        <ele>92</ele>
        <time>2016-10-16T12:52:33.000Z</time>
      </trkpt>
      <trkpt lat="50.26703" lon="3.50041">
        <ele>91.3</ele>
        <time>2016-10-16T12:52:39.000Z</time>
      </trkpt>
      <trkpt lat="50.26723" lon="3.50076">
        <ele>88.8</ele>
        <time>2016-10-16T12:52:45.000Z</time>
      </trkpt>
      <trkpt lat="50.26734" lon="3.50091">
        <ele>87.6</ele>
        <time>2016-10-16T12:52:48.000Z</time>
      </trkpt>
      <trkpt lat="50.26757" lon="3.50109">
        <ele>92.6</ele>
        <time>2016-10-16T12:52:54.000Z</time>
      </trkpt>
      <trkpt lat="50.26765" lon="3.50109">
        <ele>93.3</ele>
        <time>2016-10-16T12:52:57.000Z</time>
      </trkpt>
      <trkpt lat="50.26774" lon="3.50113">
        <ele>93.5</ele>
        <time>2016-10-16T12:52:59.999Z</time>
      </trkpt>
      <trkpt lat="50.26802" lon="3.50139">
        <ele>93.5</ele>
        <time>2016-10-16T12:53:06.000Z</time>
      </trkpt>
      <trkpt lat="50.26825" lon="3.50156">
        <ele>96.3</ele>
        <time>2016-10-16T12:53:12.000Z</time>
      </trkpt>
      <trkpt lat="50.26832" lon="3.50167">
        <ele>96.6</ele>
        <time>2016-10-16T12:53:15.000Z</time>
      </trkpt>
      <trkpt lat="50.26859" lon="3.50187">
        <ele>95.5</ele>
        <time>2016-10-16T12:53:21.000Z</time>
      </trkpt>
      <trkpt lat="50.26889" lon="3.50202">
        <ele>94.2</ele>
        <time>2016-10-16T12:53:27.000Z</time>
      </trkpt>
      <trkpt lat="50.26899" lon="3.50215">
        <ele>100.3</ele>
        <time>2016-10-16T12:53:39.000Z</time>
      </trkpt>
      <trkpt lat="50.26918" lon="3.50246">
        <ele>102.4</ele>
        <time>2016-10-16T12:53:45.000Z</time>
      </trkpt>
      <trkpt lat="50.26936" lon="3.50267">
        <ele>99.6</ele>
        <time>2016-10-16T12:53:51.000Z</time>
      </trkpt>
      <trkpt lat="50.26945" lon="3.50277">
        <ele>100.4</ele>
        <time>2016-10-16T12:53:54.000Z</time>
      </trkpt>
      <trkpt lat="50.26969" lon="3.50295">
        <ele>105.5</ele>
        <time>2016-10-16T12:54:00.000Z</time>
      </trkpt>
      <trkpt lat="50.2697" lon="3.50306">
        <ele>105.1</ele>
        <time>2016-10-16T12:54:03.000Z</time>
      </trkpt>
      <trkpt lat="50.26988" lon="3.50318">
        <ele>104.9</ele>
        <time>2016-10-16T12:54:09.000Z</time>
      </trkpt>
      <trkpt lat="50.27006" lon="3.50333">
        <ele>105.2</ele>
        <time>2016-10-16T12:54:15.000Z</time>
      </trkpt>
      <trkpt lat="50.27016" lon="3.50347">
        <ele>109.2</ele>
        <time>2016-10-16T12:54:21.000Z</time>
      </trkpt>
      <trkpt lat="50.27031" lon="3.50357">
        <ele>107.1</ele>
        <time>2016-10-16T12:54:24.000Z</time>
      </trkpt>
      <trkpt lat="50.27054" lon="3.5037">
        <ele>101.6</ele>
        <time>2016-10-16T12:54:30.000Z</time>
      </trkpt>
      <trkpt lat="50.27054" lon="3.50387">
        <ele>110.1</ele>
        <time>2016-10-16T12:54:33.000Z</time>
      </trkpt>
      <trkpt lat="50.27077" lon="3.50414">
        <ele>108.6</ele>
        <time>2016-10-16T12:54:39.000Z</time>
      </trkpt>
      <trkpt lat="50.27102" lon="3.50437">
        <ele>104.3</ele>
        <time>2016-10-16T12:54:45.000Z</time>
      </trkpt>
      <trkpt lat="50.27118" lon="3.50449">
        <ele>104.3</ele>
        <time>2016-10-16T12:54:49.000Z</time>
      </trkpt>
      <trkpt lat="50.27136" lon="3.50462">
        <ele>107.5</ele>
        <time>2016-10-16T12:54:53.000Z</time>
      </trkpt>
      <trkpt lat="50.27151" lon="3.50484">
        <ele>111.4</ele>
        <time>2016-10-16T12:54:59.000Z</time>
      </trkpt>
      <trkpt lat="50.27177" lon="3.5051">
        <ele>114.4</ele>
        <time>2016-10-16T12:55:05.000Z</time>
      </trkpt>
      <trkpt lat="50.27206" lon="3.50543">
        <ele>118.5</ele>
        <time>2016-10-16T12:55:11.000Z</time>
      </trkpt>
      <trkpt lat="50.27237" lon="3.50558">
        <ele>120.2</ele>
        <time>2016-10-16T12:55:17.000Z</time>
      </trkpt>
      <trkpt lat="50.27255" lon="3.50563">
        <ele>122.2</ele>
        <time>2016-10-16T12:55:23.000Z</time>
      </trkpt>
      <trkpt lat="50.2728" lon="3.50581">
        <ele>125.5</ele>
        <time>2016-10-16T12:55:29.000Z</time>
      </trkpt>
      <trkpt lat="50.27295" lon="3.50598">
        <ele>126.5</ele>
        <time>2016-10-16T12:55:32.000Z</time>
      </trkpt>
      <trkpt lat="50.27335" lon="3.50629">
        <ele>130.8</ele>
        <time>2016-10-16T12:55:38.000Z</time>
      </trkpt>
      <trkpt lat="50.27344" lon="3.50636">
        <ele>131.2</ele>
        <time>2016-10-16T12:55:41.000Z</time>
      </trkpt>
      <trkpt lat="50.27364" lon="3.50641">
        <ele>129.6</ele>
        <time>2016-10-16T12:55:44.000Z</time>
      </trkpt>
      <trkpt lat="50.27401" lon="3.50658">
        <ele>129.6</ele>
        <time>2016-10-16T12:55:50.000Z</time>
      </trkpt>
      <trkpt lat="50.27418" lon="3.50695">
        <ele>127.3</ele>
        <time>2016-10-16T12:55:56.000Z</time>
      </trkpt>
      <trkpt lat="50.27442" lon="3.50721">
        <ele>125.8</ele>
        <time>2016-10-16T12:56:02.000Z</time>
      </trkpt>
      <trkpt lat="50.27469" lon="3.5071">
        <ele>126.1</ele>
        <time>2016-10-16T12:56:05.000Z</time>
      </trkpt>
      <trkpt lat="50.27486" lon="3.50708">
        <ele>123.4</ele>
        <time>2016-10-16T12:56:08.000Z</time>
      </trkpt>
      <trkpt lat="50.2749" lon="3.50732">
        <ele>123.1</ele>
        <time>2016-10-16T12:56:11.000Z</time>
      </trkpt>
      <trkpt lat="50.27515" lon="3.50752">
        <ele>117.6</ele>
        <time>2016-10-16T12:56:17.000Z</time>
      </trkpt>
      <trkpt lat="50.27533" lon="3.5076">
        <ele>114.5</ele>
        <time>2016-10-16T12:56:20.000Z</time>
      </trkpt>
      <trkpt lat="50.27548" lon="3.50769">
        <ele>108.4</ele>
        <time>2016-10-16T12:56:23.000Z</time>
      </trkpt>
      <trkpt lat="50.2757" lon="3.50782">
        <ele>107.9</ele>
        <time>2016-10-16T12:56:29.000Z</time>
      </trkpt>
      <trkpt lat="50.27582" lon="3.50788">
        <ele>109.8</ele>
        <time>2016-10-16T12:56:32.000Z</time>
      </trkpt>
      <trkpt lat="50.2761" lon="3.50804">
        <ele>109.9</ele>
        <time>2016-10-16T12:56:38.000Z</time>
      </trkpt>
      <trkpt lat="50.27629" lon="3.50814">
        <ele>107.3</ele>
        <time>2016-10-16T12:56:41.000Z</time>
      </trkpt>
      <trkpt lat="50.27664" lon="3.50838">
        <ele>106.5</ele>
        <time>2016-10-16T12:56:47.000Z</time>
      </trkpt>
      <trkpt lat="50.27683" lon="3.50853">
        <ele>104.5</ele>
        <time>2016-10-16T12:56:50.000Z</time>
      </trkpt>
      <trkpt lat="50.27697" lon="3.50865">
        <ele>105.2</ele>
        <time>2016-10-16T12:56:53.000Z</time>
      </trkpt>
      <trkpt lat="50.2771" lon="3.50866">
        <ele>107.7</ele>
        <time>2016-10-16T12:56:56.000Z</time>
      </trkpt>
      <trkpt lat="50.2773" lon="3.50854">
        <ele>104.4</ele>
        <time>2016-10-16T12:57:02.000Z</time>
      </trkpt>
      <trkpt lat="50.27738" lon="3.50855">
        <ele>105.1</ele>
        <time>2016-10-16T12:57:05.000Z</time>
      </trkpt>
      <trkpt lat="50.2775" lon="3.50856">
        <ele>103.6</ele>
        <time>2016-10-16T12:57:08.000Z</time>
      </trkpt>
      <trkpt lat="50.27782" lon="3.50859">
        <ele>106</ele>
        <time>2016-10-16T12:57:14.000Z</time>
      </trkpt>
      <trkpt lat="50.27825" lon="3.5085">
        <ele>108.8</ele>
        <time>2016-10-16T12:57:20.000Z</time>
      </trkpt>
      <trkpt lat="50.2785" lon="3.50857">
        <ele>108.8</ele>
        <time>2016-10-16T12:57:23.000Z</time>
      </trkpt>
      <trkpt lat="50.27906" lon="3.50855">
        <ele>108.3</ele>
        <time>2016-10-16T12:57:29.000Z</time>
      </trkpt>
      <trkpt lat="50.27954" lon="3.50846">
        <ele>111.7</ele>
        <time>2016-10-16T12:57:35.000Z</time>
      </trkpt>
      <trkpt lat="50.28004" lon="3.50842">
        <ele>106</ele>
        <time>2016-10-16T12:57:41.000Z</time>
      </trkpt>
      <trkpt lat="50.28028" lon="3.50839">
        <ele>103.5</ele>
        <time>2016-10-16T12:57:44.000Z</time>
      </trkpt>
      <trkpt lat="50.28066" lon="3.50879">
        <ele>108.5</ele>
        <time>2016-10-16T12:57:50.000Z</time>
      </trkpt>
      <trkpt lat="50.28087" lon="3.50886">
        <ele>108</ele>
        <time>2016-10-16T12:57:53.000Z</time>
      </trkpt>
      <trkpt lat="50.28109" lon="3.50904">
        <ele>109.8</ele>
        <time>2016-10-16T12:57:56.000Z</time>
      </trkpt>
      <trkpt lat="50.28149" lon="3.50893">
        <ele>113.4</ele>
        <time>2016-10-16T12:58:02.000Z</time>
      </trkpt>
      <trkpt lat="50.28188" lon="3.50877">
        <ele>110.8</ele>
        <time>2016-10-16T12:58:08.000Z</time>
      </trkpt>
      <trkpt lat="50.28215" lon="3.50885">
        <ele>107.4</ele>
        <time>2016-10-16T12:58:11.000Z</time>
      </trkpt>
      <trkpt lat="50.28262" lon="3.50898">
        <ele>106.3</ele>
        <time>2016-10-16T12:58:17.000Z</time>
      </trkpt>
      <trkpt lat="50.28277" lon="3.50905">
        <ele>108.1</ele>
        <time>2016-10-16T12:58:20.000Z</time>
      </trkpt>
      <trkpt lat="50.28298" lon="3.50936">
        <ele>111.3</ele>
        <time>2016-10-16T12:58:26.000Z</time>
      </trkpt>
      <trkpt lat="50.28313" lon="3.50986">
        <ele>111.4</ele>
        <time>2016-10-16T12:58:32.000Z</time>
      </trkpt>
      <trkpt lat="50.28321" lon="3.51016">
        <ele>118.3</ele>
        <time>2016-10-16T12:58:35.000Z</time>
      </trkpt>
      <trkpt lat="50.28332" lon="3.51063">
        <ele>118.2</ele>
        <time>2016-10-16T12:58:41.000Z</time>
      </trkpt>
      <trkpt lat="50.28334" lon="3.51085">
        <ele>117.9</ele>
        <time>2016-10-16T12:58:44.000Z</time>
      </trkpt>
      <trkpt lat="50.28347" lon="3.5114">
        <ele>114</ele>
        <time>2016-10-16T12:58:50.000Z</time>
      </trkpt>
      <trkpt lat="50.28352" lon="3.51174">
        <ele>109.7</ele>
        <time>2016-10-16T12:58:53.000Z</time>
      </trkpt>
      <trkpt lat="50.28355" lon="3.51197">
        <ele>111</ele>
        <time>2016-10-16T12:58:56.000Z</time>
      </trkpt>
      <trkpt lat="50.28355" lon="3.5123">
        <ele>111.5</ele>
        <time>2016-10-16T12:58:59.000Z</time>
      </trkpt>
      <trkpt lat="50.28356" lon="3.51279">
        <ele>111.4</ele>
        <time>2016-10-16T12:59:05.000Z</time>
      </trkpt>
      <trkpt lat="50.28361" lon="3.51323">
        <ele>116.7</ele>
        <time>2016-10-16T12:59:11.000Z</time>
      </trkpt>
      <trkpt lat="50.28362" lon="3.51347">
        <ele>116.9</ele>
        <time>2016-10-16T12:59:13.999Z</time>
      </trkpt>
      <trkpt lat="50.2836" lon="3.51374">
        <ele>118.1</ele>
        <time>2016-10-16T12:59:17.000Z</time>
      </trkpt>
      <trkpt lat="50.28364" lon="3.51391">
        <ele>118.7</ele>
        <time>2016-10-16T12:59:23.000Z</time>
      </trkpt>
      <trkpt lat="50.28376" lon="3.51411">
        <ele>122.4</ele>
        <time>2016-10-16T12:59:29.000Z</time>
      </trkpt>
      <trkpt lat="50.28383" lon="3.51454">
        <ele>125</ele>
        <time>2016-10-16T12:59:35.000Z</time>
      </trkpt>
      <trkpt lat="50.28398" lon="3.51486">
        <ele>126.1</ele>
        <time>2016-10-16T12:59:41.000Z</time>
      </trkpt>
      <trkpt lat="50.28402" lon="3.51501">
        <ele>124.3</ele>
        <time>2016-10-16T12:59:44.000Z</time>
      </trkpt>
      <trkpt lat="50.28428" lon="3.51534">
        <ele>117.9</ele>
        <time>2016-10-16T12:59:50.000Z</time>
      </trkpt>
      <trkpt lat="50.28433" lon="3.51548">
        <ele>118.4</ele>
        <time>2016-10-16T12:59:53.000Z</time>
      </trkpt>
      <trkpt lat="50.28446" lon="3.51576">
        <ele>121.3</ele>
        <time>2016-10-16T12:59:56.000Z</time>
      </trkpt>
      <trkpt lat="50.28456" lon="3.51615">
        <ele>117.1</ele>
        <time>2016-10-16T13:00:02.000Z</time>
      </trkpt>
      <trkpt lat="50.28467" lon="3.51623">
        <ele>117.9</ele>
        <time>2016-10-16T13:00:05.000Z</time>
      </trkpt>
      <trkpt lat="50.28486" lon="3.51651">
        <ele>121.2</ele>
        <time>2016-10-16T13:00:11.000Z</time>
      </trkpt>
      <trkpt lat="50.28499" lon="3.51672">
        <ele>121.1</ele>
        <time>2016-10-16T13:00:17.000Z</time>
      </trkpt>
      <trkpt lat="50.28531" lon="3.51695">
        <ele>118</ele>
        <time>2016-10-16T13:00:23.000Z</time>
      </trkpt>
      <trkpt lat="50.28555" lon="3.51695">
        <ele>117.8</ele>
        <time>2016-10-16T13:00:26.000Z</time>
      </trkpt>
      <trkpt lat="50.2857" lon="3.51694">
        <ele>117.4</ele>
        <time>2016-10-16T13:00:29.000Z</time>
      </trkpt>
      <trkpt lat="50.28599" lon="3.51701">
        <ele>115.4</ele>
        <time>2016-10-16T13:00:35.000Z</time>
      </trkpt>
      <trkpt lat="50.28639" lon="3.51699">
        <ele>115.2</ele>
        <time>2016-10-16T13:00:41.000Z</time>
      </trkpt>
      <trkpt lat="50.28662" lon="3.51691">
        <ele>112.9</ele>
        <time>2016-10-16T13:00:44.000Z</time>
      </trkpt>
      <trkpt lat="50.28705" lon="3.51683">
        <ele>111.9</ele>
        <time>2016-10-16T13:00:50.000Z</time>
      </trkpt>
      <trkpt lat="50.28745" lon="3.51681">
        <ele>112.5</ele>
        <time>2016-10-16T13:00:56.000Z</time>
      </trkpt>
      <trkpt lat="50.28778" lon="3.51703">
        <ele>112.1</ele>
        <time>2016-10-16T13:01:02.000Z</time>
      </trkpt>
      <trkpt lat="50.2882" lon="3.5172">
        <ele>103.6</ele>
        <time>2016-10-16T13:01:08.000Z</time>
      </trkpt>
      <trkpt lat="50.28864" lon="3.51718">
        <ele>102.6</ele>
        <time>2016-10-16T13:01:14.000Z</time>
      </trkpt>
      <trkpt lat="50.28894" lon="3.51701">
        <ele>110.6</ele>
        <time>2016-10-16T13:01:20.000Z</time>
      </trkpt>
      <trkpt lat="50.28912" lon="3.51676">
        <ele>115.5</ele>
        <time>2016-10-16T13:01:23.000Z</time>
      </trkpt>
      <trkpt lat="50.2893" lon="3.51636">
        <ele>126.1</ele>
        <time>2016-10-16T13:01:29.000Z</time>
      </trkpt>
      <trkpt lat="50.28946" lon="3.51599">
        <ele>127.8</ele>
        <time>2016-10-16T13:01:35.000Z</time>
      </trkpt>
      <trkpt lat="50.2895" lon="3.5158">
        <ele>124.2</ele>
        <time>2016-10-16T13:01:38.000Z</time>
      </trkpt>
      <trkpt lat="50.28976" lon="3.51561">
        <ele>119</ele>
        <time>2016-10-16T13:01:44.000Z</time>
      </trkpt>
      <trkpt lat="50.28981" lon="3.51589">
        <ele>122.7</ele>
        <time>2016-10-16T13:01:47.000Z</time>
      </trkpt>
      <trkpt lat="50.28985" lon="3.51658">
        <ele>124.9</ele>
        <time>2016-10-16T13:01:53.000Z</time>
      </trkpt>
      <trkpt lat="50.28989" lon="3.5169">
        <ele>118.3</ele>
        <time>2016-10-16T13:01:56.000Z</time>
      </trkpt>
      <trkpt lat="50.28997" lon="3.51741">
        <ele>119.2</ele>
        <time>2016-10-16T13:02:02.000Z</time>
      </trkpt>
      <trkpt lat="50.29013" lon="3.51783">
        <ele>129.9</ele>
        <time>2016-10-16T13:02:08.000Z</time>
      </trkpt>
      <trkpt lat="50.29031" lon="3.51854">
        <ele>132.5</ele>
        <time>2016-10-16T13:02:14.000Z</time>
      </trkpt>
      <trkpt lat="50.2902" lon="3.51914">
        <ele>124</ele>
        <time>2016-10-16T13:02:20.000Z</time>
      </trkpt>
      <trkpt lat="50.29013" lon="3.51976">
        <ele>121.3</ele>
        <time>2016-10-16T13:02:26.000Z</time>
      </trkpt>
      <trkpt lat="50.2899" lon="3.52037">
        <ele>120.2</ele>
        <time>2016-10-16T13:02:32.000Z</time>
      </trkpt>
      <trkpt lat="50.28982" lon="3.52053">
        <ele>118.9</ele>
        <time>2016-10-16T13:02:35.000Z</time>
      </trkpt>
      <trkpt lat="50.28976" lon="3.52072">
        <ele>119.3</ele>
        <time>2016-10-16T13:02:38.000Z</time>
      </trkpt>
      <trkpt lat="50.28971" lon="3.52096">
        <ele>119.1</ele>
        <time>2016-10-16T13:02:41.000Z</time>
      </trkpt>
      <trkpt lat="50.28963" lon="3.52128">
        <ele>122.6</ele>
        <time>2016-10-16T13:02:47.000Z</time>
      </trkpt>
      <trkpt lat="50.28968" lon="3.52133">
        <ele>120.5</ele>
        <time>2016-10-16T13:02:53.000Z</time>
      </trkpt>
      <trkpt lat="50.28958" lon="3.52155">
        <ele>117.8</ele>
        <time>2016-10-16T13:02:59.000Z</time>
      </trkpt>
      <trkpt lat="50.28942" lon="3.52203">
        <ele>115.8</ele>
        <time>2016-10-16T13:03:05.000Z</time>
      </trkpt>
      <trkpt lat="50.28936" lon="3.52216">
        <ele>116.1</ele>
        <time>2016-10-16T13:03:08.000Z</time>
      </trkpt>
      <trkpt lat="50.28927" lon="3.52269">
        <ele>111.7</ele>
        <time>2016-10-16T13:03:14.000Z</time>
      </trkpt>
      <trkpt lat="50.28919" lon="3.52314">
        <ele>109.5</ele>
        <time>2016-10-16T13:03:20.000Z</time>
      </trkpt>
      <trkpt lat="50.28906" lon="3.52352">
        <ele>114.2</ele>
        <time>2016-10-16T13:03:26.000Z</time>
      </trkpt>
      <trkpt lat="50.28904" lon="3.52371">
        <ele>118.2</ele>
        <time>2016-10-16T13:03:29.000Z</time>
      </trkpt>
      <trkpt lat="50.28904" lon="3.52412">
        <ele>119.9</ele>
        <time>2016-10-16T13:03:35.000Z</time>
      </trkpt>
      <trkpt lat="50.28903" lon="3.52453">
        <ele>125.3</ele>
        <time>2016-10-16T13:03:41.000Z</time>
      </trkpt>
      <trkpt lat="50.28901" lon="3.5247">
        <ele>124.2</ele>
        <time>2016-10-16T13:03:44.000Z</time>
      </trkpt>
      <trkpt lat="50.28899" lon="3.52496">
        <ele>142.2</ele>
        <time>2016-10-16T13:03:50.000Z</time>
      </trkpt>
      <trkpt lat="50.28901" lon="3.52514">
        <ele>149.1</ele>
        <time>2016-10-16T13:03:53.000Z</time>
      </trkpt>
      <trkpt lat="50.28898" lon="3.52525">
        <ele>150.5</ele>
        <time>2016-10-16T13:03:56.000Z</time>
      </trkpt>
      <trkpt lat="50.28887" lon="3.5256">
        <ele>151.9</ele>
        <time>2016-10-16T13:04:02.000Z</time>
      </trkpt>
      <trkpt lat="50.28885" lon="3.52604">
        <ele>147.2</ele>
        <time>2016-10-16T13:04:08.000Z</time>
      </trkpt>
      <trkpt lat="50.28872" lon="3.52651">
        <ele>145.8</ele>
        <time>2016-10-16T13:04:14.000Z</time>
      </trkpt>
      <trkpt lat="50.28865" lon="3.52686">
        <ele>144.9</ele>
        <time>2016-10-16T13:04:20.000Z</time>
      </trkpt>
      <trkpt lat="50.28856" lon="3.5273">
        <ele>128.4</ele>
        <time>2016-10-16T13:04:26.000Z</time>
      </trkpt>
      <trkpt lat="50.28854" lon="3.52763">
        <ele>137.9</ele>
        <time>2016-10-16T13:04:32.000Z</time>
      </trkpt>
      <trkpt lat="50.28845" lon="3.52796">
        <ele>135.2</ele>
        <time>2016-10-16T13:04:38.000Z</time>
      </trkpt>
      <trkpt lat="50.28841" lon="3.52823">
        <ele>135.5</ele>
        <time>2016-10-16T13:04:44.000Z</time>
      </trkpt>
      <trkpt lat="50.2883" lon="3.52844">
        <ele>143.4</ele>
        <time>2016-10-16T13:04:50.000Z</time>
      </trkpt>
      <trkpt lat="50.28828" lon="3.52863">
        <ele>142.5</ele>
        <time>2016-10-16T13:04:53.000Z</time>
      </trkpt>
      <trkpt lat="50.28825" lon="3.52887">
        <ele>146.5</ele>
        <time>2016-10-16T13:04:59.000Z</time>
      </trkpt>
      <trkpt lat="50.28821" lon="3.52896">
        <ele>147.3</ele>
        <time>2016-10-16T13:05:02.000Z</time>
      </trkpt>
      <trkpt lat="50.28814" lon="3.52914">
        <ele>147.8</ele>
        <time>2016-10-16T13:05:08.000Z</time>
      </trkpt>
      <trkpt lat="50.288" lon="3.52916">
        <ele>146</ele>
        <time>2016-10-16T13:05:11.000Z</time>
      </trkpt>
      <trkpt lat="50.28782" lon="3.52928">
        <ele>147.1</ele>
        <time>2016-10-16T13:05:17.000Z</time>
      </trkpt>
      <trkpt lat="50.28766" lon="3.52936">
        <ele>147.8</ele>
        <time>2016-10-16T13:05:20.000Z</time>
      </trkpt>
      <trkpt lat="50.28739" lon="3.52951">
        <ele>150.4</ele>
        <time>2016-10-16T13:05:26.000Z</time>
      </trkpt>
      <trkpt lat="50.28719" lon="3.52947">
        <ele>154.6</ele>
        <time>2016-10-16T13:05:29.000Z</time>
      </trkpt>
      <trkpt lat="50.28704" lon="3.52956">
        <ele>151.4</ele>
        <time>2016-10-16T13:05:32.000Z</time>
      </trkpt>
      <trkpt lat="50.28676" lon="3.5297">
        <ele>149.4</ele>
        <time>2016-10-16T13:05:38.000Z</time>
      </trkpt>
      <trkpt lat="50.28653" lon="3.52976">
        <ele>158.4</ele>
        <time>2016-10-16T13:05:44.000Z</time>
      </trkpt>
      <trkpt lat="50.28639" lon="3.52977">
        <ele>157</ele>
        <time>2016-10-16T13:05:47.000Z</time>
      </trkpt>
      <trkpt lat="50.28623" lon="3.52976">
        <ele>156.3</ele>
        <time>2016-10-16T13:05:50.000Z</time>
      </trkpt>
      <trkpt lat="50.28593" lon="3.52993">
        <ele>154.1</ele>
        <time>2016-10-16T13:05:56.000Z</time>
      </trkpt>
      <trkpt lat="50.28577" lon="3.53002">
        <ele>153.5</ele>
        <time>2016-10-16T13:05:59.000Z</time>
      </trkpt>
      <trkpt lat="50.28536" lon="3.53004">
        <ele>152.9</ele>
        <time>2016-10-16T13:06:05.000Z</time>
      </trkpt>
      <trkpt lat="50.2851" lon="3.53042">
        <ele>147.6</ele>
        <time>2016-10-16T13:06:11.000Z</time>
      </trkpt>
      <trkpt lat="50.28495" lon="3.53068">
        <ele>148.8</ele>
        <time>2016-10-16T13:06:17.000Z</time>
      </trkpt>
      <trkpt lat="50.28489" lon="3.53068">
        <ele>150.3</ele>
        <time>2016-10-16T13:06:20.000Z</time>
      </trkpt>
      <trkpt lat="50.28482" lon="3.53064">
        <ele>144.1</ele>
        <time>2016-10-16T13:06:32.000Z</time>
      </trkpt>
      <trkpt lat="50.28469" lon="3.5307">
        <ele>145</ele>
        <time>2016-10-16T13:06:38.000Z</time>
      </trkpt>
      <trkpt lat="50.28461" lon="3.53073">
        <ele>146.1</ele>
        <time>2016-10-16T13:06:41.000Z</time>
      </trkpt>
      <trkpt lat="50.28446" lon="3.53074">
        <ele>145.4</ele>
        <time>2016-10-16T13:06:44.000Z</time>
      </trkpt>
      <trkpt lat="50.28421" lon="3.5308">
        <ele>146.2</ele>
        <time>2016-10-16T13:06:50.000Z</time>
      </trkpt>
      <trkpt lat="50.28415" lon="3.53088">
        <ele>147.2</ele>
        <time>2016-10-16T13:06:53.000Z</time>
      </trkpt>
      <trkpt lat="50.28386" lon="3.53106">
        <ele>149.3</ele>
        <time>2016-10-16T13:06:59.000Z</time>
      </trkpt>
      <trkpt lat="50.28363" lon="3.53111">
        <ele>145.3</ele>
        <time>2016-10-16T13:07:05.000Z</time>
      </trkpt>
      <trkpt lat="50.28352" lon="3.53111">
        <ele>147.7</ele>
        <time>2016-10-16T13:07:08.000Z</time>
      </trkpt>
      <trkpt lat="50.28342" lon="3.53111">
        <ele>150.5</ele>
        <time>2016-10-16T13:07:11.000Z</time>
      </trkpt>
      <trkpt lat="50.28324" lon="3.53114">
        <ele>151.9</ele>
        <time>2016-10-16T13:07:14.000Z</time>
      </trkpt>
      <trkpt lat="50.28305" lon="3.53139">
        <ele>143.9</ele>
        <time>2016-10-16T13:07:20.000Z</time>
      </trkpt>
      <trkpt lat="50.28284" lon="3.53154">
        <ele>137.5</ele>
        <time>2016-10-16T13:07:26.000Z</time>
      </trkpt>
      <trkpt lat="50.28258" lon="3.53157">
        <ele>141.7</ele>
        <time>2016-10-16T13:07:32.000Z</time>
      </trkpt>
      <trkpt lat="50.28236" lon="3.53157">
        <ele>146.7</ele>
        <time>2016-10-16T13:07:38.000Z</time>
      </trkpt>
      <trkpt lat="50.28222" lon="3.53164">
        <ele>146.9</ele>
        <time>2016-10-16T13:07:41.000Z</time>
      </trkpt>
      <trkpt lat="50.28201" lon="3.53174">
        <ele>148.1</ele>
        <time>2016-10-16T13:07:47.000Z</time>
      </trkpt>
      <trkpt lat="50.28185" lon="3.53177">
        <ele>147.4</ele>
        <time>2016-10-16T13:07:50.000Z</time>
      </trkpt>
      <trkpt lat="50.28171" lon="3.53182">
        <ele>144.4</ele>
        <time>2016-10-16T13:07:53.000Z</time>
      </trkpt>
      <trkpt lat="50.28159" lon="3.53193">
        <ele>140.2</ele>
        <time>2016-10-16T13:07:56.000Z</time>
      </trkpt>
      <trkpt lat="50.28136" lon="3.53181">
        <ele>141.2</ele>
        <time>2016-10-16T13:08:02.000Z</time>
      </trkpt>
      <trkpt lat="50.28099" lon="3.53199">
        <ele>141.1</ele>
        <time>2016-10-16T13:08:14.000Z</time>
      </trkpt>
      <trkpt lat="50.28091" lon="3.53207">
        <ele>141.7</ele>
        <time>2016-10-16T13:08:17.000Z</time>
      </trkpt>
      <trkpt lat="50.28067" lon="3.53202">
        <ele>135.7</ele>
        <time>2016-10-16T13:08:20.000Z</time>
      </trkpt>
      <trkpt lat="50.28049" lon="3.53227">
        <ele>131.9</ele>
        <time>2016-10-16T13:08:26.000Z</time>
      </trkpt>
      <trkpt lat="50.28027" lon="3.53231">
        <ele>147.9</ele>
        <time>2016-10-16T13:08:32.000Z</time>
      </trkpt>
      <trkpt lat="50.28001" lon="3.53241">
        <ele>148.1</ele>
        <time>2016-10-16T13:08:38.000Z</time>
      </trkpt>
      <trkpt lat="50.27991" lon="3.53246">
        <ele>148.4</ele>
        <time>2016-10-16T13:08:41.000Z</time>
      </trkpt>
      <trkpt lat="50.27969" lon="3.53248">
        <ele>146.7</ele>
        <time>2016-10-16T13:08:47.000Z</time>
      </trkpt>
      <trkpt lat="50.27942" lon="3.53273">
        <ele>145.2</ele>
        <time>2016-10-16T13:08:53.000Z</time>
      </trkpt>
      <trkpt lat="50.2791" lon="3.53278">
        <ele>145.3</ele>
        <time>2016-10-16T13:08:59.000Z</time>
      </trkpt>
      <trkpt lat="50.27877" lon="3.53288">
        <ele>149.4</ele>
        <time>2016-10-16T13:09:08.000Z</time>
      </trkpt>
      <trkpt lat="50.27868" lon="3.53291">
        <ele>150.9</ele>
        <time>2016-10-16T13:09:11.000Z</time>
      </trkpt>
      <trkpt lat="50.27847" lon="3.53312">
        <ele>141.8</ele>
        <time>2016-10-16T13:09:17.000Z</time>
      </trkpt>
      <trkpt lat="50.27834" lon="3.53319">
        <ele>142.9</ele>
        <time>2016-10-16T13:09:20.000Z</time>
      </trkpt>
      <trkpt lat="50.27823" lon="3.53322">
        <ele>147.3</ele>
        <time>2016-10-16T13:09:23.000Z</time>
      </trkpt>
      <trkpt lat="50.27806" lon="3.53329">
        <ele>146.2</ele>
        <time>2016-10-16T13:09:29.000Z</time>
      </trkpt>
      <trkpt lat="50.27795" lon="3.53326">
        <ele>147.9</ele>
        <time>2016-10-16T13:09:32.000Z</time>
      </trkpt>
      <trkpt lat="50.27784" lon="3.53328">
        <ele>148.9</ele>
        <time>2016-10-16T13:09:35.000Z</time>
      </trkpt>
      <trkpt lat="50.27766" lon="3.5334">
        <ele>146.6</ele>
        <time>2016-10-16T13:09:41.000Z</time>
      </trkpt>
      <trkpt lat="50.27742" lon="3.53347">
        <ele>146.7</ele>
        <time>2016-10-16T13:09:47.000Z</time>
      </trkpt>
      <trkpt lat="50.27716" lon="3.53353">
        <ele>145.1</ele>
        <time>2016-10-16T13:09:53.000Z</time>
      </trkpt>
      <trkpt lat="50.27703" lon="3.53368">
        <ele>143</ele>
        <time>2016-10-16T13:09:59.000Z</time>
      </trkpt>
      <trkpt lat="50.27672" lon="3.53372">
        <ele>142.9</ele>
        <time>2016-10-16T13:10:05.000Z</time>
      </trkpt>
      <trkpt lat="50.27646" lon="3.53384">
        <ele>139.7</ele>
        <time>2016-10-16T13:10:11.000Z</time>
      </trkpt>
      <trkpt lat="50.27636" lon="3.53393">
        <ele>138.7</ele>
        <time>2016-10-16T13:10:14.000Z</time>
      </trkpt>
      <trkpt lat="50.27621" lon="3.53393">
        <ele>143</ele>
        <time>2016-10-16T13:10:20.000Z</time>
      </trkpt>
      <trkpt lat="50.2761" lon="3.53398">
        <ele>141.4</ele>
        <time>2016-10-16T13:10:23.000Z</time>
      </trkpt>
      <trkpt lat="50.27596" lon="3.53406">
        <ele>145.1</ele>
        <time>2016-10-16T13:10:26.000Z</time>
      </trkpt>
      <trkpt lat="50.27585" lon="3.53415">
        <ele>148.4</ele>
        <time>2016-10-16T13:10:29.000Z</time>
      </trkpt>
      <trkpt lat="50.2756" lon="3.53418">
        <ele>151.8</ele>
        <time>2016-10-16T13:10:35.000Z</time>
      </trkpt>
      <trkpt lat="50.27534" lon="3.53441">
        <ele>148.8</ele>
        <time>2016-10-16T13:10:41.000Z</time>
      </trkpt>
      <trkpt lat="50.27488" lon="3.53451">
        <ele>151.2</ele>
        <time>2016-10-16T13:10:47.000Z</time>
      </trkpt>
      <trkpt lat="50.27451" lon="3.53465">
        <ele>147.1</ele>
        <time>2016-10-16T13:10:53.000Z</time>
      </trkpt>
      <trkpt lat="50.27433" lon="3.53473">
        <ele>143.4</ele>
        <time>2016-10-16T13:10:56.000Z</time>
      </trkpt>
      <trkpt lat="50.27398" lon="3.53494">
        <ele>140.9</ele>
        <time>2016-10-16T13:11:02.000Z</time>
      </trkpt>
      <trkpt lat="50.27389" lon="3.53508">
        <ele>141.9</ele>
        <time>2016-10-16T13:11:05.000Z</time>
      </trkpt>
      <trkpt lat="50.27363" lon="3.53526">
        <ele>142.3</ele>
        <time>2016-10-16T13:11:11.000Z</time>
      </trkpt>
      <trkpt lat="50.27342" lon="3.53531">
        <ele>141</ele>
        <time>2016-10-16T13:11:14.000Z</time>
      </trkpt>
      <trkpt lat="50.27311" lon="3.53531">
        <ele>141.6</ele>
        <time>2016-10-16T13:11:20.000Z</time>
      </trkpt>
      <trkpt lat="50.27302" lon="3.5353">
        <ele>141.4</ele>
        <time>2016-10-16T13:11:23.000Z</time>
      </trkpt>
      <trkpt lat="50.27281" lon="3.53515">
        <ele>148.4</ele>
        <time>2016-10-16T13:11:29.000Z</time>
      </trkpt>
      <trkpt lat="50.2725" lon="3.53506">
        <ele>144.2</ele>
        <time>2016-10-16T13:11:35.000Z</time>
      </trkpt>
      <trkpt lat="50.27229" lon="3.53502">
        <ele>140.9</ele>
        <time>2016-10-16T13:11:38.000Z</time>
      </trkpt>
      <trkpt lat="50.27209" lon="3.53501">
        <ele>140.1</ele>
        <time>2016-10-16T13:11:41.000Z</time>
      </trkpt>
      <trkpt lat="50.27163" lon="3.535">
        <ele>131.5</ele>
        <time>2016-10-16T13:11:47.000Z</time>
      </trkpt>
      <trkpt lat="50.27136" lon="3.53499">
        <ele>129.8</ele>
        <time>2016-10-16T13:11:53.000Z</time>
      </trkpt>
      <trkpt lat="50.27116" lon="3.53497">
        <ele>127.5</ele>
        <time>2016-10-16T13:11:59.000Z</time>
      </trkpt>
      <trkpt lat="50.27062" lon="3.53492">
        <ele>123.6</ele>
        <time>2016-10-16T13:12:05.000Z</time>
      </trkpt>
      <trkpt lat="50.27048" lon="3.53496">
        <ele>125.8</ele>
        <time>2016-10-16T13:12:08.000Z</time>
      </trkpt>
      <trkpt lat="50.27018" lon="3.53491">
        <ele>127.6</ele>
        <time>2016-10-16T13:12:14.000Z</time>
      </trkpt>
      <trkpt lat="50.26979" lon="3.53479">
        <ele>130.1</ele>
        <time>2016-10-16T13:12:20.000Z</time>
      </trkpt>
      <trkpt lat="50.26961" lon="3.53479">
        <ele>134.8</ele>
        <time>2016-10-16T13:12:23.000Z</time>
      </trkpt>
      <trkpt lat="50.26938" lon="3.53487">
        <ele>137.1</ele>
        <time>2016-10-16T13:12:29.000Z</time>
      </trkpt>
      <trkpt lat="50.26894" lon="3.53477">
        <ele>125.9</ele>
        <time>2016-10-16T13:12:35.000Z</time>
      </trkpt>
      <trkpt lat="50.26851" lon="3.5348">
        <ele>125.6</ele>
        <time>2016-10-16T13:12:44.000Z</time>
      </trkpt>
      <trkpt lat="50.26823" lon="3.53479">
        <ele>125.8</ele>
        <time>2016-10-16T13:12:50.000Z</time>
      </trkpt>
      <trkpt lat="50.26792" lon="3.53467">
        <ele>126.4</ele>
        <time>2016-10-16T13:12:56.000Z</time>
      </trkpt>
      <trkpt lat="50.26785" lon="3.53462">
        <ele>123.6</ele>
        <time>2016-10-16T13:12:59.000Z</time>
      </trkpt>
      <trkpt lat="50.26765" lon="3.53457">
        <ele>128.2</ele>
        <time>2016-10-16T13:13:05.000Z</time>
      </trkpt>
      <trkpt lat="50.26748" lon="3.53444">
        <ele>130.5</ele>
        <time>2016-10-16T13:13:11.000Z</time>
      </trkpt>
      <trkpt lat="50.26735" lon="3.53442">
        <ele>129.4</ele>
        <time>2016-10-16T13:13:14.000Z</time>
      </trkpt>
      <trkpt lat="50.26712" lon="3.53441">
        <ele>131.2</ele>
        <time>2016-10-16T13:13:20.000Z</time>
      </trkpt>
      <trkpt lat="50.26694" lon="3.53435">
        <ele>134.4</ele>
        <time>2016-10-16T13:13:26.000Z</time>
      </trkpt>
      <trkpt lat="50.26683" lon="3.53428">
        <ele>136</ele>
        <time>2016-10-16T13:13:29.000Z</time>
      </trkpt>
      <trkpt lat="50.2667" lon="3.53424">
        <ele>136.1</ele>
        <time>2016-10-16T13:13:32.000Z</time>
      </trkpt>
      <trkpt lat="50.2664" lon="3.53411">
        <ele>137.2</ele>
        <time>2016-10-16T13:13:38.000Z</time>
      </trkpt>
      <trkpt lat="50.26624" lon="3.53408">
        <ele>135.7</ele>
        <time>2016-10-16T13:13:41.000Z</time>
      </trkpt>
      <trkpt lat="50.26605" lon="3.53404">
        <ele>131.6</ele>
        <time>2016-10-16T13:13:44.000Z</time>
      </trkpt>
      <trkpt lat="50.26589" lon="3.53405">
        <ele>133.3</ele>
        <time>2016-10-16T13:13:47.000Z</time>
      </trkpt>
      <trkpt lat="50.26564" lon="3.534">
        <ele>130.7</ele>
        <time>2016-10-16T13:13:53.000Z</time>
      </trkpt>
      <trkpt lat="50.26552" lon="3.53395">
        <ele>130.9</ele>
        <time>2016-10-16T13:13:56.000Z</time>
      </trkpt>
      <trkpt lat="50.26538" lon="3.53386">
        <ele>131.3</ele>
        <time>2016-10-16T13:13:59.000Z</time>
      </trkpt>
      <trkpt lat="50.265" lon="3.53377">
        <ele>123.4</ele>
        <time>2016-10-16T13:14:05.000Z</time>
      </trkpt>
      <trkpt lat="50.26495" lon="3.5337">
        <ele>138</ele>
        <time>2016-10-16T13:14:11.000Z</time>
      </trkpt>
      <trkpt lat="50.26471" lon="3.53372">
        <ele>137.8</ele>
        <time>2016-10-16T13:14:17.000Z</time>
      </trkpt>
      <trkpt lat="50.26455" lon="3.53362">
        <ele>140.1</ele>
        <time>2016-10-16T13:14:20.000Z</time>
      </trkpt>
      <trkpt lat="50.26428" lon="3.53354">
        <ele>143.3</ele>
        <time>2016-10-16T13:14:26.000Z</time>
      </trkpt>
      <trkpt lat="50.26393" lon="3.53348">
        <ele>145.2</ele>
        <time>2016-10-16T13:14:32.000Z</time>
      </trkpt>
      <trkpt lat="50.2637" lon="3.53341">
        <ele>147</ele>
        <time>2016-10-16T13:14:38.000Z</time>
      </trkpt>
      <trkpt lat="50.26349" lon="3.53333">
        <ele>149.1</ele>
        <time>2016-10-16T13:14:44.000Z</time>
      </trkpt>
      <trkpt lat="50.26334" lon="3.53334">
        <ele>149.5</ele>
        <time>2016-10-16T13:14:47.000Z</time>
      </trkpt>
      <trkpt lat="50.26319" lon="3.53329">
        <ele>147.1</ele>
        <time>2016-10-16T13:14:53.000Z</time>
      </trkpt>
      <trkpt lat="50.26298" lon="3.53325">
        <ele>148.3</ele>
        <time>2016-10-16T13:14:59.000Z</time>
      </trkpt>
      <trkpt lat="50.26285" lon="3.5332">
        <ele>148.2</ele>
        <time>2016-10-16T13:15:02.000Z</time>
      </trkpt>
      <trkpt lat="50.2627" lon="3.53312">
        <ele>143</ele>
        <time>2016-10-16T13:15:05.000Z</time>
      </trkpt>
      <trkpt lat="50.26243" lon="3.53292">
        <ele>147.8</ele>
        <time>2016-10-16T13:15:11.000Z</time>
      </trkpt>
      <trkpt lat="50.26218" lon="3.53294">
        <ele>147</ele>
        <time>2016-10-16T13:15:17.000Z</time>
      </trkpt>
      <trkpt lat="50.26209" lon="3.53288">
        <ele>151.5</ele>
        <time>2016-10-16T13:15:20.000Z</time>
      </trkpt>
      <trkpt lat="50.26207" lon="3.53298">
        <ele>150.7</ele>
        <time>2016-10-16T13:15:23.000Z</time>
      </trkpt>
      <trkpt lat="50.26188" lon="3.53313">
        <ele>139.5</ele>
        <time>2016-10-16T13:15:29.000Z</time>
      </trkpt>
      <trkpt lat="50.26185" lon="3.53351">
        <ele>141</ele>
        <time>2016-10-16T13:15:35.000Z</time>
      </trkpt>
      <trkpt lat="50.26196" lon="3.53377">
        <ele>141.5</ele>
        <time>2016-10-16T13:15:38.000Z</time>
      </trkpt>
      <trkpt lat="50.26225" lon="3.53435">
        <ele>127.2</ele>
        <time>2016-10-16T13:15:44.000Z</time>
      </trkpt>
      <trkpt lat="50.26231" lon="3.5348">
        <ele>129.5</ele>
        <time>2016-10-16T13:15:50.000Z</time>
      </trkpt>
      <trkpt lat="50.26246" lon="3.53532">
        <ele>131</ele>
        <time>2016-10-16T13:15:56.000Z</time>
      </trkpt>
      <trkpt lat="50.26271" lon="3.53593">
        <ele>128.7</ele>
        <time>2016-10-16T13:16:02.000Z</time>
      </trkpt>
      <trkpt lat="50.26282" lon="3.53658">
        <ele>127.9</ele>
        <time>2016-10-16T13:16:08.000Z</time>
      </trkpt>
      <trkpt lat="50.2629" lon="3.53691">
        <ele>126.9</ele>
        <time>2016-10-16T13:16:11.000Z</time>
      </trkpt>
      <trkpt lat="50.26308" lon="3.53745">
        <ele>129.2</ele>
        <time>2016-10-16T13:16:17.000Z</time>
      </trkpt>
      <trkpt lat="50.26326" lon="3.53796">
        <ele>127.1</ele>
        <time>2016-10-16T13:16:23.000Z</time>
      </trkpt>
      <trkpt lat="50.26333" lon="3.53835">
        <ele>135.1</ele>
        <time>2016-10-16T13:16:29.000Z</time>
      </trkpt>
      <trkpt lat="50.26348" lon="3.5389">
        <ele>132.7</ele>
        <time>2016-10-16T13:16:35.000Z</time>
      </trkpt>
      <trkpt lat="50.26361" lon="3.53917">
        <ele>132.7</ele>
        <time>2016-10-16T13:16:38.000Z</time>
      </trkpt>
      <trkpt lat="50.26382" lon="3.5397">
        <ele>131.9</ele>
        <time>2016-10-16T13:16:44.000Z</time>
      </trkpt>
      <trkpt lat="50.26382" lon="3.53985">
        <ele>132.8</ele>
        <time>2016-10-16T13:16:47.000Z</time>
      </trkpt>
      <trkpt lat="50.26399" lon="3.54036">
        <ele>130.2</ele>
        <time>2016-10-16T13:16:53.000Z</time>
      </trkpt>
      <trkpt lat="50.26409" lon="3.54061">
        <ele>130.8</ele>
        <time>2016-10-16T13:16:56.000Z</time>
      </trkpt>
      <trkpt lat="50.26421" lon="3.54119">
        <ele>133.7</ele>
        <time>2016-10-16T13:17:02.000Z</time>
      </trkpt>
      <trkpt lat="50.26431" lon="3.54148">
        <ele>132.9</ele>
        <time>2016-10-16T13:17:05.000Z</time>
      </trkpt>
      <trkpt lat="50.26442" lon="3.54179">
        <ele>134.9</ele>
        <time>2016-10-16T13:17:08.000Z</time>
      </trkpt>
      <trkpt lat="50.26461" lon="3.54257">
        <ele>132</ele>
        <time>2016-10-16T13:17:14.000Z</time>
      </trkpt>
      <trkpt lat="50.26457" lon="3.54294">
        <ele>129.2</ele>
        <time>2016-10-16T13:17:17.000Z</time>
      </trkpt>
      <trkpt lat="50.26458" lon="3.54327">
        <ele>128.2</ele>
        <time>2016-10-16T13:17:20.000Z</time>
      </trkpt>
      <trkpt lat="50.26473" lon="3.54403">
        <ele>122.6</ele>
        <time>2016-10-16T13:17:26.000Z</time>
      </trkpt>
      <trkpt lat="50.2648" lon="3.54439">
        <ele>123.3</ele>
        <time>2016-10-16T13:17:29.000Z</time>
      </trkpt>
      <trkpt lat="50.26483" lon="3.54499">
        <ele>118.8</ele>
        <time>2016-10-16T13:17:35.000Z</time>
      </trkpt>
      <trkpt lat="50.26489" lon="3.54528">
        <ele>121.2</ele>
        <time>2016-10-16T13:17:38.000Z</time>
      </trkpt>
      <trkpt lat="50.26503" lon="3.54571">
        <ele>126.6</ele>
        <time>2016-10-16T13:17:44.000Z</time>
      </trkpt>
      <trkpt lat="50.26505" lon="3.54597">
        <ele>125.3</ele>
        <time>2016-10-16T13:17:47.000Z</time>
      </trkpt>
      <trkpt lat="50.26514" lon="3.54653">
        <ele>124</ele>
        <time>2016-10-16T13:17:53.000Z</time>
      </trkpt>
      <trkpt lat="50.2652" lon="3.54677">
        <ele>122.8</ele>
        <time>2016-10-16T13:17:56.000Z</time>
      </trkpt>
      <trkpt lat="50.26538" lon="3.54733">
        <ele>122.1</ele>
        <time>2016-10-16T13:18:02.000Z</time>
      </trkpt>
      <trkpt lat="50.26544" lon="3.54771">
        <ele>118.9</ele>
        <time>2016-10-16T13:18:08.000Z</time>
      </trkpt>
      <trkpt lat="50.26546" lon="3.54799">
        <ele>117.9</ele>
        <time>2016-10-16T13:18:11.000Z</time>
      </trkpt>
      <trkpt lat="50.26554" lon="3.54822">
        <ele>118.5</ele>
        <time>2016-10-16T13:18:14.000Z</time>
      </trkpt>
      <trkpt lat="50.26558" lon="3.54859">
        <ele>121</ele>
        <time>2016-10-16T13:18:20.000Z</time>
      </trkpt>
      <trkpt lat="50.26566" lon="3.54888">
        <ele>124</ele>
        <time>2016-10-16T13:18:26.000Z</time>
      </trkpt>
      <trkpt lat="50.26571" lon="3.54911">
        <ele>123.8</ele>
        <time>2016-10-16T13:18:29.000Z</time>
      </trkpt>
      <trkpt lat="50.26588" lon="3.54963">
        <ele>120.8</ele>
        <time>2016-10-16T13:18:35.000Z</time>
      </trkpt>
      <trkpt lat="50.26589" lon="3.54976">
        <ele>123.3</ele>
        <time>2016-10-16T13:18:38.000Z</time>
      </trkpt>
      <trkpt lat="50.26584" lon="3.54995">
        <ele>128.3</ele>
        <time>2016-10-16T13:18:41.000Z</time>
      </trkpt>
      <trkpt lat="50.2659" lon="3.55012">
        <ele>131.7</ele>
        <time>2016-10-16T13:18:44.000Z</time>
      </trkpt>
      <trkpt lat="50.26589" lon="3.55039">
        <ele>131.6</ele>
        <time>2016-10-16T13:18:50.000Z</time>
      </trkpt>
      <trkpt lat="50.26601" lon="3.55065">
        <ele>130.7</ele>
        <time>2016-10-16T13:18:53.000Z</time>
      </trkpt>
      <trkpt lat="50.26603" lon="3.55095">
        <ele>131.4</ele>
        <time>2016-10-16T13:18:59.000Z</time>
      </trkpt>
      <trkpt lat="50.2661" lon="3.55118">
        <ele>130.6</ele>
        <time>2016-10-16T13:19:02.000Z</time>
      </trkpt>
      <trkpt lat="50.26614" lon="3.55149">
        <ele>130.5</ele>
        <time>2016-10-16T13:19:08.000Z</time>
      </trkpt>
      <trkpt lat="50.2662" lon="3.55165">
        <ele>127.3</ele>
        <time>2016-10-16T13:19:11.000Z</time>
      </trkpt>
      <trkpt lat="50.26624" lon="3.55184">
        <ele>128.8</ele>
        <time>2016-10-16T13:19:14.000Z</time>
      </trkpt>
      <trkpt lat="50.26628" lon="3.55219">
        <ele>134.6</ele>
        <time>2016-10-16T13:19:20.000Z</time>
      </trkpt>
      <trkpt lat="50.26643" lon="3.55269">
        <ele>127.3</ele>
        <time>2016-10-16T13:19:26.000Z</time>
      </trkpt>
      <trkpt lat="50.26649" lon="3.5529">
        <ele>129.5</ele>
        <time>2016-10-16T13:19:29.000Z</time>
      </trkpt>
      <trkpt lat="50.26647" lon="3.55308">
        <ele>129.5</ele>
        <time>2016-10-16T13:19:32.000Z</time>
      </trkpt>
      <trkpt lat="50.26658" lon="3.55343">
        <ele>129.8</ele>
        <time>2016-10-16T13:19:38.000Z</time>
      </trkpt>
      <trkpt lat="50.26667" lon="3.55386">
        <ele>127.5</ele>
        <time>2016-10-16T13:19:44.000Z</time>
      </trkpt>
      <trkpt lat="50.26678" lon="3.55427">
        <ele>126.7</ele>
        <time>2016-10-16T13:19:50.000Z</time>
      </trkpt>
      <trkpt lat="50.26693" lon="3.55466">
        <ele>127.2</ele>
        <time>2016-10-16T13:19:56.000Z</time>
      </trkpt>
      <trkpt lat="50.26696" lon="3.55488">
        <ele>130.1</ele>
        <time>2016-10-16T13:19:59.000Z</time>
      </trkpt>
      <trkpt lat="50.26692" lon="3.55507">
        <ele>131.9</ele>
        <time>2016-10-16T13:20:02.000Z</time>
      </trkpt>
      <trkpt lat="50.26695" lon="3.55554">
        <ele>130.8</ele>
        <time>2016-10-16T13:20:08.000Z</time>
      </trkpt>
      <trkpt lat="50.26699" lon="3.55586">
        <ele>132.6</ele>
        <time>2016-10-16T13:20:11.000Z</time>
      </trkpt>
      <trkpt lat="50.26706" lon="3.55611">
        <ele>130.8</ele>
        <time>2016-10-16T13:20:14.000Z</time>
      </trkpt>
      <trkpt lat="50.2672" lon="3.5566">
        <ele>130.7</ele>
        <time>2016-10-16T13:20:20.000Z</time>
      </trkpt>
      <trkpt lat="50.26724" lon="3.5569">
        <ele>130.6</ele>
        <time>2016-10-16T13:20:23.000Z</time>
      </trkpt>
      <trkpt lat="50.26738" lon="3.55745">
        <ele>134.2</ele>
        <time>2016-10-16T13:20:29.000Z</time>
      </trkpt>
      <trkpt lat="50.26752" lon="3.55805">
        <ele>131.1</ele>
        <time>2016-10-16T13:20:35.000Z</time>
      </trkpt>
      <trkpt lat="50.26756" lon="3.55836">
        <ele>128.2</ele>
        <time>2016-10-16T13:20:38.000Z</time>
      </trkpt>
      <trkpt lat="50.26767" lon="3.559">
        <ele>120.6</ele>
        <time>2016-10-16T13:20:44.000Z</time>
      </trkpt>
      <trkpt lat="50.26776" lon="3.5593">
        <ele>123.3</ele>
        <time>2016-10-16T13:20:47.000Z</time>
      </trkpt>
      <trkpt lat="50.26781" lon="3.55977">
        <ele>127.1</ele>
        <time>2016-10-16T13:20:53.000Z</time>
      </trkpt>
      <trkpt lat="50.26785" lon="3.56012">
        <ele>127.2</ele>
        <time>2016-10-16T13:20:56.000Z</time>
      </trkpt>
      <trkpt lat="50.26788" lon="3.56038">
        <ele>127.3</ele>
        <time>2016-10-16T13:20:59.000Z</time>
      </trkpt>
      <trkpt lat="50.26808" lon="3.56098">
        <ele>125.8</ele>
        <time>2016-10-16T13:21:05.000Z</time>
      </trkpt>
      <trkpt lat="50.26821" lon="3.56148">
        <ele>125.7</ele>
        <time>2016-10-16T13:21:11.000Z</time>
      </trkpt>
      <trkpt lat="50.26828" lon="3.56212">
        <ele>123.6</ele>
        <time>2016-10-16T13:21:17.000Z</time>
      </trkpt>
      <trkpt lat="50.26836" lon="3.56256">
        <ele>131.2</ele>
        <time>2016-10-16T13:21:23.000Z</time>
      </trkpt>
      <trkpt lat="50.26842" lon="3.56281">
        <ele>132.8</ele>
        <time>2016-10-16T13:21:26.000Z</time>
      </trkpt>
      <trkpt lat="50.26843" lon="3.56302">
        <ele>131.6</ele>
        <time>2016-10-16T13:21:29.000Z</time>
      </trkpt>
      <trkpt lat="50.26846" lon="3.56318">
        <ele>134.6</ele>
        <time>2016-10-16T13:21:32.000Z</time>
      </trkpt>
      <trkpt lat="50.26854" lon="3.56345">
        <ele>137.8</ele>
        <time>2016-10-16T13:21:35.000Z</time>
      </trkpt>
      <trkpt lat="50.2686" lon="3.56393">
        <ele>138.5</ele>
        <time>2016-10-16T13:21:41.000Z</time>
      </trkpt>
      <trkpt lat="50.26873" lon="3.56438">
        <ele>141</ele>
        <time>2016-10-16T13:21:47.000Z</time>
      </trkpt>
      <trkpt lat="50.26894" lon="3.56495">
        <ele>134.8</ele>
        <time>2016-10-16T13:21:53.000Z</time>
      </trkpt>
      <trkpt lat="50.26908" lon="3.56543">
        <ele>126</ele>
        <time>2016-10-16T13:21:59.000Z</time>
      </trkpt>
      <trkpt lat="50.26914" lon="3.56594">
        <ele>125.4</ele>
        <time>2016-10-16T13:22:05.000Z</time>
      </trkpt>
      <trkpt lat="50.2692" lon="3.56646">
        <ele>126.2</ele>
        <time>2016-10-16T13:22:11.000Z</time>
      </trkpt>
      <trkpt lat="50.2693" lon="3.56689">
        <ele>127.2</ele>
        <time>2016-10-16T13:22:17.000Z</time>
      </trkpt>
      <trkpt lat="50.26942" lon="3.56736">
        <ele>125.4</ele>
        <time>2016-10-16T13:22:23.000Z</time>
      </trkpt>
      <trkpt lat="50.26954" lon="3.56766">
        <ele>128.2</ele>
        <time>2016-10-16T13:22:29.000Z</time>
      </trkpt>
      <trkpt lat="50.26956" lon="3.5678">
        <ele>128.3</ele>
        <time>2016-10-16T13:22:32.000Z</time>
      </trkpt>
      <trkpt lat="50.26959" lon="3.56794">
        <ele>133.9</ele>
        <time>2016-10-16T13:22:35.000Z</time>
      </trkpt>
      <trkpt lat="50.26975" lon="3.56853">
        <ele>121.6</ele>
        <time>2016-10-16T13:22:41.000Z</time>
      </trkpt>
      <trkpt lat="50.26986" lon="3.56882">
        <ele>119.7</ele>
        <time>2016-10-16T13:22:44.000Z</time>
      </trkpt>
      <trkpt lat="50.26991" lon="3.56912">
        <ele>120.2</ele>
        <time>2016-10-16T13:22:47.000Z</time>
      </trkpt>
      <trkpt lat="50.26997" lon="3.56969">
        <ele>123</ele>
        <time>2016-10-16T13:22:53.000Z</time>
      </trkpt>
      <trkpt lat="50.27005" lon="3.57027">
        <ele>130.1</ele>
        <time>2016-10-16T13:22:59.000Z</time>
      </trkpt>
      <trkpt lat="50.2701" lon="3.57088">
        <ele>127.9</ele>
        <time>2016-10-16T13:23:05.000Z</time>
      </trkpt>
      <trkpt lat="50.27028" lon="3.57142">
        <ele>129.7</ele>
        <time>2016-10-16T13:23:11.000Z</time>
      </trkpt>
      <trkpt lat="50.27038" lon="3.57186">
        <ele>131.2</ele>
        <time>2016-10-16T13:23:17.000Z</time>
      </trkpt>
      <trkpt lat="50.27045" lon="3.57229">
        <ele>129.3</ele>
        <time>2016-10-16T13:23:23.000Z</time>
      </trkpt>
      <trkpt lat="50.27049" lon="3.57267">
        <ele>126.5</ele>
        <time>2016-10-16T13:23:29.000Z</time>
      </trkpt>
      <trkpt lat="50.27051" lon="3.57275">
        <ele>127.6</ele>
        <time>2016-10-16T13:23:35.000Z</time>
      </trkpt>
      <trkpt lat="50.27054" lon="3.57269">
        <ele>126.4</ele>
        <time>2016-10-16T13:23:38.000Z</time>
      </trkpt>
      <trkpt lat="50.27053" lon="3.57281">
        <ele>117.6</ele>
        <time>2016-10-16T13:23:47.000Z</time>
      </trkpt>
      <trkpt lat="50.27059" lon="3.57311">
        <ele>126.7</ele>
        <time>2016-10-16T13:23:53.000Z</time>
      </trkpt>
      <trkpt lat="50.27058" lon="3.57327">
        <ele>131.4</ele>
        <time>2016-10-16T13:23:56.000Z</time>
      </trkpt>
      <trkpt lat="50.27066" lon="3.57358">
        <ele>134.8</ele>
        <time>2016-10-16T13:24:02.000Z</time>
      </trkpt>
      <trkpt lat="50.2707" lon="3.57386">
        <ele>136.7</ele>
        <time>2016-10-16T13:24:08.000Z</time>
      </trkpt>
      <trkpt lat="50.27076" lon="3.57412">
        <ele>135.7</ele>
        <time>2016-10-16T13:24:14.000Z</time>
      </trkpt>
      <trkpt lat="50.27075" lon="3.57424">
        <ele>144.3</ele>
        <time>2016-10-16T13:24:23.000Z</time>
      </trkpt>
      <trkpt lat="50.27084" lon="3.57461">
        <ele>141.7</ele>
        <time>2016-10-16T13:24:29.000Z</time>
      </trkpt>
      <trkpt lat="50.27086" lon="3.57472">
        <ele>142.2</ele>
        <time>2016-10-16T13:24:32.000Z</time>
      </trkpt>
      <trkpt lat="50.27087" lon="3.57492">
        <ele>143</ele>
        <time>2016-10-16T13:24:35.000Z</time>
      </trkpt>
      <trkpt lat="50.271" lon="3.5752">
        <ele>135.4</ele>
        <time>2016-10-16T13:24:41.000Z</time>
      </trkpt>
      <trkpt lat="50.27105" lon="3.57541">
        <ele>132.3</ele>
        <time>2016-10-16T13:24:44.000Z</time>
      </trkpt>
      <trkpt lat="50.27112" lon="3.57579">
        <ele>128.3</ele>
        <time>2016-10-16T13:24:50.000Z</time>
      </trkpt>
      <trkpt lat="50.27122" lon="3.57616">
        <ele>129.3</ele>
        <time>2016-10-16T13:24:56.000Z</time>
      </trkpt>
      <trkpt lat="50.27129" lon="3.57659">
        <ele>128.4</ele>
        <time>2016-10-16T13:25:02.000Z</time>
      </trkpt>
      <trkpt lat="50.27131" lon="3.57684">
        <ele>128.5</ele>
        <time>2016-10-16T13:25:05.000Z</time>
      </trkpt>
      <trkpt lat="50.27134" lon="3.57713">
        <ele>130.9</ele>
        <time>2016-10-16T13:25:08.000Z</time>
      </trkpt>
      <trkpt lat="50.27147" lon="3.57765">
        <ele>131.6</ele>
        <time>2016-10-16T13:25:14.000Z</time>
      </trkpt>
      <trkpt lat="50.27157" lon="3.57791">
        <ele>127.9</ele>
        <time>2016-10-16T13:25:17.000Z</time>
      </trkpt>
      <trkpt lat="50.27158" lon="3.57809">
        <ele>124.6</ele>
        <time>2016-10-16T13:25:20.000Z</time>
      </trkpt>
      <trkpt lat="50.27162" lon="3.57851">
        <ele>129.4</ele>
        <time>2016-10-16T13:25:26.000Z</time>
      </trkpt>
      <trkpt lat="50.27166" lon="3.57871">
        <ele>130.1</ele>
        <time>2016-10-16T13:25:29.000Z</time>
      </trkpt>
      <trkpt lat="50.27177" lon="3.57923">
        <ele>129.3</ele>
        <time>2016-10-16T13:25:35.000Z</time>
      </trkpt>
      <trkpt lat="50.27196" lon="3.57976">
        <ele>126.5</ele>
        <time>2016-10-16T13:25:41.000Z</time>
      </trkpt>
      <trkpt lat="50.27198" lon="3.58008">
        <ele>125.4</ele>
        <time>2016-10-16T13:25:44.000Z</time>
      </trkpt>
      <trkpt lat="50.27205" lon="3.58036">
        <ele>129</ele>
        <time>2016-10-16T13:25:47.000Z</time>
      </trkpt>
      <trkpt lat="50.2721" lon="3.58067">
        <ele>127.7</ele>
        <time>2016-10-16T13:25:53.000Z</time>
      </trkpt>
      <trkpt lat="50.27219" lon="3.58127">
        <ele>123.8</ele>
        <time>2016-10-16T13:25:59.000Z</time>
      </trkpt>
      <trkpt lat="50.27224" lon="3.58156">
        <ele>118</ele>
        <time>2016-10-16T13:26:02.000Z</time>
      </trkpt>
      <trkpt lat="50.27226" lon="3.58187">
        <ele>117.3</ele>
        <time>2016-10-16T13:26:05.000Z</time>
      </trkpt>
      <trkpt lat="50.2723" lon="3.5822">
        <ele>122.7</ele>
        <time>2016-10-16T13:26:11.000Z</time>
      </trkpt>
      <trkpt lat="50.27228" lon="3.5823">
        <ele>122.4</ele>
        <time>2016-10-16T13:26:14.000Z</time>
      </trkpt>
      <trkpt lat="50.27235" lon="3.58248">
        <ele>125.1</ele>
        <time>2016-10-16T13:26:17.000Z</time>
      </trkpt>
      <trkpt lat="50.27247" lon="3.58271">
        <ele>125.5</ele>
        <time>2016-10-16T13:26:22.998Z</time>
      </trkpt>
      <trkpt lat="50.27254" lon="3.58292">
        <ele>134.9</ele>
        <time>2016-10-16T13:26:29.000Z</time>
      </trkpt>
      <trkpt lat="50.27265" lon="3.58305">
        <ele>133.9</ele>
        <time>2016-10-16T13:26:33.000Z</time>
      </trkpt>
      <trkpt lat="50.27274" lon="3.58319">
        <ele>131.1</ele>
        <time>2016-10-16T13:26:36.000Z</time>
      </trkpt>
      <trkpt lat="50.27271" lon="3.58354">
        <ele>132.8</ele>
        <time>2016-10-16T13:26:39.000Z</time>
      </trkpt>
      <trkpt lat="50.27277" lon="3.58385">
        <ele>134.2</ele>
        <time>2016-10-16T13:26:43.000Z</time>
      </trkpt>
      <trkpt lat="50.27288" lon="3.58436">
        <ele>132.3</ele>
        <time>2016-10-16T13:26:49.000Z</time>
      </trkpt>
      <trkpt lat="50.27314" lon="3.58478">
        <ele>134.2</ele>
        <time>2016-10-16T13:26:55.000Z</time>
      </trkpt>
      <trkpt lat="50.27319" lon="3.58521">
        <ele>134.9</ele>
        <time>2016-10-16T13:27:01.000Z</time>
      </trkpt>
      <trkpt lat="50.27308" lon="3.58545">
        <ele>133.2</ele>
        <time>2016-10-16T13:27:04.000Z</time>
      </trkpt>
      <trkpt lat="50.27316" lon="3.58586">
        <ele>128.4</ele>
        <time>2016-10-16T13:27:10.000Z</time>
      </trkpt>
      <trkpt lat="50.27324" lon="3.5862">
        <ele>130.1</ele>
        <time>2016-10-16T13:27:16.000Z</time>
      </trkpt>
      <trkpt lat="50.27327" lon="3.58626">
        <ele>126.3</ele>
        <time>2016-10-16T13:27:19.000Z</time>
      </trkpt>
      <trkpt lat="50.27329" lon="3.58668">
        <ele>126.1</ele>
        <time>2016-10-16T13:27:28.000Z</time>
      </trkpt>
      <trkpt lat="50.27346" lon="3.5873">
        <ele>125.1</ele>
        <time>2016-10-16T13:27:34.000Z</time>
      </trkpt>
      <trkpt lat="50.27347" lon="3.58764">
        <ele>126.7</ele>
        <time>2016-10-16T13:27:40.000Z</time>
      </trkpt>
      <trkpt lat="50.27339" lon="3.58787">
        <ele>128.7</ele>
        <time>2016-10-16T13:27:46.000Z</time>
      </trkpt>
      <trkpt lat="50.27324" lon="3.58786">
        <ele>130.6</ele>
        <time>2016-10-16T13:27:49.000Z</time>
      </trkpt>
      <trkpt lat="50.27288" lon="3.58794">
        <ele>131.4</ele>
        <time>2016-10-16T13:27:55.000Z</time>
      </trkpt>
      <trkpt lat="50.27278" lon="3.58799">
        <ele>134</ele>
        <time>2016-10-16T13:27:59.000Z</time>
      </trkpt>
      <trkpt lat="50.27247" lon="3.58819">
        <ele>137.5</ele>
        <time>2016-10-16T13:28:05.999Z</time>
      </trkpt>
      <trkpt lat="50.2724" lon="3.5886">
        <ele>140.7</ele>
        <time>2016-10-16T13:28:10.000Z</time>
      </trkpt>
      <trkpt lat="50.2722" lon="3.58875">
        <ele>154.5</ele>
        <time>2016-10-16T13:28:17.000Z</time>
      </trkpt>
      <trkpt lat="50.27214" lon="3.58887">
        <ele>156.5</ele>
        <time>2016-10-16T13:28:20.000Z</time>
      </trkpt>
      <trkpt lat="50.27202" lon="3.58904">
        <ele>157.1</ele>
        <time>2016-10-16T13:28:23.000Z</time>
      </trkpt>
      <trkpt lat="50.27174" lon="3.58945">
        <ele>159.5</ele>
        <time>2016-10-16T13:28:29.000Z</time>
      </trkpt>
      <trkpt lat="50.27166" lon="3.58953">
        <ele>160.2</ele>
        <time>2016-10-16T13:28:33.000Z</time>
      </trkpt>
      <trkpt lat="50.27137" lon="3.58993">
        <ele>161.1</ele>
        <time>2016-10-16T13:28:37.000Z</time>
      </trkpt>
      <trkpt lat="50.27119" lon="3.59014">
        <ele>161.5</ele>
        <time>2016-10-16T13:28:43.000Z</time>
      </trkpt>
      <trkpt lat="50.27113" lon="3.5905">
        <ele>163.6</ele>
        <time>2016-10-16T13:28:46.000Z</time>
      </trkpt>
      <trkpt lat="50.27092" lon="3.59044">
        <ele>158.3</ele>
        <time>2016-10-16T13:28:49.000Z</time>
      </trkpt>
      <trkpt lat="50.27073" lon="3.59091">
        <ele>158.6</ele>
        <time>2016-10-16T13:28:55.000Z</time>
      </trkpt>
      <trkpt lat="50.27062" lon="3.59101">
        <ele>160.4</ele>
        <time>2016-10-16T13:28:58.000Z</time>
      </trkpt>
      <trkpt lat="50.27029" lon="3.59139">
        <ele>161.3</ele>
        <time>2016-10-16T13:29:04.000Z</time>
      </trkpt>
      <trkpt lat="50.27009" lon="3.59149">
        <ele>161.3</ele>
        <time>2016-10-16T13:29:07.000Z</time>
      </trkpt>
      <trkpt lat="50.27002" lon="3.59172">
        <ele>164.3</ele>
        <time>2016-10-16T13:29:10.000Z</time>
      </trkpt>
      <trkpt lat="50.26978" lon="3.592">
        <ele>161.4</ele>
        <time>2016-10-16T13:29:16.000Z</time>
      </trkpt>
      <trkpt lat="50.26961" lon="3.59241">
        <ele>170.5</ele>
        <time>2016-10-16T13:29:22.000Z</time>
      </trkpt>
      <trkpt lat="50.26944" lon="3.59253">
        <ele>163.9</ele>
        <time>2016-10-16T13:29:25.000Z</time>
      </trkpt>
      <trkpt lat="50.26919" lon="3.59285">
        <ele>164.9</ele>
        <time>2016-10-16T13:29:31.000Z</time>
      </trkpt>
      <trkpt lat="50.26887" lon="3.59329">
        <ele>153</ele>
        <time>2016-10-16T13:29:37.000Z</time>
      </trkpt>
      <trkpt lat="50.2686" lon="3.59374">
        <ele>144.3</ele>
        <time>2016-10-16T13:29:43.000Z</time>
      </trkpt>
      <trkpt lat="50.26848" lon="3.59389">
        <ele>144.7</ele>
        <time>2016-10-16T13:29:46.000Z</time>
      </trkpt>
      <trkpt lat="50.26848" lon="3.59432">
        <ele>148.8</ele>
        <time>2016-10-16T13:29:52.000Z</time>
      </trkpt>
      <trkpt lat="50.26832" lon="3.59477">
        <ele>153.4</ele>
        <time>2016-10-16T13:29:59.000Z</time>
      </trkpt>
      <trkpt lat="50.26811" lon="3.59486">
        <ele>150.6</ele>
        <time>2016-10-16T13:30:02.000Z</time>
      </trkpt>
      <trkpt lat="50.26794" lon="3.59492">
        <ele>154.1</ele>
        <time>2016-10-16T13:30:05.000Z</time>
      </trkpt>
      <trkpt lat="50.26788" lon="3.59501">
        <ele>159.8</ele>
        <time>2016-10-16T13:30:08.000Z</time>
      </trkpt>
      <trkpt lat="50.26777" lon="3.59548">
        <ele>165.4</ele>
        <time>2016-10-16T13:30:15.000Z</time>
      </trkpt>
      <trkpt lat="50.26761" lon="3.59597">
        <ele>166.8</ele>
        <time>2016-10-16T13:30:24.000Z</time>
      </trkpt>
      <trkpt lat="50.2675" lon="3.59616">
        <ele>166.1</ele>
        <time>2016-10-16T13:30:27.000Z</time>
      </trkpt>
      <trkpt lat="50.26735" lon="3.59669">
        <ele>164.2</ele>
        <time>2016-10-16T13:30:33.000Z</time>
      </trkpt>
      <trkpt lat="50.2672" lon="3.59715">
        <ele>164.1</ele>
        <time>2016-10-16T13:30:39.000Z</time>
      </trkpt>
      <trkpt lat="50.26713" lon="3.59734">
        <ele>163.8</ele>
        <time>2016-10-16T13:30:42.000Z</time>
      </trkpt>
      <trkpt lat="50.26696" lon="3.59774">
        <ele>163.9</ele>
        <time>2016-10-16T13:30:48.000Z</time>
      </trkpt>
      <trkpt lat="50.26685" lon="3.59805">
        <ele>156.1</ele>
        <time>2016-10-16T13:30:51.000Z</time>
      </trkpt>
      <trkpt lat="50.26671" lon="3.59848">
        <ele>155.7</ele>
        <time>2016-10-16T13:30:57.000Z</time>
      </trkpt>
      <trkpt lat="50.26661" lon="3.59871">
        <ele>157</ele>
        <time>2016-10-16T13:31:00.000Z</time>
      </trkpt>
      <trkpt lat="50.2665" lon="3.59915">
        <ele>161.4</ele>
        <time>2016-10-16T13:31:06.000Z</time>
      </trkpt>
      <trkpt lat="50.26623" lon="3.5994">
        <ele>156.2</ele>
        <time>2016-10-16T13:31:12.000Z</time>
      </trkpt>
      <trkpt lat="50.26611" lon="3.5999">
        <ele>155.9</ele>
        <time>2016-10-16T13:31:18.000Z</time>
      </trkpt>
      <trkpt lat="50.26608" lon="3.60015">
        <ele>156.5</ele>
        <time>2016-10-16T13:31:21.000Z</time>
      </trkpt>
      <trkpt lat="50.26588" lon="3.60047">
        <ele>156.6</ele>
        <time>2016-10-16T13:31:27.000Z</time>
      </trkpt>
      <trkpt lat="50.26581" lon="3.60068">
        <ele>159.7</ele>
        <time>2016-10-16T13:31:30.000Z</time>
      </trkpt>
      <trkpt lat="50.26565" lon="3.60122">
        <ele>155.5</ele>
        <time>2016-10-16T13:31:36.000Z</time>
      </trkpt>
      <trkpt lat="50.26559" lon="3.60149">
        <ele>152.5</ele>
        <time>2016-10-16T13:31:39.000Z</time>
      </trkpt>
      <trkpt lat="50.26543" lon="3.60198">
        <ele>152.9</ele>
        <time>2016-10-16T13:31:45.000Z</time>
      </trkpt>
      <trkpt lat="50.26533" lon="3.60275">
        <ele>149.3</ele>
        <time>2016-10-16T13:31:51.000Z</time>
      </trkpt>
      <trkpt lat="50.26508" lon="3.60314">
        <ele>149.8</ele>
        <time>2016-10-16T13:31:57.000Z</time>
      </trkpt>
      <trkpt lat="50.26493" lon="3.60337">
        <ele>152.3</ele>
        <time>2016-10-16T13:32:02.999Z</time>
      </trkpt>
      <trkpt lat="50.26471" lon="3.60395">
        <ele>154.2</ele>
        <time>2016-10-16T13:32:09.000Z</time>
      </trkpt>
      <trkpt lat="50.26462" lon="3.60445">
        <ele>160</ele>
        <time>2016-10-16T13:32:15.000Z</time>
      </trkpt>
      <trkpt lat="50.26454" lon="3.60483">
        <ele>158.1</ele>
        <time>2016-10-16T13:32:19.000Z</time>
      </trkpt>
      <trkpt lat="50.26442" lon="3.60527">
        <ele>159.4</ele>
        <time>2016-10-16T13:32:26.000Z</time>
      </trkpt>
      <trkpt lat="50.26435" lon="3.60558">
        <ele>161</ele>
        <time>2016-10-16T13:32:29.000Z</time>
      </trkpt>
      <trkpt lat="50.26415" lon="3.60594">
        <ele>159.3</ele>
        <time>2016-10-16T13:32:35.000Z</time>
      </trkpt>
      <trkpt lat="50.26403" lon="3.60636">
        <ele>152.5</ele>
        <time>2016-10-16T13:32:41.000Z</time>
      </trkpt>
      <trkpt lat="50.26396" lon="3.60664">
        <ele>150.9</ele>
        <time>2016-10-16T13:32:44.000Z</time>
      </trkpt>
      <trkpt lat="50.26393" lon="3.60689">
        <ele>152.1</ele>
        <time>2016-10-16T13:32:47.000Z</time>
      </trkpt>
      <trkpt lat="50.26386" lon="3.60706">
        <ele>152.7</ele>
        <time>2016-10-16T13:32:50.000Z</time>
      </trkpt>
      <trkpt lat="50.2637" lon="3.60754">
        <ele>146.8</ele>
        <time>2016-10-16T13:32:56.000Z</time>
      </trkpt>
      <trkpt lat="50.26352" lon="3.60791">
        <ele>149.9</ele>
        <time>2016-10-16T13:33:02.000Z</time>
      </trkpt>
      <trkpt lat="50.26344" lon="3.60813">
        <ele>151.7</ele>
        <time>2016-10-16T13:33:05.000Z</time>
      </trkpt>
      <trkpt lat="50.26333" lon="3.60842">
        <ele>159.9</ele>
        <time>2016-10-16T13:33:11.000Z</time>
      </trkpt>
      <trkpt lat="50.26322" lon="3.6088">
        <ele>169.9</ele>
        <time>2016-10-16T13:33:17.000Z</time>
      </trkpt>
      <trkpt lat="50.26297" lon="3.60926">
        <ele>163.1</ele>
        <time>2016-10-16T13:33:23.000Z</time>
      </trkpt>
      <trkpt lat="50.26289" lon="3.60944">
        <ele>164.3</ele>
        <time>2016-10-16T13:33:26.000Z</time>
      </trkpt>
      <trkpt lat="50.26275" lon="3.60999">
        <ele>153.2</ele>
        <time>2016-10-16T13:33:32.000Z</time>
      </trkpt>
      <trkpt lat="50.26264" lon="3.61019">
        <ele>155.3</ele>
        <time>2016-10-16T13:33:35.000Z</time>
      </trkpt>
      <trkpt lat="50.26248" lon="3.61054">
        <ele>159.4</ele>
        <time>2016-10-16T13:33:41.000Z</time>
      </trkpt>
      <trkpt lat="50.26243" lon="3.61086">
        <ele>168.1</ele>
        <time>2016-10-16T13:33:47.000Z</time>
      </trkpt>
      <trkpt lat="50.2622" lon="3.61122">
        <ele>168.2</ele>
        <time>2016-10-16T13:33:53.000Z</time>
      </trkpt>
      <trkpt lat="50.26207" lon="3.61167">
        <ele>170.9</ele>
        <time>2016-10-16T13:33:59.000Z</time>
      </trkpt>
      <trkpt lat="50.26199" lon="3.61199">
        <ele>172.3</ele>
        <time>2016-10-16T13:34:05.000Z</time>
      </trkpt>
      <trkpt lat="50.26197" lon="3.61225">
        <ele>171.8</ele>
        <time>2016-10-16T13:34:08.000Z</time>
      </trkpt>
      <trkpt lat="50.26181" lon="3.61244">
        <ele>172</ele>
        <time>2016-10-16T13:34:14.000Z</time>
      </trkpt>
      <trkpt lat="50.26175" lon="3.61267">
        <ele>171.2</ele>
        <time>2016-10-16T13:34:17.000Z</time>
      </trkpt>
      <trkpt lat="50.26168" lon="3.61295">
        <ele>167.2</ele>
        <time>2016-10-16T13:34:20.000Z</time>
      </trkpt>
      <trkpt lat="50.26155" lon="3.6135">
        <ele>169.7</ele>
        <time>2016-10-16T13:34:26.000Z</time>
      </trkpt>
      <trkpt lat="50.26145" lon="3.61383">
        <ele>168</ele>
        <time>2016-10-16T13:34:32.000Z</time>
      </trkpt>
      <trkpt lat="50.26136" lon="3.61419">
        <ele>169.1</ele>
        <time>2016-10-16T13:34:38.000Z</time>
      </trkpt>
      <trkpt lat="50.26125" lon="3.61434">
        <ele>171.6</ele>
        <time>2016-10-16T13:34:41.000Z</time>
      </trkpt>
      <trkpt lat="50.26117" lon="3.61476">
        <ele>170.9</ele>
        <time>2016-10-16T13:34:47.000Z</time>
      </trkpt>
      <trkpt lat="50.26098" lon="3.61519">
        <ele>171</ele>
        <time>2016-10-16T13:34:53.000Z</time>
      </trkpt>
      <trkpt lat="50.26098" lon="3.61528">
        <ele>172</ele>
        <time>2016-10-16T13:34:56.000Z</time>
      </trkpt>
      <trkpt lat="50.26088" lon="3.61569">
        <ele>172.6</ele>
        <time>2016-10-16T13:35:02.000Z</time>
      </trkpt>
      <trkpt lat="50.2607" lon="3.61601">
        <ele>171.3</ele>
        <time>2016-10-16T13:35:08.000Z</time>
      </trkpt>
      <trkpt lat="50.26052" lon="3.61636">
        <ele>168.6</ele>
        <time>2016-10-16T13:35:14.000Z</time>
      </trkpt>
      <trkpt lat="50.26047" lon="3.61652">
        <ele>170.6</ele>
        <time>2016-10-16T13:35:17.000Z</time>
      </trkpt>
      <trkpt lat="50.26032" lon="3.61695">
        <ele>163.3</ele>
        <time>2016-10-16T13:35:23.000Z</time>
      </trkpt>
      <trkpt lat="50.26024" lon="3.61711">
        <ele>162.7</ele>
        <time>2016-10-16T13:35:26.000Z</time>
      </trkpt>
      <trkpt lat="50.26016" lon="3.6176">
        <ele>158.8</ele>
        <time>2016-10-16T13:35:32.000Z</time>
      </trkpt>
      <trkpt lat="50.26013" lon="3.61776">
        <ele>156.5</ele>
        <time>2016-10-16T13:35:35.000Z</time>
      </trkpt>
      <trkpt lat="50.26003" lon="3.61798">
        <ele>161.9</ele>
        <time>2016-10-16T13:35:41.000Z</time>
      </trkpt>
      <trkpt lat="50.25999" lon="3.61816">
        <ele>164.7</ele>
        <time>2016-10-16T13:35:44.000Z</time>
      </trkpt>
      <trkpt lat="50.25979" lon="3.61834">
        <ele>158.1</ele>
        <time>2016-10-16T13:35:50.000Z</time>
      </trkpt>
      <trkpt lat="50.25967" lon="3.61846">
        <ele>159.7</ele>
        <time>2016-10-16T13:35:53.000Z</time>
      </trkpt>
      <trkpt lat="50.25948" lon="3.61844">
        <ele>168.5</ele>
        <time>2016-10-16T13:35:59.000Z</time>
      </trkpt>
      <trkpt lat="50.25935" lon="3.61867">
        <ele>170</ele>
        <time>2016-10-16T13:36:05.000Z</time>
      </trkpt>
      <trkpt lat="50.25921" lon="3.61915">
        <ele>163.4</ele>
        <time>2016-10-16T13:36:11.000Z</time>
      </trkpt>
      <trkpt lat="50.25942" lon="3.61941">
        <ele>160.1</ele>
        <time>2016-10-16T13:36:17.000Z</time>
      </trkpt>
      <trkpt lat="50.25952" lon="3.61951">
        <ele>163.8</ele>
        <time>2016-10-16T13:36:20.000Z</time>
      </trkpt>
      <trkpt lat="50.25967" lon="3.61983">
        <ele>164.3</ele>
        <time>2016-10-16T13:36:26.000Z</time>
      </trkpt>
      <trkpt lat="50.25953" lon="3.62018">
        <ele>168.2</ele>
        <time>2016-10-16T13:36:32.000Z</time>
      </trkpt>
      <trkpt lat="50.25949" lon="3.62039">
        <ele>168.7</ele>
        <time>2016-10-16T13:36:35.000Z</time>
      </trkpt>
      <trkpt lat="50.25938" lon="3.62057">
        <ele>167</ele>
        <time>2016-10-16T13:36:38.000Z</time>
      </trkpt>
      <trkpt lat="50.25923" lon="3.62095">
        <ele>167.1</ele>
        <time>2016-10-16T13:36:44.000Z</time>
      </trkpt>
      <trkpt lat="50.25901" lon="3.6214">
        <ele>166.6</ele>
        <time>2016-10-16T13:36:50.000Z</time>
      </trkpt>
      <trkpt lat="50.25888" lon="3.62189">
        <ele>168.5</ele>
        <time>2016-10-16T13:36:56.000Z</time>
      </trkpt>
      <trkpt lat="50.2587" lon="3.6223">
        <ele>170.4</ele>
        <time>2016-10-16T13:37:02.000Z</time>
      </trkpt>
      <trkpt lat="50.25855" lon="3.62279">
        <ele>168.6</ele>
        <time>2016-10-16T13:37:08.000Z</time>
      </trkpt>
      <trkpt lat="50.25841" lon="3.62323">
        <ele>166.1</ele>
        <time>2016-10-16T13:37:14.000Z</time>
      </trkpt>
      <trkpt lat="50.25831" lon="3.62345">
        <ele>166.9</ele>
        <time>2016-10-16T13:37:17.000Z</time>
      </trkpt>
      <trkpt lat="50.25821" lon="3.62389">
        <ele>167.5</ele>
        <time>2016-10-16T13:37:23.000Z</time>
      </trkpt>
      <trkpt lat="50.25804" lon="3.62423">
        <ele>169.2</ele>
        <time>2016-10-16T13:37:29.000Z</time>
      </trkpt>
      <trkpt lat="50.25793" lon="3.62467">
        <ele>171.5</ele>
        <time>2016-10-16T13:37:35.000Z</time>
      </trkpt>
      <trkpt lat="50.25779" lon="3.62514">
        <ele>175.5</ele>
        <time>2016-10-16T13:37:41.000Z</time>
      </trkpt>
      <trkpt lat="50.25771" lon="3.62529">
        <ele>176.7</ele>
        <time>2016-10-16T13:37:45.000Z</time>
      </trkpt>
      <trkpt lat="50.25763" lon="3.62549">
        <ele>176.2</ele>
        <time>2016-10-16T13:37:48.000Z</time>
      </trkpt>
      <trkpt lat="50.25755" lon="3.62599">
        <ele>173.4</ele>
        <time>2016-10-16T13:37:54.000Z</time>
      </trkpt>
      <trkpt lat="50.25742" lon="3.62605">
        <ele>169.9</ele>
        <time>2016-10-16T13:37:57.000Z</time>
      </trkpt>
      <trkpt lat="50.25735" lon="3.62655">
        <ele>170.2</ele>
        <time>2016-10-16T13:38:03.000Z</time>
      </trkpt>
      <trkpt lat="50.2572" lon="3.62674">
        <ele>172.5</ele>
        <time>2016-10-16T13:38:06.000Z</time>
      </trkpt>
      <trkpt lat="50.25718" lon="3.62701">
        <ele>173.3</ele>
        <time>2016-10-16T13:38:09.000Z</time>
      </trkpt>
      <trkpt lat="50.25705" lon="3.62753">
        <ele>175.2</ele>
        <time>2016-10-16T13:38:15.000Z</time>
      </trkpt>
      <trkpt lat="50.25699" lon="3.62784">
        <ele>175.1</ele>
        <time>2016-10-16T13:38:19.000Z</time>
      </trkpt>
      <trkpt lat="50.25687" lon="3.62848">
        <ele>162</ele>
        <time>2016-10-16T13:38:23.000Z</time>
      </trkpt>
      <trkpt lat="50.2568" lon="3.629">
        <ele>151.2</ele>
        <time>2016-10-16T13:38:29.000Z</time>
      </trkpt>
      <trkpt lat="50.25678" lon="3.62952">
        <ele>154.3</ele>
        <time>2016-10-16T13:38:35.000Z</time>
      </trkpt>
      <trkpt lat="50.25676" lon="3.63006">
        <ele>161.7</ele>
        <time>2016-10-16T13:38:41.000Z</time>
      </trkpt>
      <trkpt lat="50.25658" lon="3.63069">
        <ele>151.8</ele>
        <time>2016-10-16T13:38:47.000Z</time>
      </trkpt>
      <trkpt lat="50.25672" lon="3.63095">
        <ele>142.9</ele>
        <time>2016-10-16T13:38:50.000Z</time>
      </trkpt>
      <trkpt lat="50.25701" lon="3.63148">
        <ele>136.7</ele>
        <time>2016-10-16T13:38:56.000Z</time>
      </trkpt>
      <trkpt lat="50.25703" lon="3.63195">
        <ele>139.6</ele>
        <time>2016-10-16T13:39:02.000Z</time>
      </trkpt>
      <trkpt lat="50.25654" lon="3.63183">
        <ele>139.2</ele>
        <time>2016-10-16T13:39:08.000Z</time>
      </trkpt>
      <trkpt lat="50.25634" lon="3.6317">
        <ele>140.7</ele>
        <time>2016-10-16T13:39:11.000Z</time>
      </trkpt>
      <trkpt lat="50.25618" lon="3.63163">
        <ele>144.8</ele>
        <time>2016-10-16T13:39:14.000Z</time>
      </trkpt>
      <trkpt lat="50.25599" lon="3.6316">
        <ele>147.8</ele>
        <time>2016-10-16T13:39:17.000Z</time>
      </trkpt>
      <trkpt lat="50.25564" lon="3.63148">
        <ele>153.1</ele>
        <time>2016-10-16T13:39:23.000Z</time>
      </trkpt>
      <trkpt lat="50.25562" lon="3.6314">
        <ele>162.3</ele>
        <time>2016-10-16T13:39:26.000Z</time>
      </trkpt>
      <trkpt lat="50.2554" lon="3.6313">
        <ele>158.1</ele>
        <time>2016-10-16T13:39:33.000Z</time>
      </trkpt>
      <trkpt lat="50.25525" lon="3.63143">
        <ele>154.3</ele>
        <time>2016-10-16T13:39:37.000Z</time>
      </trkpt>
      <trkpt lat="50.25509" lon="3.63148">
        <ele>154.7</ele>
        <time>2016-10-16T13:39:41.000Z</time>
      </trkpt>
      <trkpt lat="50.25501" lon="3.63149">
        <ele>154.7</ele>
        <time>2016-10-16T13:39:43.998Z</time>
      </trkpt>
      <trkpt lat="50.25499" lon="3.63157">
        <ele>158</ele>
        <time>2016-10-16T13:39:50.000Z</time>
      </trkpt>
      <trkpt lat="50.25482" lon="3.63155">
        <ele>157</ele>
        <time>2016-10-16T13:39:56.000Z</time>
      </trkpt>
      <trkpt lat="50.25477" lon="3.63159">
        <ele>160.3</ele>
        <time>2016-10-16T13:39:59.000Z</time>
      </trkpt>
      <trkpt lat="50.25452" lon="3.63135">
        <ele>167.7</ele>
        <time>2016-10-16T13:40:05.000Z</time>
      </trkpt>
      <trkpt lat="50.25433" lon="3.63135">
        <ele>166.1</ele>
        <time>2016-10-16T13:40:11.000Z</time>
      </trkpt>
      <trkpt lat="50.25388" lon="3.63117">
        <ele>163.4</ele>
        <time>2016-10-16T13:40:17.000Z</time>
      </trkpt>
      <trkpt lat="50.25378" lon="3.63115">
        <ele>161.1</ele>
        <time>2016-10-16T13:40:20.000Z</time>
      </trkpt>
      <trkpt lat="50.25354" lon="3.63105">
        <ele>164.1</ele>
        <time>2016-10-16T13:40:26.000Z</time>
      </trkpt>
      <trkpt lat="50.25328" lon="3.63096">
        <ele>163.1</ele>
        <time>2016-10-16T13:40:32.000Z</time>
      </trkpt>
      <trkpt lat="50.25307" lon="3.63083">
        <ele>157.1</ele>
        <time>2016-10-16T13:40:38.000Z</time>
      </trkpt>
      <trkpt lat="50.25294" lon="3.6308">
        <ele>156.5</ele>
        <time>2016-10-16T13:40:41.000Z</time>
      </trkpt>
      <trkpt lat="50.25277" lon="3.63096">
        <ele>153.1</ele>
        <time>2016-10-16T13:40:47.000Z</time>
      </trkpt>
      <trkpt lat="50.25274" lon="3.63112">
        <ele>152.5</ele>
        <time>2016-10-16T13:40:50.000Z</time>
      </trkpt>
      <trkpt lat="50.25271" lon="3.63156">
        <ele>149</ele>
        <time>2016-10-16T13:40:56.000Z</time>
      </trkpt>
      <trkpt lat="50.25274" lon="3.63184">
        <ele>147.8</ele>
        <time>2016-10-16T13:40:59.000Z</time>
      </trkpt>
      <trkpt lat="50.25277" lon="3.63205">
        <ele>151.3</ele>
        <time>2016-10-16T13:41:02.000Z</time>
      </trkpt>
      <trkpt lat="50.25279" lon="3.63231">
        <ele>152.8</ele>
        <time>2016-10-16T13:41:05.000Z</time>
      </trkpt>
      <trkpt lat="50.25271" lon="3.63268">
        <ele>154.9</ele>
        <time>2016-10-16T13:41:11.000Z</time>
      </trkpt>
      <trkpt lat="50.25281" lon="3.63303">
        <ele>156.2</ele>
        <time>2016-10-16T13:41:14.000Z</time>
      </trkpt>
      <trkpt lat="50.25288" lon="3.63362">
        <ele>157.9</ele>
        <time>2016-10-16T13:41:20.000Z</time>
      </trkpt>
      <trkpt lat="50.25282" lon="3.63398">
        <ele>160.1</ele>
        <time>2016-10-16T13:41:26.000Z</time>
      </trkpt>
      <trkpt lat="50.25283" lon="3.6343">
        <ele>164.3</ele>
        <time>2016-10-16T13:41:30.000Z</time>
      </trkpt>
      <trkpt lat="50.25278" lon="3.63452">
        <ele>160</ele>
        <time>2016-10-16T13:41:34.000Z</time>
      </trkpt>
      <trkpt lat="50.25274" lon="3.63469">
        <ele>161.4</ele>
        <time>2016-10-16T13:41:37.000Z</time>
      </trkpt>
      <trkpt lat="50.25273" lon="3.63524">
        <ele>161</ele>
        <time>2016-10-16T13:41:43.000Z</time>
      </trkpt>
      <trkpt lat="50.25269" lon="3.63577">
        <ele>164</ele>
        <time>2016-10-16T13:41:50.000Z</time>
      </trkpt>
      <trkpt lat="50.25277" lon="3.63597">
        <ele>167.7</ele>
        <time>2016-10-16T13:41:54.000Z</time>
      </trkpt>
      <trkpt lat="50.25279" lon="3.6361">
        <ele>170</ele>
        <time>2016-10-16T13:41:57.000Z</time>
      </trkpt>
      <trkpt lat="50.25282" lon="3.63628">
        <ele>171.6</ele>
        <time>2016-10-16T13:42:00.000Z</time>
      </trkpt>
      <trkpt lat="50.25284" lon="3.63652">
        <ele>170.5</ele>
        <time>2016-10-16T13:42:03.000Z</time>
      </trkpt>
      <trkpt lat="50.25271" lon="3.63671">
        <ele>174.1</ele>
        <time>2016-10-16T13:42:09.000Z</time>
      </trkpt>
      <trkpt lat="50.25257" lon="3.6368">
        <ele>183.2</ele>
        <time>2016-10-16T13:42:15.000Z</time>
      </trkpt>
      <trkpt lat="50.25224" lon="3.63679">
        <ele>174.4</ele>
        <time>2016-10-16T13:42:21.000Z</time>
      </trkpt>
      <trkpt lat="50.25214" lon="3.63687">
        <ele>170.6</ele>
        <time>2016-10-16T13:42:24.000Z</time>
      </trkpt>
      <trkpt lat="50.25204" lon="3.637">
        <ele>168.3</ele>
        <time>2016-10-16T13:42:30.000Z</time>
      </trkpt>
      <trkpt lat="50.25202" lon="3.63728">
        <ele>168.9</ele>
        <time>2016-10-16T13:42:36.000Z</time>
      </trkpt>
      <trkpt lat="50.2521" lon="3.63743">
        <ele>169.2</ele>
        <time>2016-10-16T13:42:39.000Z</time>
      </trkpt>
      <trkpt lat="50.25227" lon="3.63767">
        <ele>165.9</ele>
        <time>2016-10-16T13:42:45.000Z</time>
      </trkpt>
      <trkpt lat="50.25221" lon="3.63761">
        <ele>167.5</ele>
        <time>2016-10-16T13:42:51.000Z</time>
      </trkpt>
      <trkpt lat="50.25186" lon="3.63738">
        <ele>162.7</ele>
        <time>2016-10-16T13:42:57.000Z</time>
      </trkpt>
      <trkpt lat="50.25169" lon="3.63707">
        <ele>160.1</ele>
        <time>2016-10-16T13:43:03.000Z</time>
      </trkpt>
      <trkpt lat="50.25156" lon="3.63725">
        <ele>156.9</ele>
        <time>2016-10-16T13:43:09.000Z</time>
      </trkpt>
      <trkpt lat="50.25176" lon="3.6379">
        <ele>161.7</ele>
        <time>2016-10-16T13:43:15.000Z</time>
      </trkpt>
      <trkpt lat="50.25173" lon="3.63832">
        <ele>161.1</ele>
        <time>2016-10-16T13:43:21.000Z</time>
      </trkpt>
      <trkpt lat="50.25157" lon="3.63838">
        <ele>161</ele>
        <time>2016-10-16T13:43:24.000Z</time>
      </trkpt>
      <trkpt lat="50.25155" lon="3.63868">
        <ele>174.5</ele>
        <time>2016-10-16T13:43:30.000Z</time>
      </trkpt>
      <trkpt lat="50.25151" lon="3.63885">
        <ele>187</ele>
        <time>2016-10-16T13:43:35.998Z</time>
      </trkpt>
      <trkpt lat="50.25132" lon="3.63904">
        <ele>190.5</ele>
        <time>2016-10-16T13:43:40.000Z</time>
      </trkpt>
      <trkpt lat="50.25118" lon="3.63932">
        <ele>192.8</ele>
        <time>2016-10-16T13:43:44.000Z</time>
      </trkpt>
      <trkpt lat="50.25073" lon="3.63936">
        <ele>173.3</ele>
        <time>2016-10-16T13:43:48.000Z</time>
      </trkpt>
      <trkpt lat="50.25054" lon="3.63958">
        <ele>179</ele>
        <time>2016-10-16T13:43:53.999Z</time>
      </trkpt>
      <trkpt lat="50.25045" lon="3.63987">
        <ele>177.4</ele>
        <time>2016-10-16T13:43:58.000Z</time>
      </trkpt>
      <trkpt lat="50.25044" lon="3.6401">
        <ele>176.9</ele>
        <time>2016-10-16T13:44:02.000Z</time>
      </trkpt>
      <trkpt lat="50.25054" lon="3.64049">
        <ele>176.7</ele>
        <time>2016-10-16T13:44:06.000Z</time>
      </trkpt>
      <trkpt lat="50.25055" lon="3.64095">
        <ele>172.4</ele>
        <time>2016-10-16T13:44:10.000Z</time>
      </trkpt>
      <trkpt lat="50.2506" lon="3.64117">
        <ele>173.3</ele>
        <time>2016-10-16T13:44:13.999Z</time>
      </trkpt>
      <trkpt lat="50.25054" lon="3.64134">
        <ele>174.2</ele>
        <time>2016-10-16T13:44:17.000Z</time>
      </trkpt>
      <trkpt lat="50.25052" lon="3.64153">
        <ele>173.3</ele>
        <time>2016-10-16T13:44:20.000Z</time>
      </trkpt>
      <trkpt lat="50.25057" lon="3.64189">
        <ele>172.9</ele>
        <time>2016-10-16T13:44:25.999Z</time>
      </trkpt>
      <trkpt lat="50.25019" lon="3.64169">
        <ele>174.3</ele>
        <time>2016-10-16T13:44:30.000Z</time>
      </trkpt>
      <trkpt lat="50.25008" lon="3.64174">
        <ele>174.6</ele>
        <time>2016-10-16T13:44:33.000Z</time>
      </trkpt>
      <trkpt lat="50.24998" lon="3.64177">
        <ele>172.2</ele>
        <time>2016-10-16T13:44:36.000Z</time>
      </trkpt>
      <trkpt lat="50.24988" lon="3.64174">
        <ele>173.4</ele>
        <time>2016-10-16T13:44:39.000Z</time>
      </trkpt>
      <trkpt lat="50.24966" lon="3.64172">
        <ele>172.3</ele>
        <time>2016-10-16T13:44:46.000Z</time>
      </trkpt>
      <trkpt lat="50.24951" lon="3.64171">
        <ele>172.1</ele>
        <time>2016-10-16T13:44:50.000Z</time>
      </trkpt>
      <trkpt lat="50.2494" lon="3.6417">
        <ele>172.3</ele>
        <time>2016-10-16T13:44:53.000Z</time>
      </trkpt>
      <trkpt lat="50.24923" lon="3.64173">
        <ele>171.6</ele>
        <time>2016-10-16T13:45:02.000Z</time>
      </trkpt>
      <trkpt lat="50.249" lon="3.64163">
        <ele>173</ele>
        <time>2016-10-16T13:45:08.000Z</time>
      </trkpt>
      <trkpt lat="50.24886" lon="3.6417">
        <ele>171.2</ele>
        <time>2016-10-16T13:45:14.000Z</time>
      </trkpt>
      <trkpt lat="50.24868" lon="3.64158">
        <ele>165.1</ele>
        <time>2016-10-16T13:45:20.000Z</time>
      </trkpt>
      <trkpt lat="50.24863" lon="3.64129">
        <ele>169.8</ele>
        <time>2016-10-16T13:45:26.000Z</time>
      </trkpt>
      <trkpt lat="50.24857" lon="3.64107">
        <ele>170.3</ele>
        <time>2016-10-16T13:45:29.000Z</time>
      </trkpt>
      <trkpt lat="50.24857" lon="3.64069">
        <ele>173</ele>
        <time>2016-10-16T13:45:35.000Z</time>
      </trkpt>
      <trkpt lat="50.24879" lon="3.64043">
        <ele>172.1</ele>
        <time>2016-10-16T13:45:41.000Z</time>
      </trkpt>
      <trkpt lat="50.24886" lon="3.64023">
        <ele>170.2</ele>
        <time>2016-10-16T13:45:44.000Z</time>
      </trkpt>
      <trkpt lat="50.24909" lon="3.63985">
        <ele>171.2</ele>
        <time>2016-10-16T13:45:50.000Z</time>
      </trkpt>
      <trkpt lat="50.24919" lon="3.63977">
        <ele>171.2</ele>
        <time>2016-10-16T13:45:56.000Z</time>
      </trkpt>
      <trkpt lat="50.24925" lon="3.63955">
        <ele>172.6</ele>
        <time>2016-10-16T13:46:05.000Z</time>
      </trkpt>
      <trkpt lat="50.24942" lon="3.63929">
        <ele>172.2</ele>
        <time>2016-10-16T13:46:11.000Z</time>
      </trkpt>
      <trkpt lat="50.24957" lon="3.63918">
        <ele>172.8</ele>
        <time>2016-10-16T13:46:14.000Z</time>
      </trkpt>
      <trkpt lat="50.24971" lon="3.639">
        <ele>173.3</ele>
        <time>2016-10-16T13:46:17.000Z</time>
      </trkpt>
      <trkpt lat="50.24988" lon="3.63871">
        <ele>175.4</ele>
        <time>2016-10-16T13:46:23.000Z</time>
      </trkpt>
      <trkpt lat="50.24994" lon="3.63854">
        <ele>184.9</ele>
        <time>2016-10-16T13:46:29.000Z</time>
      </trkpt>
      <trkpt lat="50.25005" lon="3.63825">
        <ele>185.7</ele>
        <time>2016-10-16T13:46:34.999Z</time>
      </trkpt>
      <trkpt lat="50.25001" lon="3.63897">
        <ele>186.2</ele>
        <time>2016-10-16T13:46:38.000Z</time>
      </trkpt>
      <trkpt lat="50.24998" lon="3.63927">
        <ele>185.6</ele>
        <time>2016-10-16T13:46:41.000Z</time>
      </trkpt>
      <trkpt lat="50.24984" lon="3.63952">
        <ele>175.5</ele>
        <time>2016-10-16T13:46:45.000Z</time>
      </trkpt>
      <trkpt lat="50.24984" lon="3.63974">
        <ele>178</ele>
        <time>2016-10-16T13:46:48.000Z</time>
      </trkpt>
      <trkpt lat="50.24985" lon="3.63994">
        <ele>180.5</ele>
        <time>2016-10-16T13:46:51.000Z</time>
      </trkpt>
      <trkpt lat="50.24985" lon="3.64002">
        <ele>187.1</ele>
        <time>2016-10-16T13:46:57.000Z</time>
      </trkpt>
      <trkpt lat="50.24987" lon="3.6401">
        <ele>188.8</ele>
        <time>2016-10-16T13:47:00.000Z</time>
      </trkpt>
      <trkpt lat="50.24997" lon="3.64025">
        <ele>183</ele>
        <time>2016-10-16T13:47:06.000Z</time>
      </trkpt>
      <trkpt lat="50.25004" lon="3.64033">
        <ele>171.2</ele>
        <time>2016-10-16T13:47:12.000Z</time>
      </trkpt>
      <trkpt lat="50.25012" lon="3.64032">
        <ele>173.9</ele>
        <time>2016-10-16T13:47:18.000Z</time>
      </trkpt>
      <trkpt lat="50.25031" lon="3.64022">
        <ele>177.3</ele>
        <time>2016-10-16T13:47:24.000Z</time>
      </trkpt>
      <trkpt lat="50.25024" lon="3.64063">
        <ele>165.8</ele>
        <time>2016-10-16T13:47:33.000Z</time>
      </trkpt>
      <trkpt lat="50.25021" lon="3.64086">
        <ele>159</ele>
        <time>2016-10-16T13:47:36.000Z</time>
      </trkpt>
      <trkpt lat="50.2502" lon="3.64102">
        <ele>153.7</ele>
        <time>2016-10-16T13:47:42.000Z</time>
      </trkpt>
      <trkpt lat="50.25011" lon="3.64104">
        <ele>160.5</ele>
        <time>2016-10-16T13:47:48.000Z</time>
      </trkpt>
      <trkpt lat="50.25006" lon="3.64125">
        <ele>161.4</ele>
        <time>2016-10-16T13:47:53.999Z</time>
      </trkpt>
      <trkpt lat="50.24999" lon="3.64134">
        <ele>159</ele>
        <time>2016-10-16T13:47:58.000Z</time>
      </trkpt>
      <trkpt lat="50.24972" lon="3.64111">
        <ele>159.8</ele>
        <time>2016-10-16T13:48:04.000Z</time>
      </trkpt>
      <trkpt lat="50.24962" lon="3.64101">
        <ele>162.6</ele>
        <time>2016-10-16T13:48:10.000Z</time>
      </trkpt>
      <trkpt lat="50.24954" lon="3.64094">
        <ele>168.6</ele>
        <time>2016-10-16T13:48:16.000Z</time>
      </trkpt>
      <trkpt lat="50.24939" lon="3.64077">
        <ele>163.6</ele>
        <time>2016-10-16T13:48:22.000Z</time>
      </trkpt>
      <trkpt lat="50.24931" lon="3.64075">
        <ele>164</ele>
        <time>2016-10-16T13:48:25.000Z</time>
      </trkpt>
      <trkpt lat="50.2493" lon="3.64057">
        <ele>166.3</ele>
        <time>2016-10-16T13:48:31.000Z</time>
      </trkpt>
      <trkpt lat="50.24914" lon="3.64039">
        <ele>166.7</ele>
        <time>2016-10-16T13:48:37.000Z</time>
      </trkpt>
      <trkpt lat="50.24916" lon="3.64053">
        <ele>169.6</ele>
        <time>2016-10-16T13:48:40.000Z</time>
      </trkpt>
      <trkpt lat="50.24908" lon="3.64049">
        <ele>173.6</ele>
        <time>2016-10-16T13:48:46.000Z</time>
      </trkpt>
      <trkpt lat="50.24903" lon="3.64068">
        <ele>172.8</ele>
        <time>2016-10-16T13:48:53.000Z</time>
      </trkpt>
      <trkpt lat="50.2491" lon="3.64094">
        <ele>177.5</ele>
        <time>2016-10-16T13:48:59.000Z</time>
      </trkpt>
      <trkpt lat="50.24922" lon="3.64106">
        <ele>175.5</ele>
        <time>2016-10-16T13:49:05.000Z</time>
      </trkpt>
      <trkpt lat="50.24938" lon="3.64108">
        <ele>175.7</ele>
        <time>2016-10-16T13:49:11.000Z</time>
      </trkpt>
      <trkpt lat="50.24953" lon="3.64114">
        <ele>173</ele>
        <time>2016-10-16T13:49:17.000Z</time>
      </trkpt>
      <trkpt lat="50.24945" lon="3.64106">
        <ele>171.8</ele>
        <time>2016-10-16T13:49:25.000Z</time>
      </trkpt>
      <trkpt lat="50.24958" lon="3.64124">
        <ele>180.6</ele>
        <time>2016-10-16T13:49:40.000Z</time>
      </trkpt>
      <trkpt lat="50.24966" lon="3.64128">
        <ele>182.1</ele>
        <time>2016-10-16T13:49:46.000Z</time>
      </trkpt>
      <trkpt lat="50.24976" lon="3.6413">
        <ele>180</ele>
        <time>2016-10-16T13:49:52.000Z</time>
      </trkpt>
      <trkpt lat="50.24981" lon="3.64134">
        <ele>180.3</ele>
        <time>2016-10-16T13:49:58.000Z</time>
      </trkpt>
      <trkpt lat="50.24971" lon="3.64126">
        <ele>181.3</ele>
        <time>2016-10-16T13:50:04.000Z</time>
      </trkpt>
      <trkpt lat="50.24962" lon="3.64115">
        <ele>184.4</ele>
        <time>2016-10-16T13:50:12.998Z</time>
      </trkpt>
      <trkpt lat="50.24957" lon="3.64114">
        <ele>182.4</ele>
        <time>2016-10-16T13:50:16.000Z</time>
      </trkpt>
      <trkpt lat="50.24938" lon="3.64093">
        <ele>175.5</ele>
        <time>2016-10-16T13:50:22.000Z</time>
      </trkpt>
      <trkpt lat="50.24921" lon="3.64078">
        <ele>174.3</ele>
        <time>2016-10-16T13:50:28.000Z</time>
      </trkpt>
      <trkpt lat="50.24913" lon="3.64052">
        <ele>196.7</ele>
        <time>2016-10-16T13:50:34.000Z</time>
      </trkpt>
      <trkpt lat="50.24936" lon="3.6402">
        <ele>187.8</ele>
        <time>2016-10-16T13:50:40.000Z</time>
      </trkpt>
      <trkpt lat="50.24964" lon="3.63984">
        <ele>183</ele>
        <time>2016-10-16T13:50:46.000Z</time>
      </trkpt>
      <trkpt lat="50.24976" lon="3.63969">
        <ele>182.2</ele>
        <time>2016-10-16T13:50:49.000Z</time>
      </trkpt>
      <trkpt lat="50.24991" lon="3.63954">
        <ele>179.1</ele>
        <time>2016-10-16T13:50:55.000Z</time>
      </trkpt>
      <trkpt lat="50.24999" lon="3.63942">
        <ele>178.4</ele>
        <time>2016-10-16T13:50:58.000Z</time>
      </trkpt>
      <trkpt lat="50.25012" lon="3.63914">
        <ele>177.6</ele>
        <time>2016-10-16T13:51:03.998Z</time>
      </trkpt>
      <trkpt lat="50.24994" lon="3.6389">
        <ele>166.5</ele>
        <time>2016-10-16T13:51:08.000Z</time>
      </trkpt>
      <trkpt lat="50.24984" lon="3.63874">
        <ele>166.8</ele>
        <time>2016-10-16T13:51:13.000Z</time>
      </trkpt>
      <trkpt lat="50.24986" lon="3.63857">
        <ele>169.7</ele>
        <time>2016-10-16T13:51:16.000Z</time>
      </trkpt>
      <trkpt lat="50.2501" lon="3.63813">
        <ele>173.4</ele>
        <time>2016-10-16T13:51:22.000Z</time>
      </trkpt>
      <trkpt lat="50.24992" lon="3.63791">
        <ele>167.2</ele>
        <time>2016-10-16T13:51:28.000Z</time>
      </trkpt>
      <trkpt lat="50.24971" lon="3.63826">
        <ele>169.4</ele>
        <time>2016-10-16T13:51:35.000Z</time>
      </trkpt>
      <trkpt lat="50.24964" lon="3.63833">
        <ele>165.6</ele>
        <time>2016-10-16T13:51:41.000Z</time>
      </trkpt>
      <trkpt lat="50.24954" lon="3.63811">
        <ele>164.4</ele>
        <time>2016-10-16T13:51:47.000Z</time>
      </trkpt>
      <trkpt lat="50.24956" lon="3.63796">
        <ele>163.2</ele>
        <time>2016-10-16T13:51:50.000Z</time>
      </trkpt>
      <trkpt lat="50.24968" lon="3.63762">
        <ele>162.4</ele>
        <time>2016-10-16T13:51:56.000Z</time>
      </trkpt>
      <trkpt lat="50.24977" lon="3.63753">
        <ele>162.6</ele>
        <time>2016-10-16T13:51:59.000Z</time>
      </trkpt>
      <trkpt lat="50.2499" lon="3.63726">
        <ele>164.2</ele>
        <time>2016-10-16T13:52:02.000Z</time>
      </trkpt>
      <trkpt lat="50.25017" lon="3.63692">
        <ele>167</ele>
        <time>2016-10-16T13:52:08.000Z</time>
      </trkpt>
      <trkpt lat="50.25039" lon="3.63651">
        <ele>166.3</ele>
        <time>2016-10-16T13:52:14.000Z</time>
      </trkpt>
      <trkpt lat="50.25049" lon="3.63646">
        <ele>163.5</ele>
        <time>2016-10-16T13:52:17.000Z</time>
      </trkpt>
      <trkpt lat="50.25086" lon="3.63626">
        <ele>152.3</ele>
        <time>2016-10-16T13:52:23.000Z</time>
      </trkpt>
      <trkpt lat="50.25124" lon="3.63594">
        <ele>152.1</ele>
        <time>2016-10-16T13:52:29.000Z</time>
      </trkpt>
      <trkpt lat="50.25137" lon="3.6362">
        <ele>158</ele>
        <time>2016-10-16T13:52:35.000Z</time>
      </trkpt>
      <trkpt lat="50.25149" lon="3.63642">
        <ele>158.9</ele>
        <time>2016-10-16T13:52:38.000Z</time>
      </trkpt>
      <trkpt lat="50.25165" lon="3.63655">
        <ele>155.9</ele>
        <time>2016-10-16T13:52:41.000Z</time>
      </trkpt>
      <trkpt lat="50.25189" lon="3.63643">
        <ele>150.1</ele>
        <time>2016-10-16T13:52:47.000Z</time>
      </trkpt>
      <trkpt lat="50.25204" lon="3.63626">
        <ele>153.8</ele>
        <time>2016-10-16T13:52:51.000Z</time>
      </trkpt>
      <trkpt lat="50.25213" lon="3.636">
        <ele>153.2</ele>
        <time>2016-10-16T13:52:54.000Z</time>
      </trkpt>
      <trkpt lat="50.25217" lon="3.6359">
        <ele>155.4</ele>
        <time>2016-10-16T13:52:57.000Z</time>
      </trkpt>
      <trkpt lat="50.25221" lon="3.63578">
        <ele>160.5</ele>
        <time>2016-10-16T13:53:03.000Z</time>
      </trkpt>
      <trkpt lat="50.25223" lon="3.63547">
        <ele>162.8</ele>
        <time>2016-10-16T13:53:09.000Z</time>
      </trkpt>
      <trkpt lat="50.25227" lon="3.63514">
        <ele>163</ele>
        <time>2016-10-16T13:53:14.998Z</time>
      </trkpt>
      <trkpt lat="50.25216" lon="3.63515">
        <ele>160.8</ele>
        <time>2016-10-16T13:53:21.000Z</time>
      </trkpt>
      <trkpt lat="50.25205" lon="3.6352">
        <ele>162.8</ele>
        <time>2016-10-16T13:53:27.000Z</time>
      </trkpt>
      <trkpt lat="50.25189" lon="3.63492">
        <ele>161.2</ele>
        <time>2016-10-16T13:53:33.000Z</time>
      </trkpt>
      <trkpt lat="50.25178" lon="3.63473">
        <ele>163.4</ele>
        <time>2016-10-16T13:53:39.000Z</time>
      </trkpt>
      <trkpt lat="50.25171" lon="3.63452">
        <ele>166.9</ele>
        <time>2016-10-16T13:53:45.000Z</time>
      </trkpt>
      <trkpt lat="50.25156" lon="3.63435">
        <ele>166.3</ele>
        <time>2016-10-16T13:53:48.000Z</time>
      </trkpt>
      <trkpt lat="50.25145" lon="3.63416">
        <ele>172.1</ele>
        <time>2016-10-16T13:53:51.000Z</time>
      </trkpt>
      <trkpt lat="50.25136" lon="3.63373">
        <ele>174.3</ele>
        <time>2016-10-16T13:53:57.000Z</time>
      </trkpt>
      <trkpt lat="50.25145" lon="3.63333">
        <ele>191.9</ele>
        <time>2016-10-16T13:54:03.000Z</time>
      </trkpt>
      <trkpt lat="50.25145" lon="3.63302">
        <ele>187.5</ele>
        <time>2016-10-16T13:54:09.000Z</time>
      </trkpt>
      <trkpt lat="50.25145" lon="3.63261">
        <ele>185.3</ele>
        <time>2016-10-16T13:54:12.000Z</time>
      </trkpt>
      <trkpt lat="50.25158" lon="3.63191">
        <ele>187.1</ele>
        <time>2016-10-16T13:54:18.000Z</time>
      </trkpt>
      <trkpt lat="50.2517" lon="3.63148">
        <ele>180.2</ele>
        <time>2016-10-16T13:54:24.000Z</time>
      </trkpt>
      <trkpt lat="50.25188" lon="3.63139">
        <ele>169.9</ele>
        <time>2016-10-16T13:54:30.000Z</time>
      </trkpt>
      <trkpt lat="50.25184" lon="3.63115">
        <ele>166.8</ele>
        <time>2016-10-16T13:54:33.000Z</time>
      </trkpt>
      <trkpt lat="50.25173" lon="3.63102">
        <ele>170.1</ele>
        <time>2016-10-16T13:54:39.000Z</time>
      </trkpt>
      <trkpt lat="50.25166" lon="3.63089">
        <ele>171</ele>
        <time>2016-10-16T13:54:42.000Z</time>
      </trkpt>
      <trkpt lat="50.25171" lon="3.63063">
        <ele>175.7</ele>
        <time>2016-10-16T13:54:48.000Z</time>
      </trkpt>
      <trkpt lat="50.25164" lon="3.63057">
        <ele>177.5</ele>
        <time>2016-10-16T13:54:51.000Z</time>
      </trkpt>
      <trkpt lat="50.25156" lon="3.63035">
        <ele>176.6</ele>
        <time>2016-10-16T13:54:57.000Z</time>
      </trkpt>
      <trkpt lat="50.25136" lon="3.63035">
        <ele>174.5</ele>
        <time>2016-10-16T13:55:03.000Z</time>
      </trkpt>
      <trkpt lat="50.25082" lon="3.63018">
        <ele>169.2</ele>
        <time>2016-10-16T13:55:09.000Z</time>
      </trkpt>
      <trkpt lat="50.25073" lon="3.63011">
        <ele>165.6</ele>
        <time>2016-10-16T13:55:12.000Z</time>
      </trkpt>
      <trkpt lat="50.25049" lon="3.62992">
        <ele>159.8</ele>
        <time>2016-10-16T13:55:18.000Z</time>
      </trkpt>
      <trkpt lat="50.25038" lon="3.62979">
        <ele>158</ele>
        <time>2016-10-16T13:55:21.000Z</time>
      </trkpt>
      <trkpt lat="50.25025" lon="3.62975">
        <ele>161.1</ele>
        <time>2016-10-16T13:55:24.000Z</time>
      </trkpt>
      <trkpt lat="50.25013" lon="3.62957">
        <ele>161.8</ele>
        <time>2016-10-16T13:55:30.000Z</time>
      </trkpt>
      <trkpt lat="50.25035" lon="3.62956">
        <ele>157.3</ele>
        <time>2016-10-16T13:55:36.000Z</time>
      </trkpt>
      <trkpt lat="50.25038" lon="3.62949">
        <ele>158.6</ele>
        <time>2016-10-16T13:55:39.000Z</time>
      </trkpt>
      <trkpt lat="50.25027" lon="3.62937">
        <ele>162</ele>
        <time>2016-10-16T13:55:45.000Z</time>
      </trkpt>
      <trkpt lat="50.25016" lon="3.62915">
        <ele>163.2</ele>
        <time>2016-10-16T13:55:51.000Z</time>
      </trkpt>
      <trkpt lat="50.25021" lon="3.62895">
        <ele>164.5</ele>
        <time>2016-10-16T13:55:54.000Z</time>
      </trkpt>
      <trkpt lat="50.25017" lon="3.62852">
        <ele>160.5</ele>
        <time>2016-10-16T13:56:00.000Z</time>
      </trkpt>
      <trkpt lat="50.2501" lon="3.62851">
        <ele>162.1</ele>
        <time>2016-10-16T13:56:03.000Z</time>
      </trkpt>
      <trkpt lat="50.25003" lon="3.62864">
        <ele>162.5</ele>
        <time>2016-10-16T13:56:09.000Z</time>
      </trkpt>
      <trkpt lat="50.24992" lon="3.62883">
        <ele>163.7</ele>
        <time>2016-10-16T13:56:15.000Z</time>
      </trkpt>
      <trkpt lat="50.24956" lon="3.62895">
        <ele>165.2</ele>
        <time>2016-10-16T13:56:21.000Z</time>
      </trkpt>
      <trkpt lat="50.24937" lon="3.62897">
        <ele>170.1</ele>
        <time>2016-10-16T13:56:27.000Z</time>
      </trkpt>
      <trkpt lat="50.24913" lon="3.629">
        <ele>179.1</ele>
        <time>2016-10-16T13:56:33.000Z</time>
      </trkpt>
      <trkpt lat="50.24899" lon="3.62904">
        <ele>177.7</ele>
        <time>2016-10-16T13:56:36.000Z</time>
      </trkpt>
      <trkpt lat="50.24855" lon="3.62883">
        <ele>176.4</ele>
        <time>2016-10-16T13:56:42.000Z</time>
      </trkpt>
      <trkpt lat="50.24831" lon="3.62856">
        <ele>170.8</ele>
        <time>2016-10-16T13:56:48.000Z</time>
      </trkpt>
      <trkpt lat="50.24807" lon="3.62825">
        <ele>171</ele>
        <time>2016-10-16T13:56:54.000Z</time>
      </trkpt>
      <trkpt lat="50.24774" lon="3.62808">
        <ele>160.7</ele>
        <time>2016-10-16T13:57:00.000Z</time>
      </trkpt>
      <trkpt lat="50.24754" lon="3.62819">
        <ele>159.9</ele>
        <time>2016-10-16T13:57:06.000Z</time>
      </trkpt>
      <trkpt lat="50.24736" lon="3.62846">
        <ele>158.7</ele>
        <time>2016-10-16T13:57:11.999Z</time>
      </trkpt>
      <trkpt lat="50.24714" lon="3.62839">
        <ele>157.7</ele>
        <time>2016-10-16T13:57:15.000Z</time>
      </trkpt>
      <trkpt lat="50.24686" lon="3.62863">
        <ele>160</ele>
        <time>2016-10-16T13:57:21.000Z</time>
      </trkpt>
      <trkpt lat="50.24688" lon="3.62872">
        <ele>172.2</ele>
        <time>2016-10-16T13:57:25.000Z</time>
      </trkpt>
      <trkpt lat="50.24666" lon="3.6284">
        <ele>169</ele>
        <time>2016-10-16T13:57:29.000Z</time>
      </trkpt>
      <trkpt lat="50.24652" lon="3.62822">
        <ele>165.7</ele>
        <time>2016-10-16T13:57:32.000Z</time>
      </trkpt>
      <trkpt lat="50.24632" lon="3.62785">
        <ele>173</ele>
        <time>2016-10-16T13:57:38.000Z</time>
      </trkpt>
      <trkpt lat="50.24631" lon="3.62771">
        <ele>181.4</ele>
        <time>2016-10-16T13:57:41.000Z</time>
      </trkpt>
      <trkpt lat="50.24622" lon="3.62763">
        <ele>180.9</ele>
        <time>2016-10-16T13:57:47.000Z</time>
      </trkpt>
      <trkpt lat="50.24608" lon="3.62772">
        <ele>176.2</ele>
        <time>2016-10-16T13:57:49.999Z</time>
      </trkpt>
      <trkpt lat="50.24598" lon="3.62797">
        <ele>173.5</ele>
        <time>2016-10-16T13:57:53.000Z</time>
      </trkpt>
      <trkpt lat="50.24588" lon="3.62821">
        <ele>174.7</ele>
        <time>2016-10-16T13:57:56.000Z</time>
      </trkpt>
      <trkpt lat="50.24579" lon="3.62855">
        <ele>174.9</ele>
        <time>2016-10-16T13:58:02.000Z</time>
      </trkpt>
      <trkpt lat="50.24571" lon="3.62871">
        <ele>176</ele>
        <time>2016-10-16T13:58:05.000Z</time>
      </trkpt>
      <trkpt lat="50.24572" lon="3.62903">
        <ele>175.9</ele>
        <time>2016-10-16T13:58:11.000Z</time>
      </trkpt>
      <trkpt lat="50.24572" lon="3.62934">
        <ele>174.7</ele>
        <time>2016-10-16T13:58:17.000Z</time>
      </trkpt>
      <trkpt lat="50.24581" lon="3.62954">
        <ele>175.7</ele>
        <time>2016-10-16T13:58:20.000Z</time>
      </trkpt>
      <trkpt lat="50.24575" lon="3.62962">
        <ele>173.7</ele>
        <time>2016-10-16T13:58:26.000Z</time>
      </trkpt>
      <trkpt lat="50.24572" lon="3.62987">
        <ele>170.9</ele>
        <time>2016-10-16T13:58:32.000Z</time>
      </trkpt>
      <trkpt lat="50.24547" lon="3.63014">
        <ele>171</ele>
        <time>2016-10-16T13:58:38.000Z</time>
      </trkpt>
      <trkpt lat="50.24539" lon="3.63054">
        <ele>168.1</ele>
        <time>2016-10-16T13:58:44.000Z</time>
      </trkpt>
      <trkpt lat="50.24539" lon="3.63034">
        <ele>168.3</ele>
        <time>2016-10-16T13:58:50.000Z</time>
      </trkpt>
      <trkpt lat="50.24538" lon="3.63052">
        <ele>164.6</ele>
        <time>2016-10-16T13:58:56.000Z</time>
      </trkpt>
      <trkpt lat="50.24548" lon="3.63053">
        <ele>162.1</ele>
        <time>2016-10-16T13:59:02.000Z</time>
      </trkpt>
      <trkpt lat="50.24557" lon="3.6304">
        <ele>163.4</ele>
        <time>2016-10-16T13:59:06.000Z</time>
      </trkpt>
      <trkpt lat="50.24565" lon="3.63034">
        <ele>165</ele>
        <time>2016-10-16T13:59:09.000Z</time>
      </trkpt>
      <trkpt lat="50.24575" lon="3.63029">
        <ele>162.4</ele>
        <time>2016-10-16T13:59:12.000Z</time>
      </trkpt>
      <trkpt lat="50.24586" lon="3.63024">
        <ele>161.4</ele>
        <time>2016-10-16T13:59:15.000Z</time>
      </trkpt>
      <trkpt lat="50.24598" lon="3.63014">
        <ele>162.4</ele>
        <time>2016-10-16T13:59:18.000Z</time>
      </trkpt>
      <trkpt lat="50.24607" lon="3.63018">
        <ele>163.6</ele>
        <time>2016-10-16T13:59:21.000Z</time>
      </trkpt>
      <trkpt lat="50.24606" lon="3.63006">
        <ele>165.2</ele>
        <time>2016-10-16T13:59:27.000Z</time>
      </trkpt>
      <trkpt lat="50.24602" lon="3.62984">
        <ele>171.9</ele>
        <time>2016-10-16T13:59:33.000Z</time>
      </trkpt>
      <trkpt lat="50.24611" lon="3.62962">
        <ele>167.2</ele>
        <time>2016-10-16T13:59:36.000Z</time>
      </trkpt>
      <trkpt lat="50.24606" lon="3.62949">
        <ele>164.8</ele>
        <time>2016-10-16T13:59:42.000Z</time>
      </trkpt>
      <trkpt lat="50.24601" lon="3.62973">
        <ele>171.5</ele>
        <time>2016-10-16T13:59:48.000Z</time>
      </trkpt>
      <trkpt lat="50.24604" lon="3.62978">
        <ele>173.8</ele>
        <time>2016-10-16T13:59:57.000Z</time>
      </trkpt>
      <trkpt lat="50.24611" lon="3.63003">
        <ele>179.8</ele>
        <time>2016-10-16T14:00:01.000Z</time>
      </trkpt>
      <trkpt lat="50.24669" lon="3.63035">
        <ele>180.3</ele>
        <time>2016-10-16T14:00:07.000Z</time>
      </trkpt>
      <trkpt lat="50.24691" lon="3.6308">
        <ele>177.5</ele>
        <time>2016-10-16T14:00:13.000Z</time>
      </trkpt>
      <trkpt lat="50.24691" lon="3.63094">
        <ele>183</ele>
        <time>2016-10-16T14:00:16.000Z</time>
      </trkpt>
      <trkpt lat="50.24638" lon="3.63118">
        <ele>177.1</ele>
        <time>2016-10-16T14:00:22.000Z</time>
      </trkpt>
      <trkpt lat="50.24631" lon="3.63134">
        <ele>177.6</ele>
        <time>2016-10-16T14:00:25.000Z</time>
      </trkpt>
      <trkpt lat="50.24622" lon="3.6313">
        <ele>176.4</ele>
        <time>2016-10-16T14:00:28.000Z</time>
      </trkpt>
      <trkpt lat="50.24637" lon="3.63143">
        <ele>170.1</ele>
        <time>2016-10-16T14:00:34.000Z</time>
      </trkpt>
      <trkpt lat="50.24635" lon="3.63105">
        <ele>165.4</ele>
        <time>2016-10-16T14:00:43.000Z</time>
      </trkpt>
      <trkpt lat="50.24618" lon="3.63107">
        <ele>163.7</ele>
        <time>2016-10-16T14:00:49.000Z</time>
      </trkpt>
      <trkpt lat="50.24608" lon="3.63105">
        <ele>163.7</ele>
        <time>2016-10-16T14:00:52.000Z</time>
      </trkpt>
      <trkpt lat="50.24592" lon="3.63103">
        <ele>158.8</ele>
        <time>2016-10-16T14:00:58.000Z</time>
      </trkpt>
      <trkpt lat="50.24585" lon="3.63103">
        <ele>160</ele>
        <time>2016-10-16T14:01:04.000Z</time>
      </trkpt>
      <trkpt lat="50.24577" lon="3.63113">
        <ele>167.2</ele>
        <time>2016-10-16T14:01:10.000Z</time>
      </trkpt>
      <trkpt lat="50.24569" lon="3.63132">
        <ele>170.8</ele>
        <time>2016-10-16T14:01:16.000Z</time>
      </trkpt>
      <trkpt lat="50.24541" lon="3.63126">
        <ele>169.4</ele>
        <time>2016-10-16T14:01:19.000Z</time>
      </trkpt>
      <trkpt lat="50.24508" lon="3.63128">
        <ele>169</ele>
        <time>2016-10-16T14:01:25.000Z</time>
      </trkpt>
      <trkpt lat="50.24489" lon="3.63114">
        <ele>166.4</ele>
        <time>2016-10-16T14:01:28.000Z</time>
      </trkpt>
      <trkpt lat="50.24498" lon="3.6313">
        <ele>169.2</ele>
        <time>2016-10-16T14:01:31.000Z</time>
      </trkpt>
      <trkpt lat="50.24476" lon="3.63123">
        <ele>173.7</ele>
        <time>2016-10-16T14:01:40.000Z</time>
      </trkpt>
      <trkpt lat="50.24468" lon="3.6314">
        <ele>179.8</ele>
        <time>2016-10-16T14:01:46.000Z</time>
      </trkpt>
      <trkpt lat="50.24465" lon="3.63153">
        <ele>182.3</ele>
        <time>2016-10-16T14:01:49.000Z</time>
      </trkpt>
      <trkpt lat="50.24441" lon="3.63178">
        <ele>176.8</ele>
        <time>2016-10-16T14:01:55.000Z</time>
      </trkpt>
      <trkpt lat="50.24443" lon="3.63223">
        <ele>181</ele>
        <time>2016-10-16T14:02:01.000Z</time>
      </trkpt>
      <trkpt lat="50.24448" lon="3.63243">
        <ele>177.8</ele>
        <time>2016-10-16T14:02:04.000Z</time>
      </trkpt>
      <trkpt lat="50.2447" lon="3.63298">
        <ele>178.7</ele>
        <time>2016-10-16T14:02:10.000Z</time>
      </trkpt>
      <trkpt lat="50.24463" lon="3.63297">
        <ele>187.3</ele>
        <time>2016-10-16T14:02:13.000Z</time>
      </trkpt>
      <trkpt lat="50.24468" lon="3.63307">
        <ele>184.5</ele>
        <time>2016-10-16T14:02:16.000Z</time>
      </trkpt>
      <trkpt lat="50.24471" lon="3.63347">
        <ele>193.3</ele>
        <time>2016-10-16T14:02:22.000Z</time>
      </trkpt>
      <trkpt lat="50.24473" lon="3.63361">
        <ele>194.9</ele>
        <time>2016-10-16T14:02:25.000Z</time>
      </trkpt>
      <trkpt lat="50.24471" lon="3.63385">
        <ele>191.9</ele>
        <time>2016-10-16T14:02:30.999Z</time>
      </trkpt>
      <trkpt lat="50.24466" lon="3.63422">
        <ele>182.1</ele>
        <time>2016-10-16T14:02:37.000Z</time>
      </trkpt>
      <trkpt lat="50.24472" lon="3.63457">
        <ele>182</ele>
        <time>2016-10-16T14:02:40.000Z</time>
      </trkpt>
      <trkpt lat="50.24465" lon="3.6349">
        <ele>181.2</ele>
        <time>2016-10-16T14:02:46.000Z</time>
      </trkpt>
      <trkpt lat="50.24462" lon="3.63501">
        <ele>182.5</ele>
        <time>2016-10-16T14:02:49.000Z</time>
      </trkpt>
      <trkpt lat="50.24457" lon="3.63548">
        <ele>180.3</ele>
        <time>2016-10-16T14:02:55.000Z</time>
      </trkpt>
      <trkpt lat="50.24454" lon="3.63575">
        <ele>179.3</ele>
        <time>2016-10-16T14:03:01.000Z</time>
      </trkpt>
      <trkpt lat="50.24458" lon="3.63598">
        <ele>175.4</ele>
        <time>2016-10-16T14:03:04.000Z</time>
      </trkpt>
      <trkpt lat="50.24459" lon="3.63643">
        <ele>175.7</ele>
        <time>2016-10-16T14:03:10.001Z</time>
      </trkpt>
      <trkpt lat="50.24465" lon="3.63648">
        <ele>177.9</ele>
        <time>2016-10-16T14:03:13.000Z</time>
      </trkpt>
      <trkpt lat="50.24473" lon="3.63672">
        <ele>180.3</ele>
        <time>2016-10-16T14:03:24.999Z</time>
      </trkpt>
      <trkpt lat="50.24492" lon="3.63708">
        <ele>177.1</ele>
        <time>2016-10-16T14:03:28.000Z</time>
      </trkpt>
      <trkpt lat="50.24507" lon="3.63713">
        <ele>169.2</ele>
        <time>2016-10-16T14:03:34.000Z</time>
      </trkpt>
      <trkpt lat="50.24511" lon="3.63713">
        <ele>166.8</ele>
        <time>2016-10-16T14:03:37.000Z</time>
      </trkpt>
      <trkpt lat="50.24516" lon="3.63711">
        <ele>167.2</ele>
        <time>2016-10-16T14:03:40.000Z</time>
      </trkpt>
      <trkpt lat="50.24531" lon="3.63692">
        <ele>168.6</ele>
        <time>2016-10-16T14:03:46.000Z</time>
      </trkpt>
      <trkpt lat="50.24551" lon="3.63681">
        <ele>172.5</ele>
        <time>2016-10-16T14:03:52.000Z</time>
      </trkpt>
      <trkpt lat="50.24558" lon="3.63682">
        <ele>171.9</ele>
        <time>2016-10-16T14:03:55.000Z</time>
      </trkpt>
      <trkpt lat="50.24558" lon="3.63702">
        <ele>184.1</ele>
        <time>2016-10-16T14:04:07.000Z</time>
      </trkpt>
      <trkpt lat="50.24563" lon="3.63742">
        <ele>189.6</ele>
        <time>2016-10-16T14:04:13.000Z</time>
      </trkpt>
      <trkpt lat="50.24552" lon="3.63746">
        <ele>191.4</ele>
        <time>2016-10-16T14:04:16.000Z</time>
      </trkpt>
      <trkpt lat="50.24544" lon="3.63759">
        <ele>190.4</ele>
        <time>2016-10-16T14:04:19.000Z</time>
      </trkpt>
      <trkpt lat="50.24533" lon="3.63775">
        <ele>192</ele>
        <time>2016-10-16T14:04:25.000Z</time>
      </trkpt>
      <trkpt lat="50.24531" lon="3.63806">
        <ele>190.9</ele>
        <time>2016-10-16T14:04:31.000Z</time>
      </trkpt>
      <trkpt lat="50.24526" lon="3.63857">
        <ele>201.9</ele>
        <time>2016-10-16T14:04:37.000Z</time>
      </trkpt>
      <trkpt lat="50.24535" lon="3.63905">
        <ele>202.6</ele>
        <time>2016-10-16T14:04:43.000Z</time>
      </trkpt>
      <trkpt lat="50.24551" lon="3.63953">
        <ele>200.7</ele>
        <time>2016-10-16T14:04:49.000Z</time>
      </trkpt>
      <trkpt lat="50.2456" lon="3.63967">
        <ele>202.1</ele>
        <time>2016-10-16T14:04:52.000Z</time>
      </trkpt>
      <trkpt lat="50.24594" lon="3.64002">
        <ele>201.2</ele>
        <time>2016-10-16T14:04:58.000Z</time>
      </trkpt>
      <trkpt lat="50.24611" lon="3.64016">
        <ele>199.9</ele>
        <time>2016-10-16T14:05:01.000Z</time>
      </trkpt>
      <trkpt lat="50.24634" lon="3.64042">
        <ele>194.2</ele>
        <time>2016-10-16T14:05:04.000Z</time>
      </trkpt>
      <trkpt lat="50.24662" lon="3.64058">
        <ele>189</ele>
        <time>2016-10-16T14:05:09.999Z</time>
      </trkpt>
      <trkpt lat="50.24643" lon="3.64079">
        <ele>187.6</ele>
        <time>2016-10-16T14:05:17.000Z</time>
      </trkpt>
      <trkpt lat="50.24638" lon="3.64087">
        <ele>191.2</ele>
        <time>2016-10-16T14:05:20.000Z</time>
      </trkpt>
      <trkpt lat="50.24626" lon="3.64115">
        <ele>194.6</ele>
        <time>2016-10-16T14:05:26.000Z</time>
      </trkpt>
      <trkpt lat="50.24622" lon="3.6414">
        <ele>194</ele>
        <time>2016-10-16T14:05:32.000Z</time>
      </trkpt>
      <trkpt lat="50.24609" lon="3.64164">
        <ele>192.3</ele>
        <time>2016-10-16T14:05:35.000Z</time>
      </trkpt>
      <trkpt lat="50.24595" lon="3.64181">
        <ele>193</ele>
        <time>2016-10-16T14:05:39.000Z</time>
      </trkpt>
      <trkpt lat="50.24582" lon="3.64195">
        <ele>193.3</ele>
        <time>2016-10-16T14:05:45.000Z</time>
      </trkpt>
      <trkpt lat="50.2457" lon="3.6418">
        <ele>187.7</ele>
        <time>2016-10-16T14:05:55.000Z</time>
      </trkpt>
      <trkpt lat="50.2455" lon="3.64136">
        <ele>178.6</ele>
        <time>2016-10-16T14:05:59.000Z</time>
      </trkpt>
      <trkpt lat="50.24534" lon="3.64113">
        <ele>177.2</ele>
        <time>2016-10-16T14:06:05.000Z</time>
      </trkpt>
      <trkpt lat="50.24497" lon="3.64091">
        <ele>179.3</ele>
        <time>2016-10-16T14:06:11.000Z</time>
      </trkpt>
      <trkpt lat="50.24467" lon="3.64078">
        <ele>181</ele>
        <time>2016-10-16T14:06:17.000Z</time>
      </trkpt>
      <trkpt lat="50.24459" lon="3.64071">
        <ele>182.4</ele>
        <time>2016-10-16T14:06:20.000Z</time>
      </trkpt>
      <trkpt lat="50.24442" lon="3.6403">
        <ele>184.5</ele>
        <time>2016-10-16T14:06:26.000Z</time>
      </trkpt>
      <trkpt lat="50.24438" lon="3.64026">
        <ele>188</ele>
        <time>2016-10-16T14:06:29.000Z</time>
      </trkpt>
      <trkpt lat="50.24415" lon="3.63967">
        <ele>185.6</ele>
        <time>2016-10-16T14:06:35.000Z</time>
      </trkpt>
      <trkpt lat="50.24408" lon="3.63951">
        <ele>183.4</ele>
        <time>2016-10-16T14:06:38.000Z</time>
      </trkpt>
      <trkpt lat="50.24398" lon="3.63928">
        <ele>178.3</ele>
        <time>2016-10-16T14:06:44.000Z</time>
      </trkpt>
      <trkpt lat="50.24385" lon="3.63902">
        <ele>173.1</ele>
        <time>2016-10-16T14:06:48.000Z</time>
      </trkpt>
      <trkpt lat="50.24381" lon="3.63893">
        <ele>170</ele>
        <time>2016-10-16T14:06:51.000Z</time>
      </trkpt>
      <trkpt lat="50.24371" lon="3.63876">
        <ele>176.9</ele>
        <time>2016-10-16T14:06:57.000Z</time>
      </trkpt>
      <trkpt lat="50.24342" lon="3.63854">
        <ele>175.1</ele>
        <time>2016-10-16T14:07:03.000Z</time>
      </trkpt>
      <trkpt lat="50.24345" lon="3.63837">
        <ele>177.8</ele>
        <time>2016-10-16T14:07:06.000Z</time>
      </trkpt>
      <trkpt lat="50.24336" lon="3.63807">
        <ele>178.7</ele>
        <time>2016-10-16T14:07:11.999Z</time>
      </trkpt>
      <trkpt lat="50.24331" lon="3.63791">
        <ele>176.2</ele>
        <time>2016-10-16T14:07:15.000Z</time>
      </trkpt>
      <trkpt lat="50.24324" lon="3.63792">
        <ele>180.6</ele>
        <time>2016-10-16T14:07:21.000Z</time>
      </trkpt>
      <trkpt lat="50.24318" lon="3.63784">
        <ele>179.8</ele>
        <time>2016-10-16T14:07:24.000Z</time>
      </trkpt>
      <trkpt lat="50.24305" lon="3.63782">
        <ele>182.2</ele>
        <time>2016-10-16T14:07:27.000Z</time>
      </trkpt>
      <trkpt lat="50.24282" lon="3.6376">
        <ele>183.2</ele>
        <time>2016-10-16T14:07:33.000Z</time>
      </trkpt>
      <trkpt lat="50.24244" lon="3.63735">
        <ele>181.7</ele>
        <time>2016-10-16T14:07:39.000Z</time>
      </trkpt>
      <trkpt lat="50.24212" lon="3.63718">
        <ele>178.2</ele>
        <time>2016-10-16T14:07:45.000Z</time>
      </trkpt>
      <trkpt lat="50.24176" lon="3.63703">
        <ele>175.9</ele>
        <time>2016-10-16T14:07:51.000Z</time>
      </trkpt>
      <trkpt lat="50.24155" lon="3.63696">
        <ele>177</ele>
        <time>2016-10-16T14:07:54.000Z</time>
      </trkpt>
      <trkpt lat="50.24127" lon="3.63678">
        <ele>173.1</ele>
        <time>2016-10-16T14:08:00.000Z</time>
      </trkpt>
      <trkpt lat="50.24119" lon="3.63666">
        <ele>173.4</ele>
        <time>2016-10-16T14:08:03.000Z</time>
      </trkpt>
      <trkpt lat="50.24102" lon="3.63645">
        <ele>168.4</ele>
        <time>2016-10-16T14:08:09.000Z</time>
      </trkpt>
      <trkpt lat="50.24093" lon="3.63634">
        <ele>175.3</ele>
        <time>2016-10-16T14:08:12.000Z</time>
      </trkpt>
      <trkpt lat="50.24082" lon="3.63625">
        <ele>182.4</ele>
        <time>2016-10-16T14:08:15.000Z</time>
      </trkpt>
      <trkpt lat="50.24067" lon="3.63612">
        <ele>182.6</ele>
        <time>2016-10-16T14:08:21.000Z</time>
      </trkpt>
      <trkpt lat="50.24056" lon="3.63599">
        <ele>182.8</ele>
        <time>2016-10-16T14:08:24.000Z</time>
      </trkpt>
      <trkpt lat="50.24031" lon="3.63583">
        <ele>182.1</ele>
        <time>2016-10-16T14:08:30.000Z</time>
      </trkpt>
      <trkpt lat="50.23994" lon="3.6357">
        <ele>178</ele>
        <time>2016-10-16T14:08:36.000Z</time>
      </trkpt>
      <trkpt lat="50.23982" lon="3.63556">
        <ele>175.2</ele>
        <time>2016-10-16T14:08:39.000Z</time>
      </trkpt>
      <trkpt lat="50.23968" lon="3.63542">
        <ele>175.9</ele>
        <time>2016-10-16T14:08:42.000Z</time>
      </trkpt>
      <trkpt lat="50.23937" lon="3.63517">
        <ele>173.4</ele>
        <time>2016-10-16T14:08:48.000Z</time>
      </trkpt>
      <trkpt lat="50.23908" lon="3.63493">
        <ele>174.7</ele>
        <time>2016-10-16T14:08:54.000Z</time>
      </trkpt>
      <trkpt lat="50.23885" lon="3.63478">
        <ele>173.7</ele>
        <time>2016-10-16T14:08:57.000Z</time>
      </trkpt>
      <trkpt lat="50.23845" lon="3.6345">
        <ele>169.8</ele>
        <time>2016-10-16T14:09:03.000Z</time>
      </trkpt>
      <trkpt lat="50.23809" lon="3.63429">
        <ele>171</ele>
        <time>2016-10-16T14:09:09.000Z</time>
      </trkpt>
      <trkpt lat="50.23771" lon="3.63421">
        <ele>170.4</ele>
        <time>2016-10-16T14:09:15.000Z</time>
      </trkpt>
      <trkpt lat="50.23732" lon="3.63417">
        <ele>171</ele>
        <time>2016-10-16T14:09:21.000Z</time>
      </trkpt>
      <trkpt lat="50.23732" lon="3.63376">
        <ele>174.6</ele>
        <time>2016-10-16T14:09:27.000Z</time>
      </trkpt>
      <trkpt lat="50.23709" lon="3.63339">
        <ele>167.3</ele>
        <time>2016-10-16T14:09:33.000Z</time>
      </trkpt>
      <trkpt lat="50.23691" lon="3.63313">
        <ele>167.6</ele>
        <time>2016-10-16T14:09:39.000Z</time>
      </trkpt>
      <trkpt lat="50.2365" lon="3.63275">
        <ele>162.2</ele>
        <time>2016-10-16T14:09:45.000Z</time>
      </trkpt>
      <trkpt lat="50.23641" lon="3.63252">
        <ele>159.3</ele>
        <time>2016-10-16T14:09:48.000Z</time>
      </trkpt>
      <trkpt lat="50.23626" lon="3.63238">
        <ele>160.8</ele>
        <time>2016-10-16T14:09:51.000Z</time>
      </trkpt>
      <trkpt lat="50.23616" lon="3.63218">
        <ele>161.4</ele>
        <time>2016-10-16T14:09:54.000Z</time>
      </trkpt>
      <trkpt lat="50.23599" lon="3.63199">
        <ele>161.7</ele>
        <time>2016-10-16T14:09:57.000Z</time>
      </trkpt>
      <trkpt lat="50.2357" lon="3.63161">
        <ele>157.5</ele>
        <time>2016-10-16T14:10:03.000Z</time>
      </trkpt>
      <trkpt lat="50.23557" lon="3.63144">
        <ele>158.1</ele>
        <time>2016-10-16T14:10:06.000Z</time>
      </trkpt>
      <trkpt lat="50.23534" lon="3.63099">
        <ele>156.2</ele>
        <time>2016-10-16T14:10:12.000Z</time>
      </trkpt>
      <trkpt lat="50.2352" lon="3.63085">
        <ele>155.7</ele>
        <time>2016-10-16T14:10:15.000Z</time>
      </trkpt>
      <trkpt lat="50.235" lon="3.63078">
        <ele>155.7</ele>
        <time>2016-10-16T14:10:18.000Z</time>
      </trkpt>
      <trkpt lat="50.23475" lon="3.63053">
        <ele>154.8</ele>
        <time>2016-10-16T14:10:24.000Z</time>
      </trkpt>
      <trkpt lat="50.23467" lon="3.63033">
        <ele>154</ele>
        <time>2016-10-16T14:10:27.000Z</time>
      </trkpt>
      <trkpt lat="50.2344" lon="3.62997">
        <ele>154.6</ele>
        <time>2016-10-16T14:10:33.000Z</time>
      </trkpt>
      <trkpt lat="50.23415" lon="3.62999">
        <ele>158.6</ele>
        <time>2016-10-16T14:10:39.000Z</time>
      </trkpt>
      <trkpt lat="50.23415" lon="3.62967">
        <ele>161.2</ele>
        <time>2016-10-16T14:10:45.000Z</time>
      </trkpt>
      <trkpt lat="50.23398" lon="3.62956">
        <ele>164.2</ele>
        <time>2016-10-16T14:10:48.000Z</time>
      </trkpt>
      <trkpt lat="50.23392" lon="3.62947">
        <ele>165.7</ele>
        <time>2016-10-16T14:10:51.000Z</time>
      </trkpt>
      <trkpt lat="50.23364" lon="3.62933">
        <ele>168</ele>
        <time>2016-10-16T14:10:57.000Z</time>
      </trkpt>
      <trkpt lat="50.23359" lon="3.62918">
        <ele>168.2</ele>
        <time>2016-10-16T14:11:00.000Z</time>
      </trkpt>
      <trkpt lat="50.23341" lon="3.62893">
        <ele>172.9</ele>
        <time>2016-10-16T14:11:06.000Z</time>
      </trkpt>
      <trkpt lat="50.23336" lon="3.62882">
        <ele>170.1</ele>
        <time>2016-10-16T14:11:09.000Z</time>
      </trkpt>
      <trkpt lat="50.23325" lon="3.6287">
        <ele>170.4</ele>
        <time>2016-10-16T14:11:12.000Z</time>
      </trkpt>
      <trkpt lat="50.23304" lon="3.62834">
        <ele>168.1</ele>
        <time>2016-10-16T14:11:17.999Z</time>
      </trkpt>
      <trkpt lat="50.23297" lon="3.62823">
        <ele>174.2</ele>
        <time>2016-10-16T14:11:22.000Z</time>
      </trkpt>
      <trkpt lat="50.23283" lon="3.62809">
        <ele>174.1</ele>
        <time>2016-10-16T14:11:26.000Z</time>
      </trkpt>
      <trkpt lat="50.23275" lon="3.62777">
        <ele>168</ele>
        <time>2016-10-16T14:11:29.000Z</time>
      </trkpt>
      <trkpt lat="50.23248" lon="3.62739">
        <ele>167.7</ele>
        <time>2016-10-16T14:11:35.000Z</time>
      </trkpt>
      <trkpt lat="50.23231" lon="3.62722">
        <ele>168.9</ele>
        <time>2016-10-16T14:11:38.000Z</time>
      </trkpt>
      <trkpt lat="50.23204" lon="3.62681">
        <ele>169.3</ele>
        <time>2016-10-16T14:11:44.000Z</time>
      </trkpt>
      <trkpt lat="50.2319" lon="3.62652">
        <ele>171.7</ele>
        <time>2016-10-16T14:11:50.000Z</time>
      </trkpt>
      <trkpt lat="50.23156" lon="3.62613">
        <ele>171.8</ele>
        <time>2016-10-16T14:11:56.000Z</time>
      </trkpt>
      <trkpt lat="50.2314" lon="3.62596">
        <ele>172.4</ele>
        <time>2016-10-16T14:11:59.000Z</time>
      </trkpt>
      <trkpt lat="50.23133" lon="3.62582">
        <ele>173.7</ele>
        <time>2016-10-16T14:12:02.000Z</time>
      </trkpt>
      <trkpt lat="50.2311" lon="3.62532">
        <ele>175.8</ele>
        <time>2016-10-16T14:12:08.000Z</time>
      </trkpt>
      <trkpt lat="50.23066" lon="3.62498">
        <ele>165.6</ele>
        <time>2016-10-16T14:12:14.000Z</time>
      </trkpt>
      <trkpt lat="50.23046" lon="3.62468">
        <ele>163.8</ele>
        <time>2016-10-16T14:12:20.000Z</time>
      </trkpt>
      <trkpt lat="50.23008" lon="3.62437">
        <ele>164.1</ele>
        <time>2016-10-16T14:12:26.000Z</time>
      </trkpt>
      <trkpt lat="50.22977" lon="3.62406">
        <ele>166.5</ele>
        <time>2016-10-16T14:12:32.000Z</time>
      </trkpt>
      <trkpt lat="50.22957" lon="3.62386">
        <ele>163.4</ele>
        <time>2016-10-16T14:12:35.000Z</time>
      </trkpt>
      <trkpt lat="50.22916" lon="3.62335">
        <ele>161.3</ele>
        <time>2016-10-16T14:12:41.000Z</time>
      </trkpt>
      <trkpt lat="50.22871" lon="3.62299">
        <ele>161.9</ele>
        <time>2016-10-16T14:12:47.000Z</time>
      </trkpt>
      <trkpt lat="50.22846" lon="3.6228">
        <ele>159.9</ele>
        <time>2016-10-16T14:12:50.000Z</time>
      </trkpt>
      <trkpt lat="50.22826" lon="3.62256">
        <ele>158.4</ele>
        <time>2016-10-16T14:12:53.000Z</time>
      </trkpt>
      <trkpt lat="50.22776" lon="3.62217">
        <ele>155</ele>
        <time>2016-10-16T14:12:59.000Z</time>
      </trkpt>
      <trkpt lat="50.22739" lon="3.62167">
        <ele>153.9</ele>
        <time>2016-10-16T14:13:05.000Z</time>
      </trkpt>
      <trkpt lat="50.22725" lon="3.6214">
        <ele>154.4</ele>
        <time>2016-10-16T14:13:11.000Z</time>
      </trkpt>
      <trkpt lat="50.22688" lon="3.62091">
        <ele>155.8</ele>
        <time>2016-10-16T14:13:14.000Z</time>
      </trkpt>
      <trkpt lat="50.22661" lon="3.62029">
        <ele>158</ele>
        <time>2016-10-16T14:13:20.000Z</time>
      </trkpt>
      <trkpt lat="50.22628" lon="3.61986">
        <ele>154.1</ele>
        <time>2016-10-16T14:13:26.000Z</time>
      </trkpt>
      <trkpt lat="50.22614" lon="3.61974">
        <ele>154.2</ele>
        <time>2016-10-16T14:13:29.000Z</time>
      </trkpt>
      <trkpt lat="50.22578" lon="3.6194">
        <ele>156.1</ele>
        <time>2016-10-16T14:13:35.000Z</time>
      </trkpt>
      <trkpt lat="50.22543" lon="3.61903">
        <ele>152.5</ele>
        <time>2016-10-16T14:13:41.000Z</time>
      </trkpt>
      <trkpt lat="50.22532" lon="3.61937">
        <ele>150.7</ele>
        <time>2016-10-16T14:13:44.000Z</time>
      </trkpt>
      <trkpt lat="50.2253" lon="3.61998">
        <ele>147.8</ele>
        <time>2016-10-16T14:13:50.000Z</time>
      </trkpt>
      <trkpt lat="50.22529" lon="3.62073">
        <ele>149.7</ele>
        <time>2016-10-16T14:13:56.000Z</time>
      </trkpt>
      <trkpt lat="50.22505" lon="3.62121">
        <ele>150.8</ele>
        <time>2016-10-16T14:14:01.998Z</time>
      </trkpt>
      <trkpt lat="50.22487" lon="3.62139">
        <ele>150.1</ele>
        <time>2016-10-16T14:14:06.000Z</time>
      </trkpt>
      <trkpt lat="50.2245" lon="3.62194">
        <ele>152.7</ele>
        <time>2016-10-16T14:14:12.000Z</time>
      </trkpt>
      <trkpt lat="50.22438" lon="3.62217">
        <ele>153.1</ele>
        <time>2016-10-16T14:14:15.000Z</time>
      </trkpt>
      <trkpt lat="50.22412" lon="3.62248">
        <ele>153.7</ele>
        <time>2016-10-16T14:14:21.000Z</time>
      </trkpt>
      <trkpt lat="50.22399" lon="3.62264">
        <ele>153.6</ele>
        <time>2016-10-16T14:14:24.000Z</time>
      </trkpt>
      <trkpt lat="50.22389" lon="3.62298">
        <ele>158.2</ele>
        <time>2016-10-16T14:14:29.999Z</time>
      </trkpt>
      <trkpt lat="50.22387" lon="3.62311">
        <ele>154.8</ele>
        <time>2016-10-16T14:14:33.000Z</time>
      </trkpt>
      <trkpt lat="50.22381" lon="3.62336">
        <ele>158.3</ele>
        <time>2016-10-16T14:14:36.000Z</time>
      </trkpt>
      <trkpt lat="50.22371" lon="3.6235">
        <ele>157.4</ele>
        <time>2016-10-16T14:14:41.999Z</time>
      </trkpt>
      <trkpt lat="50.22354" lon="3.62369">
        <ele>159.2</ele>
        <time>2016-10-16T14:14:45.000Z</time>
      </trkpt>
      <trkpt lat="50.22335" lon="3.6238">
        <ele>160.4</ele>
        <time>2016-10-16T14:14:48.000Z</time>
      </trkpt>
      <trkpt lat="50.22312" lon="3.62397">
        <ele>162.4</ele>
        <time>2016-10-16T14:14:57.000Z</time>
      </trkpt>
      <trkpt lat="50.22307" lon="3.62432">
        <ele>165.2</ele>
        <time>2016-10-16T14:15:03.000Z</time>
      </trkpt>
      <trkpt lat="50.22296" lon="3.62438">
        <ele>163.3</ele>
        <time>2016-10-16T14:15:06.000Z</time>
      </trkpt>
      <trkpt lat="50.22284" lon="3.62453">
        <ele>163.9</ele>
        <time>2016-10-16T14:15:12.000Z</time>
      </trkpt>
      <trkpt lat="50.22279" lon="3.62465">
        <ele>162.4</ele>
        <time>2016-10-16T14:15:15.000Z</time>
      </trkpt>
      <trkpt lat="50.22267" lon="3.62489">
        <ele>166.8</ele>
        <time>2016-10-16T14:15:21.000Z</time>
      </trkpt>
      <trkpt lat="50.22245" lon="3.6253">
        <ele>170.1</ele>
        <time>2016-10-16T14:15:30.000Z</time>
      </trkpt>
      <trkpt lat="50.22241" lon="3.62544">
        <ele>170.6</ele>
        <time>2016-10-16T14:15:33.000Z</time>
      </trkpt>
      <trkpt lat="50.22232" lon="3.62575">
        <ele>170.5</ele>
        <time>2016-10-16T14:15:39.000Z</time>
      </trkpt>
      <trkpt lat="50.22209" lon="3.62587">
        <ele>163.8</ele>
        <time>2016-10-16T14:15:45.001Z</time>
      </trkpt>
      <trkpt lat="50.222" lon="3.62586">
        <ele>166.9</ele>
        <time>2016-10-16T14:15:48.000Z</time>
      </trkpt>
      <trkpt lat="50.22191" lon="3.62586">
        <ele>174</ele>
        <time>2016-10-16T14:15:54.000Z</time>
      </trkpt>
      <trkpt lat="50.22184" lon="3.62589">
        <ele>174.7</ele>
        <time>2016-10-16T14:15:57.000Z</time>
      </trkpt>
      <trkpt lat="50.22178" lon="3.62589">
        <ele>175.4</ele>
        <time>2016-10-16T14:16:00.000Z</time>
      </trkpt>
      <trkpt lat="50.22171" lon="3.62593">
        <ele>176.7</ele>
        <time>2016-10-16T14:16:05.999Z</time>
      </trkpt>
      <trkpt lat="50.22155" lon="3.62592">
        <ele>177.3</ele>
        <time>2016-10-16T14:16:09.000Z</time>
      </trkpt>
      <trkpt lat="50.22147" lon="3.62594">
        <ele>178.2</ele>
        <time>2016-10-16T14:16:11.999Z</time>
      </trkpt>
      <trkpt lat="50.22118" lon="3.62619">
        <ele>176.6</ele>
        <time>2016-10-16T14:16:18.000Z</time>
      </trkpt>
      <trkpt lat="50.221" lon="3.62632">
        <ele>179.1</ele>
        <time>2016-10-16T14:16:24.000Z</time>
      </trkpt>
      <trkpt lat="50.22088" lon="3.62632">
        <ele>178.2</ele>
        <time>2016-10-16T14:16:27.000Z</time>
      </trkpt>
      <trkpt lat="50.22065" lon="3.6264">
        <ele>176.3</ele>
        <time>2016-10-16T14:16:33.000Z</time>
      </trkpt>
      <trkpt lat="50.22052" lon="3.62646">
        <ele>174.4</ele>
        <time>2016-10-16T14:16:36.000Z</time>
      </trkpt>
      <trkpt lat="50.22024" lon="3.62658">
        <ele>176.6</ele>
        <time>2016-10-16T14:16:42.000Z</time>
      </trkpt>
      <trkpt lat="50.22001" lon="3.62664">
        <ele>178.4</ele>
        <time>2016-10-16T14:16:48.000Z</time>
      </trkpt>
      <trkpt lat="50.21993" lon="3.62669">
        <ele>178.6</ele>
        <time>2016-10-16T14:16:51.000Z</time>
      </trkpt>
      <trkpt lat="50.21981" lon="3.62685">
        <ele>179.8</ele>
        <time>2016-10-16T14:16:57.000Z</time>
      </trkpt>
      <trkpt lat="50.21959" lon="3.627">
        <ele>178.7</ele>
        <time>2016-10-16T14:17:03.000Z</time>
      </trkpt>
      <trkpt lat="50.21925" lon="3.62692">
        <ele>177.3</ele>
        <time>2016-10-16T14:17:09.000Z</time>
      </trkpt>
      <trkpt lat="50.21898" lon="3.62696">
        <ele>171.8</ele>
        <time>2016-10-16T14:17:15.000Z</time>
      </trkpt>
      <trkpt lat="50.21879" lon="3.62696">
        <ele>175.4</ele>
        <time>2016-10-16T14:17:18.000Z</time>
      </trkpt>
      <trkpt lat="50.2187" lon="3.62701">
        <ele>174.6</ele>
        <time>2016-10-16T14:17:21.000Z</time>
      </trkpt>
      <trkpt lat="50.21858" lon="3.62703">
        <ele>174</ele>
        <time>2016-10-16T14:17:23.998Z</time>
      </trkpt>
      <trkpt lat="50.21831" lon="3.62703">
        <ele>174.4</ele>
        <time>2016-10-16T14:17:30.000Z</time>
      </trkpt>
      <trkpt lat="50.21816" lon="3.62698">
        <ele>173.7</ele>
        <time>2016-10-16T14:17:33.000Z</time>
      </trkpt>
      <trkpt lat="50.21804" lon="3.62701">
        <ele>172.8</ele>
        <time>2016-10-16T14:17:36.000Z</time>
      </trkpt>
      <trkpt lat="50.21778" lon="3.62711">
        <ele>174.3</ele>
        <time>2016-10-16T14:17:42.000Z</time>
      </trkpt>
      <trkpt lat="50.21759" lon="3.62714">
        <ele>173.4</ele>
        <time>2016-10-16T14:17:48.000Z</time>
      </trkpt>
      <trkpt lat="50.2176" lon="3.62724">
        <ele>179.8</ele>
        <time>2016-10-16T14:17:52.000Z</time>
      </trkpt>
      <trkpt lat="50.2175" lon="3.62732">
        <ele>179.4</ele>
        <time>2016-10-16T14:17:58.000Z</time>
      </trkpt>
      <trkpt lat="50.21736" lon="3.62739">
        <ele>178.8</ele>
        <time>2016-10-16T14:18:04.000Z</time>
      </trkpt>
      <trkpt lat="50.21725" lon="3.62746">
        <ele>182.4</ele>
        <time>2016-10-16T14:18:10.000Z</time>
      </trkpt>
      <trkpt lat="50.21705" lon="3.62744">
        <ele>182.5</ele>
        <time>2016-10-16T14:18:16.000Z</time>
      </trkpt>
      <trkpt lat="50.21683" lon="3.62743">
        <ele>183.4</ele>
        <time>2016-10-16T14:18:22.000Z</time>
      </trkpt>
      <trkpt lat="50.21671" lon="3.62744">
        <ele>183.1</ele>
        <time>2016-10-16T14:18:25.000Z</time>
      </trkpt>
      <trkpt lat="50.21645" lon="3.62741">
        <ele>178.8</ele>
        <time>2016-10-16T14:18:31.000Z</time>
      </trkpt>
      <trkpt lat="50.21615" lon="3.62751">
        <ele>179.7</ele>
        <time>2016-10-16T14:18:37.000Z</time>
      </trkpt>
      <trkpt lat="50.21582" lon="3.62773">
        <ele>172.8</ele>
        <time>2016-10-16T14:18:43.000Z</time>
      </trkpt>
      <trkpt lat="50.21563" lon="3.62788">
        <ele>165.9</ele>
        <time>2016-10-16T14:18:49.000Z</time>
      </trkpt>
      <trkpt lat="50.21528" lon="3.62797">
        <ele>162.8</ele>
        <time>2016-10-16T14:18:55.001Z</time>
      </trkpt>
      <trkpt lat="50.21512" lon="3.62809">
        <ele>168.8</ele>
        <time>2016-10-16T14:19:01.000Z</time>
      </trkpt>
      <trkpt lat="50.21503" lon="3.62818">
        <ele>168.8</ele>
        <time>2016-10-16T14:19:03.999Z</time>
      </trkpt>
      <trkpt lat="50.2151" lon="3.62848">
        <ele>171.8</ele>
        <time>2016-10-16T14:19:07.000Z</time>
      </trkpt>
      <trkpt lat="50.21484" lon="3.62858">
        <ele>172.6</ele>
        <time>2016-10-16T14:19:14.000Z</time>
      </trkpt>
      <trkpt lat="50.21475" lon="3.62869">
        <ele>172.8</ele>
        <time>2016-10-16T14:19:18.000Z</time>
      </trkpt>
      <trkpt lat="50.21466" lon="3.62873">
        <ele>169.4</ele>
        <time>2016-10-16T14:19:21.000Z</time>
      </trkpt>
      <trkpt lat="50.2144" lon="3.62879">
        <ele>170.9</ele>
        <time>2016-10-16T14:19:27.000Z</time>
      </trkpt>
      <trkpt lat="50.21417" lon="3.6288">
        <ele>174.3</ele>
        <time>2016-10-16T14:19:33.000Z</time>
      </trkpt>
      <trkpt lat="50.21409" lon="3.62885">
        <ele>176.9</ele>
        <time>2016-10-16T14:19:36.000Z</time>
      </trkpt>
      <trkpt lat="50.21403" lon="3.62886">
        <ele>178</ele>
        <time>2016-10-16T14:19:39.000Z</time>
      </trkpt>
      <trkpt lat="50.21395" lon="3.62884">
        <ele>177.7</ele>
        <time>2016-10-16T14:19:42.000Z</time>
      </trkpt>
      <trkpt lat="50.21376" lon="3.62889">
        <ele>177.9</ele>
        <time>2016-10-16T14:19:48.000Z</time>
      </trkpt>
      <trkpt lat="50.21372" lon="3.62892">
        <ele>178.7</ele>
        <time>2016-10-16T14:19:51.000Z</time>
      </trkpt>
      <trkpt lat="50.21352" lon="3.629">
        <ele>178.8</ele>
        <time>2016-10-16T14:19:57.000Z</time>
      </trkpt>
      <trkpt lat="50.21339" lon="3.62912">
        <ele>181.7</ele>
        <time>2016-10-16T14:20:03.000Z</time>
      </trkpt>
      <trkpt lat="50.21332" lon="3.62916">
        <ele>183.8</ele>
        <time>2016-10-16T14:20:06.000Z</time>
      </trkpt>
      <trkpt lat="50.21313" lon="3.62939">
        <ele>185.8</ele>
        <time>2016-10-16T14:20:15.000Z</time>
      </trkpt>
      <trkpt lat="50.21289" lon="3.6298">
        <ele>185.2</ele>
        <time>2016-10-16T14:20:22.000Z</time>
      </trkpt>
      <trkpt lat="50.21269" lon="3.62982">
        <ele>191.8</ele>
        <time>2016-10-16T14:20:26.000Z</time>
      </trkpt>
      <trkpt lat="50.2126" lon="3.62992">
        <ele>192.5</ele>
        <time>2016-10-16T14:20:29.000Z</time>
      </trkpt>
      <trkpt lat="50.21242" lon="3.63017">
        <ele>194.6</ele>
        <time>2016-10-16T14:20:35.000Z</time>
      </trkpt>
      <trkpt lat="50.21235" lon="3.63033">
        <ele>194.3</ele>
        <time>2016-10-16T14:20:38.000Z</time>
      </trkpt>
      <trkpt lat="50.21218" lon="3.63062">
        <ele>195.9</ele>
        <time>2016-10-16T14:20:45.000Z</time>
      </trkpt>
      <trkpt lat="50.21207" lon="3.63077">
        <ele>194.2</ele>
        <time>2016-10-16T14:20:49.000Z</time>
      </trkpt>
      <trkpt lat="50.21201" lon="3.63087">
        <ele>193.6</ele>
        <time>2016-10-16T14:20:52.000Z</time>
      </trkpt>
      <trkpt lat="50.21193" lon="3.63097">
        <ele>192.4</ele>
        <time>2016-10-16T14:20:55.000Z</time>
      </trkpt>
      <trkpt lat="50.21179" lon="3.63129">
        <ele>194.2</ele>
        <time>2016-10-16T14:21:01.000Z</time>
      </trkpt>
      <trkpt lat="50.21167" lon="3.63138">
        <ele>196</ele>
        <time>2016-10-16T14:21:04.000Z</time>
      </trkpt>
      <trkpt lat="50.21139" lon="3.63155">
        <ele>183.8</ele>
        <time>2016-10-16T14:21:10.000Z</time>
      </trkpt>
      <trkpt lat="50.21115" lon="3.63186">
        <ele>174.6</ele>
        <time>2016-10-16T14:21:16.000Z</time>
      </trkpt>
      <trkpt lat="50.21108" lon="3.63189">
        <ele>184.5</ele>
        <time>2016-10-16T14:21:22.000Z</time>
      </trkpt>
      <trkpt lat="50.211" lon="3.63205">
        <ele>189.6</ele>
        <time>2016-10-16T14:21:28.000Z</time>
      </trkpt>
      <trkpt lat="50.21096" lon="3.63219">
        <ele>198.7</ele>
        <time>2016-10-16T14:21:31.000Z</time>
      </trkpt>
      <trkpt lat="50.21076" lon="3.6324">
        <ele>201.6</ele>
        <time>2016-10-16T14:21:37.000Z</time>
      </trkpt>
      <trkpt lat="50.21071" lon="3.63254">
        <ele>200.2</ele>
        <time>2016-10-16T14:21:40.000Z</time>
      </trkpt>
      <trkpt lat="50.21059" lon="3.63282">
        <ele>192.4</ele>
        <time>2016-10-16T14:21:46.000Z</time>
      </trkpt>
      <trkpt lat="50.21047" lon="3.6329">
        <ele>194.5</ele>
        <time>2016-10-16T14:21:49.000Z</time>
      </trkpt>
      <trkpt lat="50.21033" lon="3.63293">
        <ele>194.4</ele>
        <time>2016-10-16T14:21:52.000Z</time>
      </trkpt>
      <trkpt lat="50.2103" lon="3.63313">
        <ele>192.1</ele>
        <time>2016-10-16T14:21:55.000Z</time>
      </trkpt>
      <trkpt lat="50.21012" lon="3.63332">
        <ele>185.9</ele>
        <time>2016-10-16T14:22:01.000Z</time>
      </trkpt>
      <trkpt lat="50.21006" lon="3.63344">
        <ele>186.2</ele>
        <time>2016-10-16T14:22:04.000Z</time>
      </trkpt>
      <trkpt lat="50.20995" lon="3.63369">
        <ele>189</ele>
        <time>2016-10-16T14:22:10.000Z</time>
      </trkpt>
      <trkpt lat="50.20987" lon="3.63395">
        <ele>193.6</ele>
        <time>2016-10-16T14:22:16.000Z</time>
      </trkpt>
      <trkpt lat="50.20982" lon="3.6341">
        <ele>194.2</ele>
        <time>2016-10-16T14:22:19.000Z</time>
      </trkpt>
      <trkpt lat="50.20966" lon="3.63438">
        <ele>196.1</ele>
        <time>2016-10-16T14:22:25.000Z</time>
      </trkpt>
      <trkpt lat="50.2094" lon="3.6346">
        <ele>193.8</ele>
        <time>2016-10-16T14:22:31.000Z</time>
      </trkpt>
      <trkpt lat="50.20936" lon="3.63476">
        <ele>193.2</ele>
        <time>2016-10-16T14:22:37.000Z</time>
      </trkpt>
      <trkpt lat="50.20927" lon="3.635">
        <ele>196.2</ele>
        <time>2016-10-16T14:22:44.000Z</time>
      </trkpt>
      <trkpt lat="50.20915" lon="3.63507">
        <ele>195.6</ele>
        <time>2016-10-16T14:22:48.000Z</time>
      </trkpt>
      <trkpt lat="50.20899" lon="3.6353">
        <ele>196.8</ele>
        <time>2016-10-16T14:22:54.000Z</time>
      </trkpt>
      <trkpt lat="50.20891" lon="3.63534">
        <ele>196.1</ele>
        <time>2016-10-16T14:22:57.000Z</time>
      </trkpt>
      <trkpt lat="50.2088" lon="3.63545">
        <ele>197.4</ele>
        <time>2016-10-16T14:23:00.000Z</time>
      </trkpt>
      <trkpt lat="50.20864" lon="3.63562">
        <ele>183</ele>
        <time>2016-10-16T14:23:03.000Z</time>
      </trkpt>
      <trkpt lat="50.2084" lon="3.6358">
        <ele>180.6</ele>
        <time>2016-10-16T14:23:09.000Z</time>
      </trkpt>
      <trkpt lat="50.20828" lon="3.63596">
        <ele>178.7</ele>
        <time>2016-10-16T14:23:15.000Z</time>
      </trkpt>
      <trkpt lat="50.20815" lon="3.63611">
        <ele>180.4</ele>
        <time>2016-10-16T14:23:21.000Z</time>
      </trkpt>
      <trkpt lat="50.20798" lon="3.63622">
        <ele>181.7</ele>
        <time>2016-10-16T14:23:27.000Z</time>
      </trkpt>
      <trkpt lat="50.20797" lon="3.63633">
        <ele>178.9</ele>
        <time>2016-10-16T14:23:33.000Z</time>
      </trkpt>
      <trkpt lat="50.20804" lon="3.63627">
        <ele>183.5</ele>
        <time>2016-10-16T14:23:42.000Z</time>
      </trkpt>
      <trkpt lat="50.20802" lon="3.63619">
        <ele>179.4</ele>
        <time>2016-10-16T14:24:15.000Z</time>
      </trkpt>
      <trkpt lat="50.20794" lon="3.63636">
        <ele>188.5</ele>
        <time>2016-10-16T14:24:24.000Z</time>
      </trkpt>
      <trkpt lat="50.20781" lon="3.63645">
        <ele>190.6</ele>
        <time>2016-10-16T14:24:27.000Z</time>
      </trkpt>
      <trkpt lat="50.20765" lon="3.63664">
        <ele>192.1</ele>
        <time>2016-10-16T14:24:33.000Z</time>
      </trkpt>
      <trkpt lat="50.20759" lon="3.63685">
        <ele>190.3</ele>
        <time>2016-10-16T14:24:36.000Z</time>
      </trkpt>
      <trkpt lat="50.20729" lon="3.63706">
        <ele>190.5</ele>
        <time>2016-10-16T14:24:42.000Z</time>
      </trkpt>
      <trkpt lat="50.20702" lon="3.6372">
        <ele>183.8</ele>
        <time>2016-10-16T14:24:45.000Z</time>
      </trkpt>
      <trkpt lat="50.20666" lon="3.63738">
        <ele>169.8</ele>
        <time>2016-10-16T14:24:51.000Z</time>
      </trkpt>
      <trkpt lat="50.20652" lon="3.63748">
        <ele>172</ele>
        <time>2016-10-16T14:24:54.000Z</time>
      </trkpt>
      <trkpt lat="50.20648" lon="3.63778">
        <ele>178.3</ele>
        <time>2016-10-16T14:25:01.000Z</time>
      </trkpt>
      <trkpt lat="50.20638" lon="3.63797">
        <ele>182</ele>
        <time>2016-10-16T14:25:05.000Z</time>
      </trkpt>
      <trkpt lat="50.20622" lon="3.63818">
        <ele>183.4</ele>
        <time>2016-10-16T14:25:11.000Z</time>
      </trkpt>
      <trkpt lat="50.20609" lon="3.63827">
        <ele>186</ele>
        <time>2016-10-16T14:25:14.000Z</time>
      </trkpt>
      <trkpt lat="50.20596" lon="3.63829">
        <ele>188.9</ele>
        <time>2016-10-16T14:25:17.000Z</time>
      </trkpt>
      <trkpt lat="50.20589" lon="3.63851">
        <ele>185.1</ele>
        <time>2016-10-16T14:25:23.000Z</time>
      </trkpt>
      <trkpt lat="50.20578" lon="3.63856">
        <ele>184.6</ele>
        <time>2016-10-16T14:25:26.000Z</time>
      </trkpt>
      <trkpt lat="50.20544" lon="3.63849">
        <ele>176.2</ele>
        <time>2016-10-16T14:25:29.000Z</time>
      </trkpt>
      <trkpt lat="50.20509" lon="3.63872">
        <ele>168.6</ele>
        <time>2016-10-16T14:25:35.000Z</time>
      </trkpt>
      <trkpt lat="50.20507" lon="3.63881">
        <ele>169</ele>
        <time>2016-10-16T14:25:44.000Z</time>
      </trkpt>
      <trkpt lat="50.20497" lon="3.63888">
        <ele>169.4</ele>
        <time>2016-10-16T14:25:47.000Z</time>
      </trkpt>
      <trkpt lat="50.20475" lon="3.63894">
        <ele>180.5</ele>
        <time>2016-10-16T14:25:54.000Z</time>
      </trkpt>
      <trkpt lat="50.20467" lon="3.63899">
        <ele>185.4</ele>
        <time>2016-10-16T14:25:58.000Z</time>
      </trkpt>
      <trkpt lat="50.20458" lon="3.63904">
        <ele>187.7</ele>
        <time>2016-10-16T14:26:01.000Z</time>
      </trkpt>
      <trkpt lat="50.20458" lon="3.63911">
        <ele>191</ele>
        <time>2016-10-16T14:26:04.000Z</time>
      </trkpt>
      <trkpt lat="50.20448" lon="3.63939">
        <ele>194.7</ele>
        <time>2016-10-16T14:26:10.000Z</time>
      </trkpt>
      <trkpt lat="50.20443" lon="3.63944">
        <ele>198.7</ele>
        <time>2016-10-16T14:26:13.000Z</time>
      </trkpt>
      <trkpt lat="50.20434" lon="3.63977">
        <ele>200.4</ele>
        <time>2016-10-16T14:26:19.000Z</time>
      </trkpt>
      <trkpt lat="50.20426" lon="3.63985">
        <ele>198.9</ele>
        <time>2016-10-16T14:26:22.000Z</time>
      </trkpt>
      <trkpt lat="50.20422" lon="3.64006">
        <ele>200.1</ele>
        <time>2016-10-16T14:26:28.000Z</time>
      </trkpt>
      <trkpt lat="50.20422" lon="3.64017">
        <ele>204.5</ele>
        <time>2016-10-16T14:26:34.000Z</time>
      </trkpt>
      <trkpt lat="50.20433" lon="3.64021">
        <ele>195.3</ele>
        <time>2016-10-16T14:26:37.000Z</time>
      </trkpt>
      <trkpt lat="50.20448" lon="3.64024">
        <ele>188.9</ele>
        <time>2016-10-16T14:26:43.000Z</time>
      </trkpt>
      <trkpt lat="50.20459" lon="3.64024">
        <ele>189.3</ele>
        <time>2016-10-16T14:26:46.000Z</time>
      </trkpt>
      <trkpt lat="50.20474" lon="3.6402">
        <ele>203.3</ele>
        <time>2016-10-16T14:26:52.000Z</time>
      </trkpt>
      <trkpt lat="50.20499" lon="3.64031">
        <ele>199.7</ele>
        <time>2016-10-16T14:26:58.000Z</time>
      </trkpt>
      <trkpt lat="50.20528" lon="3.64044">
        <ele>198.9</ele>
        <time>2016-10-16T14:27:04.000Z</time>
      </trkpt>
      <trkpt lat="50.20547" lon="3.64042">
        <ele>200.3</ele>
        <time>2016-10-16T14:27:07.000Z</time>
      </trkpt>
      <trkpt lat="50.20571" lon="3.64045">
        <ele>202.2</ele>
        <time>2016-10-16T14:27:10.000Z</time>
      </trkpt>
      <trkpt lat="50.206" lon="3.64044">
        <ele>202.2</ele>
        <time>2016-10-16T14:27:13.000Z</time>
      </trkpt>
      <trkpt lat="50.20643" lon="3.64053">
        <ele>197.4</ele>
        <time>2016-10-16T14:27:19.000Z</time>
      </trkpt>
      <trkpt lat="50.2069" lon="3.64062">
        <ele>200.2</ele>
        <time>2016-10-16T14:27:25.000Z</time>
      </trkpt>
      <trkpt lat="50.20718" lon="3.64059">
        <ele>198.1</ele>
        <time>2016-10-16T14:27:28.000Z</time>
      </trkpt>
      <trkpt lat="50.2077" lon="3.64064">
        <ele>195.6</ele>
        <time>2016-10-16T14:27:34.000Z</time>
      </trkpt>
      <trkpt lat="50.20791" lon="3.64068">
        <ele>195.5</ele>
        <time>2016-10-16T14:27:37.000Z</time>
      </trkpt>
      <trkpt lat="50.20814" lon="3.64066">
        <ele>196.9</ele>
        <time>2016-10-16T14:27:40.000Z</time>
      </trkpt>
      <trkpt lat="50.20853" lon="3.64079">
        <ele>196.8</ele>
        <time>2016-10-16T14:27:46.000Z</time>
      </trkpt>
      <trkpt lat="50.20876" lon="3.64083">
        <ele>197.7</ele>
        <time>2016-10-16T14:27:49.000Z</time>
      </trkpt>
      <trkpt lat="50.20914" lon="3.64088">
        <ele>202.7</ele>
        <time>2016-10-16T14:27:55.000Z</time>
      </trkpt>
      <trkpt lat="50.2095" lon="3.64094">
        <ele>200.1</ele>
        <time>2016-10-16T14:28:01.000Z</time>
      </trkpt>
      <trkpt lat="50.20968" lon="3.64096">
        <ele>198.9</ele>
        <time>2016-10-16T14:28:04.000Z</time>
      </trkpt>
      <trkpt lat="50.21002" lon="3.64092">
        <ele>202.7</ele>
        <time>2016-10-16T14:28:10.000Z</time>
      </trkpt>
      <trkpt lat="50.21033" lon="3.64092">
        <ele>204.4</ele>
        <time>2016-10-16T14:28:16.000Z</time>
      </trkpt>
      <trkpt lat="50.21062" lon="3.64115">
        <ele>204.3</ele>
        <time>2016-10-16T14:28:22.000Z</time>
      </trkpt>
      <trkpt lat="50.21075" lon="3.64119">
        <ele>202.9</ele>
        <time>2016-10-16T14:28:25.000Z</time>
      </trkpt>
      <trkpt lat="50.211" lon="3.6411">
        <ele>198.2</ele>
        <time>2016-10-16T14:28:28.000Z</time>
      </trkpt>
      <trkpt lat="50.21148" lon="3.64099">
        <ele>196.3</ele>
        <time>2016-10-16T14:28:34.000Z</time>
      </trkpt>
      <trkpt lat="50.21167" lon="3.64106">
        <ele>195.3</ele>
        <time>2016-10-16T14:28:37.000Z</time>
      </trkpt>
      <trkpt lat="50.21195" lon="3.64125">
        <ele>194.9</ele>
        <time>2016-10-16T14:28:40.000Z</time>
      </trkpt>
      <trkpt lat="50.21219" lon="3.64116">
        <ele>194.5</ele>
        <time>2016-10-16T14:28:43.000Z</time>
      </trkpt>
      <trkpt lat="50.21272" lon="3.64123">
        <ele>190.6</ele>
        <time>2016-10-16T14:28:49.000Z</time>
      </trkpt>
      <trkpt lat="50.21338" lon="3.64128">
        <ele>185</ele>
        <time>2016-10-16T14:28:55.000Z</time>
      </trkpt>
      <trkpt lat="50.21396" lon="3.64128">
        <ele>192.1</ele>
        <time>2016-10-16T14:29:01.000Z</time>
      </trkpt>
      <trkpt lat="50.21429" lon="3.64136">
        <ele>190.1</ele>
        <time>2016-10-16T14:29:04.000Z</time>
      </trkpt>
      <trkpt lat="50.21459" lon="3.64147">
        <ele>189.3</ele>
        <time>2016-10-16T14:29:07.000Z</time>
      </trkpt>
      <trkpt lat="50.21487" lon="3.64147">
        <ele>188.3</ele>
        <time>2016-10-16T14:29:10.000Z</time>
      </trkpt>
      <trkpt lat="50.21511" lon="3.64159">
        <ele>188.4</ele>
        <time>2016-10-16T14:29:13.000Z</time>
      </trkpt>
      <trkpt lat="50.21567" lon="3.64171">
        <ele>181.2</ele>
        <time>2016-10-16T14:29:19.000Z</time>
      </trkpt>
      <trkpt lat="50.21594" lon="3.64172">
        <ele>179.9</ele>
        <time>2016-10-16T14:29:22.000Z</time>
      </trkpt>
      <trkpt lat="50.2162" lon="3.64166">
        <ele>179.7</ele>
        <time>2016-10-16T14:29:25.000Z</time>
      </trkpt>
      <trkpt lat="50.21667" lon="3.64169">
        <ele>171</ele>
        <time>2016-10-16T14:29:31.000Z</time>
      </trkpt>
      <trkpt lat="50.2172" lon="3.64167">
        <ele>171.4</ele>
        <time>2016-10-16T14:29:37.000Z</time>
      </trkpt>
      <trkpt lat="50.21764" lon="3.64173">
        <ele>177.3</ele>
        <time>2016-10-16T14:29:43.000Z</time>
      </trkpt>
      <trkpt lat="50.21787" lon="3.64174">
        <ele>179.5</ele>
        <time>2016-10-16T14:29:46.000Z</time>
      </trkpt>
      <trkpt lat="50.21834" lon="3.64175">
        <ele>174.9</ele>
        <time>2016-10-16T14:29:52.000Z</time>
      </trkpt>
      <trkpt lat="50.21862" lon="3.64173">
        <ele>171.8</ele>
        <time>2016-10-16T14:29:55.000Z</time>
      </trkpt>
      <trkpt lat="50.21912" lon="3.64177">
        <ele>176.4</ele>
        <time>2016-10-16T14:30:01.000Z</time>
      </trkpt>
      <trkpt lat="50.21941" lon="3.64179">
        <ele>179</ele>
        <time>2016-10-16T14:30:04.000Z</time>
      </trkpt>
      <trkpt lat="50.2197" lon="3.64178">
        <ele>175.6</ele>
        <time>2016-10-16T14:30:07.000Z</time>
      </trkpt>
      <trkpt lat="50.21992" lon="3.64181">
        <ele>176.9</ele>
        <time>2016-10-16T14:30:10.000Z</time>
      </trkpt>
      <trkpt lat="50.22043" lon="3.64192">
        <ele>174.9</ele>
        <time>2016-10-16T14:30:16.000Z</time>
      </trkpt>
      <trkpt lat="50.22063" lon="3.64205">
        <ele>176.6</ele>
        <time>2016-10-16T14:30:19.000Z</time>
      </trkpt>
      <trkpt lat="50.22086" lon="3.64211">
        <ele>175.2</ele>
        <time>2016-10-16T14:30:25.000Z</time>
      </trkpt>
      <trkpt lat="50.22075" lon="3.64222">
        <ele>174.9</ele>
        <time>2016-10-16T14:30:28.000Z</time>
      </trkpt>
      <trkpt lat="50.2207" lon="3.6422">
        <ele>175.6</ele>
        <time>2016-10-16T14:30:43.000Z</time>
      </trkpt>
      <trkpt lat="50.22055" lon="3.64202">
        <ele>178.1</ele>
        <time>2016-10-16T14:30:49.000Z</time>
      </trkpt>
      <trkpt lat="50.22071" lon="3.64196">
        <ele>178.8</ele>
        <time>2016-10-16T14:30:54.999Z</time>
      </trkpt>
      <trkpt lat="50.22071" lon="3.64204">
        <ele>178.5</ele>
        <time>2016-10-16T14:31:04.000Z</time>
      </trkpt>
      <trkpt lat="50.2208" lon="3.64203">
        <ele>183.2</ele>
        <time>2016-10-16T14:31:13.000Z</time>
      </trkpt>
      <trkpt lat="50.22075" lon="3.64207">
        <ele>186.9</ele>
        <time>2016-10-16T14:31:26.000Z</time>
      </trkpt>
    </trkseg>
  </trk>
</gpx>